[[{"header":{"parameterUnit":"m.s-1","parameterCategory":1,"la1":30.6,"la2":28.766,"lo1":-90.7593,"lo2":-88.6598,"dx":0.0162,"dy":0.0183,"nx":116,"ny":114,"refTime":"2022-11-21T18:00:00:Z","depth":0,"parameterNumber":2,"parameterNumberName":"U-component_of_WINDS"},"data":[0.0,0.0,0.0,0.0,0.0,0.0,0.0,0.0,0.0,0.0,0.0,0.0,0.0,0.0,0.0,0.0,0.0,0.0,0.0,0.0,0.0,0.0,0.0,0.0,0.0,0.0,0.0,0.0,0.0,0.0,0.0,0.0,0.0,0.0,0.0,0.0,0.0,0.0,0.0,0.0,0.0,0.0,0.0,0.0,0.0,0.0,0.0,0.0,0.0,0.0,0.0,0.0,0.0,0.0,0.0,0.0,0.0,0.0,0.0,0.0,0.0,0.0,0.0,0.0,0.0,0.0,0.0,0.0,0.0,0.0,0.0,0.0,0.0,0.0,0.0,0.0,0.0,0.0,0.0,0.0,0.0,0.0,0.0,0.0,0.0,0.0,0.0,0.0,0.0,0.0,0.0,0.0,0.0,0.0,0.0,0.0,0.0,0.0,0.0,0.0,0.0,0.0,0.0,0.0,0.0,0.0,0.0,0.0,0.0,0.0,0.0,0.0,0.0,0.0,0.0,0.0,0.0,0.0,0.0,0.0,0.0,0.0,0.0,0.0,0.0,0.0,0.0,0.0,0.0,0.0,0.0,0.0,0.0,0.0,0.0,0.0,0.0,0.0,0.0,0.0,0.0,0.0,0.0,0.0,0.0,0.0,0.0,0.0,0.0,0.0,0.0,0.0,0.0,0.0,0.0,0.0,0.0,0.0,0.0,0.0,0.0,0.0,0.0,0.0,0.0,0.0,0.0,0.0,0.0,0.0,0.0,0.0,0.0,0.0,0.0,0.0,0.0,0.0,0.0,0.0,0.0,0.0,0.0,0.0,0.0,0.0,0.0,0.0,0.0,0.0,0.0,0.0,0.0,0.0,0.0,0.0,0.0,0.0,0.0,0.0,0.0,0.0,0.0,0.0,0.0,0.0,0.0,0.0,0.0,0.0,0.0,0.0,0.0,0.0,0.0,0.0,0.0,0.0,0.0,0.0,0.0,0.0,0.0,0.0,0.0,0.0,0.0,0.0,0.0,0.0,0.0,0.0,0.0,0.0,0.0,0.0,0.0,0.0,0.0,0.0,0.0,0.0,0.0,0.0,0.0,0.0,0.0,0.0,0.0,0.0,0.0,0.0,0.0,0.0,0.0,0.0,0.0,0.0,0.0,0.0,0.0,0.0,0.0,0.0,0.0,0.0,0.0,0.0,0.0,0.0,0.0,0.0,0.0,0.0,0.0,0.0,0.0,0.0,0.0,0.0,0.0,0.0,0.0,0.0,0.0,0.0,0.0,0.0,0.0,0.0,0.0,0.0,0.0,0.0,0.0,0.0,0.0,0.0,0.0,0.0,0.0,0.0,0.0,0.0,0.0,0.0,0.0,0.0,0.0,0.0,0.0,0.0,0.0,0.0,0.0,0.0,0.0,0.0,0.0,0.0,0.0,0.0,0.0,0.0,0.0,0.0,0.0,0.0,0.0,0.0,0.0,0.0,0.0,0.0,0.0,0.0,0.0,0.0,0.0,0.0,0.0,0.0,0.0,0.0,0.0,0.0,0.0,0.0,0.0,0.0,0.0,0.0,0.0,0.0,0.0,0.0,0.0,0.0,0.0,0.0,0.0,0.0,0.0,0.0,0.0,0.0,0.0,0.0,0.0,0.0,0.0,0.0,0.0,0.0,0.0,0.0,0.0,0.0,0.0,0.0,0.0,0.0,0.0,0.0,0.0,0.0,0.0,0.0,0.0,0.0,0.0,0.0,0.0,0.0,0.0,0.0,0.0,0.0,0.0,0.0,0.0,0.0,0.0,0.0,0.0,0.0,0.0,0.0,0.0,0.0,0.0,0.0,0.0,0.0,0.0,0.0,0.0,0.0,0.0,0.0,0.0,0.0,0.0,0.0,0.0,0.0,0.0,0.0,0.0,0.0,0.0,0.0,0.0,0.0,0.0,0.0,0.0,0.0,0.0,0.0,0.0,0.0,0.0,0.0,0.0,0.0,0.0,0.0,0.0,0.0,0.0,0.0,0.0,0.0,0.0,0.0,0.0,0.0,0.0,0.0,0.0,0.0,0.0,0.0,0.0,0.0,0.0,0.0,0.0,0.0,0.0,0.0,0.0,0.0,0.0,0.0,0.0,0.0,0.0,0.0,0.0,0.0,0.0,0.0,0.0,0.0,0.0,0.0,0.0,0.0,0.0,0.0,0.0,0.0,0.0,0.0,0.0,0.0,0.0,0.0,0.0,0.0,0.0,0.0,0.0,0.0,0.0,0.0,0.0,0.0,0.0,0.0,0.0,0.0,0.0,0.0,0.0,0.0,0.0,0.0,0.0,0.0,0.0,0.0,0.0,0.0,0.0,0.0,0.0,0.0,0.0,0.0,0.0,0.0,0.0,0.0,0.0,0.0,0.0,0.0,0.0,0.0,0.0,0.0,0.0,0.0,0.0,0.0,0.0,0.0,0.0,0.0,0.0,0.0,0.0,0.0,0.0,0.0,0.0,0.0,0.0,0.0,0.0,0.0,0.0,0.0,0.0,0.0,0.0,0.0,0.0,0.0,0.0,0.0,0.0,0.0,0.0,0.0,0.0,0.0,0.0,0.0,0.0,0.0,0.0,0.0,0.0,0.0,0.0,0.0,0.0,0.0,0.0,0.0,0.0,0.0,0.0,0.0,0.0,0.0,0.0,0.0,0.0,0.0,0.0,0.0,0.0,0.0,0.0,0.0,0.0,0.0,0.0,0.0,0.0,0.0,0.0,0.0,0.0,0.0,0.0,0.0,0.0,0.0,0.0,0.0,0.0,0.0,0.0,0.0,0.0,0.0,0.0,0.0,0.0,0.0,0.0,0.0,0.0,0.0,0.0,0.0,0.0,0.0,0.0,0.0,0.0,0.0,0.0,0.0,0.0,0.0,0.0,0.0,0.0,0.0,0.0,0.0,0.0,0.0,0.0,0.0,0.0,0.0,0.0,0.0,0.0,0.0,0.0,0.0,0.0,0.0,0.0,0.0,0.0,0.0,0.0,0.0,0.0,0.0,0.0,0.0,0.0,0.0,0.0,0.0,0.0,0.0,0.0,0.0,0.0,0.0,0.0,0.0,0.0,0.0,0.0,0.0,0.0,0.0,0.0,0.0,0.0,0.0,0.0,0.0,0.0,0.0,0.0,0.0,0.0,0.0,0.0,0.0,0.0,0.0,0.0,0.0,0.0,0.0,0.0,0.0,0.0,0.0,0.0,0.0,0.0,0.0,0.0,0.0,0.0,0.0,0.0,0.0,0.0,0.0,0.0,0.0,0.0,0.0,0.0,0.0,0.0,0.0,0.0,0.0,0.0,0.0,0.0,0.0,0.0,0.0,0.0,0.0,0.0,0.0,0.0,0.0,0.0,0.0,0.0,0.0,0.0,0.0,0.0,0.0,0.0,0.0,0.0,0.0,0.0,0.0,0.0,0.0,0.0,0.0,0.0,0.0,0.0,0.0,0.0,0.0,0.0,0.0,0.0,0.0,0.0,0.0,0.0,0.0,0.0,0.0,0.0,0.0,0.0,0.0,0.0,0.0,0.0,0.0,0.0,0.0,0.0,0.0,0.0,0.0,0.0,0.0,0.0,0.0,0.0,0.0,0.0,0.0,0.0,0.0,0.0,0.0,0.0,0.0,0.0,0.0,0.0,0.0,0.0,0.0,0.0,0.0,0.0,0.0,0.0,0.0,0.0,0.0,0.0,0.0,0.0,0.0,0.0,0.0,0.0,0.0,0.0,0.0,0.0,0.0,0.0,0.0,0.0,0.0,0.0,0.0,0.0,0.0,0.0,0.0,0.0,0.0,0.0,0.0,0.0,0.0,0.0,0.0,0.0,0.0,0.0,0.0,0.0,0.0,0.0,0.0,0.0,0.0,0.0,0.0,0.0,0.0,0.0,0.0,0.0,0.0,0.0,0.0,0.0,0.0,0.0,0.0,0.0,0.0,0.0,0.0,0.0,0.0,0.0,0.0,0.0,0.0,0.0,0.0,0.0,0.0,0.0,0.0,0.0,0.0,0.0,0.0,0.0,0.0,0.0,0.0,0.0,0.0,0.0,0.0,0.0,0.0,0.0,0.0,0.0,0.0,0.0,0.0,0.0,0.0,0.0,0.0,0.0,0.0,0.0,0.0,0.0,0.0,0.0,0.0,0.0,0.0,0.0,0.0,0.0,0.0,0.0,0.0,0.0,0.0,0.0,0.0,0.0,0.0,0.0,0.0,0.0,0.0,0.0,0.0,0.0,0.0,0.0,0.0,0.0,0.0,0.0,0.0,0.0,0.0,0.0,0.0,0.0,0.0,0.0,0.0,0.0,0.0,0.0,0.0,0.0,0.0,0.0,0.0,0.0,0.0,0.0,0.0,0.0,0.0,0.0,0.0,0.0,0.0,0.0,0.0,0.0,0.0,0.0,0.0,0.0,0.0,0.0,0.0,0.0,0.0,0.0,0.0,0.0,0.0,0.0,0.0,0.0,0.0,0.0,0.0,0.0,0.0,0.0,0.0,0.0,0.0,0.0,0.0,0.0,0.0,0.0,0.0,0.0,0.0,0.0,0.0,0.0,0.0,0.0,0.0,0.0,0.0,0.0,0.0,0.0,0.0,0.0,0.0,0.0,0.0,0.0,0.0,0.0,0.0,0.0,0.0,0.0,0.0,0.0,0.0,0.0,0.0,0.0,0.0,0.0,0.0,0.0,0.0,0.0,0.0,0.0,0.0,0.0,0.0,0.0,0.0,0.0,0.0,0.0,0.0,0.0,0.0,0.0,0.0,0.0,0.0,0.0,0.0,0.0,0.0,0.0,0.0,0.0,0.0,0.0,0.0,0.0,0.0,0.0,0.0,0.0,0.0,0.0,0.0,0.0,0.0,0.0,0.0,0.0,0.0,0.0,0.0,0.0,0.0,0.0,0.0,0.0,0.0,0.0,0.0,0.0,0.0,0.0,0.0,0.0,0.0,0.0,0.0,0.0,0.0,0.0,0.0,0.0,0.0,0.0,0.0,0.0,0.0,0.0,0.0,0.0,0.0,0.0,0.0,0.0,0.0,0.0,0.0,0.0,0.0,0.0,0.0,0.0,0.0,0.0,0.0,0.0,0.0,0.0,0.0,0.0,0.0,0.0,0.0,0.0,0.0,0.0,0.0,0.0,0.0,0.0,0.0,0.0,0.0,0.0,0.0,0.0,0.0,0.0,0.0,0.0,0.0,0.0,0.0,0.0,0.0,0.0,0.0,0.0,0.0,0.0,0.0,0.0,0.0,0.0,0.0,0.0,0.0,0.0,0.0,0.0,0.0,0.0,0.0,0.0,0.0,0.0,0.0,0.0,0.0,0.0,0.0,0.0,0.0,0.0,0.0,0.0,0.0,0.0,0.0,0.0,0.0,0.0,0.0,0.0,0.0,0.0,0.0,0.0,0.0,0.0,0.0,0.0,0.0,0.0,0.0,0.0,0.0,0.0,0.0,0.0,0.0,0.0,0.0,0.0,0.0,0.0,0.0,0.0,0.0,0.0,0.0,0.0,0.0,0.0,0.0,0.0,0.0,0.0,0.0,0.0,0.0,0.0,0.0,0.0,0.0,0.0,0.0,0.0,0.0,0.0,0.0,0.0,0.0,0.0,0.0,0.0,0.0,0.0,0.0,0.0,0.0,0.0,0.0,0.0,0.0,0.0,0.0,0.0,0.0,0.0,0.0,0.0,0.0,0.0,0.0,0.0,0.0,0.0,0.0,0.0,0.0,0.0,0.0,0.0,0.0,0.0,0.0,0.0,0.0,0.0,0.0,0.0,0.0,0.0,0.0,0.0,0.0,0.0,0.0,0.0,0.0,0.0,0.0,0.0,0.0,0.0,0.0,0.0,0.0,0.0,0.0,0.0,0.0,0.0,0.0,0.0,0.0,0.0,0.0,0.0,0.0,0.0,0.0,0.0,0.0,0.0,0.0,0.0,0.0,0.0,0.0,0.0,0.0,0.0,0.0,0.0,0.0,0.0,0.0,0.0,0.0,0.0,0.0,0.0,0.0,0.0,0.0,0.0,0.0,0.0,0.0,0.0,0.0,0.0,0.0,0.0,0.0,0.0,0.0,0.0,0.0,0.0,0.0,0.0,0.0,0.0,0.0,-1.5065,-1.4274,0.0,0.0,0.0,0.0,0.0,0.0,0.0,0.0,0.0,0.0,0.0,0.0,0.0,0.0,0.0,0.0,0.0,0.0,0.0,0.0,0.0,0.0,0.0,0.0,0.0,0.0,0.0,0.0,0.0,0.0,0.0,0.0,0.0,0.0,0.0,0.0,1.9874,1.973,2.1453,2.3293,2.5181,2.4543,2.2027,1.8078,0.0,0.0,0.0,0.0,0.0,0.0,0.0,0.0,0.0,0.0,0.0,0.0,0.0,0.0,0.0,0.0,0.0,0.0,0.0,0.0,0.0,0.0,0.0,0.0,0.0,0.0,0.0,0.0,0.0,0.0,0.0,0.0,0.0,0.0,0.0,0.0,0.0,0.0,0.0,0.0,0.0,0.0,0.0,0.0,0.0,0.0,0.0,0.0,0.0,0.0,0.0,0.0,0.0,0.0,0.0,0.0,0.0,0.0,0.0,0.0,0.0,0.0,0.0,0.0,0.0,0.0,0.0,0.0,0.0,0.0,-1.6813,-1.6272,0.0,0.0,0.0,0.0,0.0,0.0,0.0,0.0,0.0,0.0,0.0,0.0,0.0,0.0,0.0,0.0,0.0,0.0,0.0,0.0,0.0,0.0,0.0,2.0575,2.1022,2.0782,2.0715,2.0601,0.0,0.0,0.0,0.0,0.0,0.0,2.0473,2.1331,2.2155,2.2885,2.6773,3.0017,3.2698,3.3268,2.9832,2.318,2.2379,0.0,0.0,0.0,0.0,0.0,0.0,0.0,0.0,0.0,0.0,0.0,0.0,0.0,0.0,0.0,0.0,0.0,0.0,0.0,0.0,0.0,0.0,0.0,0.0,0.0,0.0,0.0,0.0,0.0,0.0,0.0,0.0,0.0,0.0,0.0,0.0,0.0,0.0,0.0,0.0,0.0,0.0,0.0,0.0,0.0,0.0,0.0,0.0,0.0,0.0,0.0,0.0,0.0,0.0,0.0,0.0,0.0,0.0,0.0,0.0,0.0,0.0,0.0,-0.8364,-0.9406,-1.0834,-1.4272,-1.6573,-1.7886,-1.8771,-1.8755,-1.7931,-1.6842,0.0,0.0,0.0,0.0,0.0,0.0,0.0,0.0,0.0,0.0,0.0,0.0,0.0,0.0,0.0,0.0,0.0,0.0,0.0,0.0,0.0,2.2373,2.2541,2.2753,2.2783,2.2529,2.1857,0.0,0.0,0.0,0.0,2.2742,2.2371,2.3275,2.5507,2.9089,3.3802,3.6259,3.6618,3.724,3.719,3.6465,3.2109,2.8947,2.6919,0.0,0.0,0.0,0.0,0.0,0.0,0.0,0.0,0.0,0.0,0.0,0.0,0.0,0.0,0.0,0.0,0.0,0.0,0.0,0.0,0.0,0.0,0.0,0.0,0.0,0.0,0.0,0.0,0.0,0.0,0.0,0.0,0.0,0.0,0.0,0.0,0.0,0.0,0.0,0.0,0.0,1.068,1.0324,0.0,0.0,0.0,0.0,0.0,0.0,0.0,0.0,0.0,0.0,0.0,0.0,0.0,0.1725,-0.1498,-0.2768,-0.5097,-0.843,-1.0103,-1.1941,-1.3916,-1.6894,-1.9158,-2.0927,-2.322,0.0,-2.0911,-1.9153,0.0,0.0,0.0,0.0,0.0,0.0,0.0,0.0,0.0,0.0,0.0,0.0,0.0,0.0,0.0,0.0,0.0,0.0,0.0,0.0,0.0,2.632,2.7688,2.8272,3.0642,3.0708,2.7404,2.7788,0.0,0.0,2.413,2.4374,2.3851,2.7583,3.2699,3.9161,4.2425,4.4157,4.4576,4.5551,4.5952,4.5809,4.3267,3.9013,3.357,3.0278,0.0,0.0,0.0,0.0,0.0,0.0,0.0,0.0,0.0,0.0,0.0,0.0,0.0,0.0,0.0,0.0,0.0,0.0,0.0,0.0,0.0,0.0,0.0,0.0,0.0,0.0,0.0,0.0,0.0,0.0,0.0,0.0,0.0,0.0,0.0,0.0,0.0,0.0,0.0,1.3003,1.252,1.1796,1.2549,1.3202,0.0,0.0,0.0,0.0,0.0,0.0,0.0,0.0,0.0,0.5702,0.2682,-0.0699,-0.4223,-0.6023,-0.8276,-1.1221,-1.2172,-1.319,-1.4124,-1.6487,-1.8882,-2.1134,-2.3329,-2.4456,-2.4648,-2.2489,-2.0862,-1.9663,0.0,0.0,0.0,0.0,-2.1566,-2.0781,0.0,0.0,0.0,0.0,0.0,0.0,0.0,0.0,0.0,0.0,0.0,0.0,2.7532,3.1142,3.3676,3.4086,3.7534,3.7318,3.1755,3.2217,3.0256,2.4846,2.5614,2.5907,2.5297,3.2301,3.9557,4.6932,4.9546,5.1195,5.1991,5.3098,5.3448,5.3127,5.2166,4.7566,4.0371,3.6351,3.4386,3.3457,0.0,0.0,0.0,0.0,0.0,0.0,0.0,0.0,0.0,0.0,0.0,0.0,0.0,0.0,0.0,0.0,0.0,0.0,0.0,0.0,0.0,0.0,0.0,0.0,0.0,0.0,0.0,0.0,0.0,0.0,0.0,0.0,0.0,0.0,0.0,0.0,0.0,1.4558,1.3955,1.3285,1.3172,1.342,0.0,0.0,0.0,0.0,0.0,0.0,1.1862,1.0071,0.8454,0.7371,0.2721,-0.1408,-0.4552,-0.6923,-0.9637,-1.2552,-1.2658,-1.3126,-1.396,-1.6168,-1.8363,-2.0894,-2.2989,-2.5391,-2.7428,-2.5077,-2.346,-2.2553,-2.3695,-2.3035,-2.1934,-2.536,-2.5643,-2.4516,0.0,0.0,0.0,0.0,0.0,0.0,0.0,0.0,0.0,0.0,0.0,3.1476,3.1947,3.6569,3.951,3.9168,4.0554,3.8771,3.2361,3.3072,3.1066,2.5155,2.6756,2.7502,2.6925,3.6662,4.4248,4.9164,5.3661,5.6137,5.6751,5.7467,5.8124,5.8602,5.6721,5.2479,4.6826,4.6251,4.3882,4.0224,3.5778,0.0,0.0,0.0,0.0,0.0,0.0,0.0,0.0,0.0,0.0,0.0,0.0,0.0,0.0,0.0,0.0,0.0,0.0,0.0,0.0,0.0,0.0,0.0,0.0,0.0,0.0,0.0,0.0,0.0,0.0,0.0,0.0,0.0,0.0,0.0,0.0,0.0,0.0,1.495,1.3311,0.0,0.0,0.0,0.0,1.2914,1.2913,1.1814,0.9525,0.9377,0.8726,0.7421,0.4848,0.2592,0.0348,-0.2255,-0.5735,-1.0519,-1.0524,-1.1823,-1.4278,-1.653,-1.8775,-2.1373,-2.3844,-2.6228,-2.835,-2.5985,-2.497,-2.4756,-2.348,-2.2911,-2.298,-2.4362,-2.4777,-2.4852,0.0,0.0,0.0,0.0,0.0,2.419,2.419,2.475,2.5419,2.6092,2.9976,3.3474,3.5359,4.1017,4.5512,4.7584,5.0149,4.9776,4.5374,4.2798,3.902,3.3528,3.2093,3.3973,3.9377,4.5074,5.0275,5.497,5.7483,5.859,5.8411,5.8026,5.7644,5.7411,5.6712,5.5284,5.2982,4.8862,4.6548,4.5233,4.0159,3.699,0.0,0.0,0.0,0.0,0.0,0.0,0.0,0.0,0.0,0.0,0.0,0.0,0.0,0.0,0.0,0.0,0.0,0.0,0.0,0.0,0.0,0.0,0.0,0.0,0.0,0.0,0.0,0.0,0.0,0.0,0.0,0.0,0.0,0.0,0.0,0.0,0.0,1.6848,1.5853,0.0,1.4641,1.3829,1.3269,1.3101,1.2909,1.2449,1.1695,1.0863,1.0119,0.9707,0.5836,0.2692,0.0362,-0.2182,-0.6022,-1.0795,-1.1049,-1.2403,-1.4869,-1.559,-1.7397,-1.9916,-2.2342,-2.4756,-2.709,-2.7852,-2.7915,-2.7499,-2.8133,-2.7591,-2.6626,-2.9709,-3.0052,-2.8964,0.0,0.0,0.0,0.0,2.419,2.4301,2.4653,2.5197,2.6495,2.9053,3.3354,3.749,4.094,4.7239,5.2088,5.4176,5.6619,5.5889,5.0624,4.757,4.2987,3.6422,3.5491,3.9243,4.8152,5.0698,5.4132,5.877,5.9907,6.0326,6.0116,5.9468,5.8956,5.8723,5.8286,5.7855,5.6995,5.293,5.1453,5.1291,4.5928,4.1983,3.9049,0.0,0.0,0.0,0.0,0.0,0.0,0.0,0.0,0.0,0.0,0.0,0.0,0.0,0.0,0.0,0.0,0.0,0.0,0.0,0.0,0.0,0.0,0.0,0.0,0.0,0.0,0.0,0.0,0.0,0.0,0.0,0.0,0.0,0.0,2.0219,1.9877,1.9804,1.8667,1.7865,1.7511,1.6405,1.5802,1.6188,1.5209,1.4706,1.487,1.3273,1.2198,1.2272,0.8461,0.5544,0.4082,0.0562,-0.3382,-0.75,-0.9265,-1.1406,-1.392,-1.4825,-1.6696,-1.9159,-2.0807,-2.3342,-2.6568,-2.8193,-2.9053,-2.948,-3.0567,-3.0041,-2.9118,-3.1848,-3.1993,-3.068,0.0,0.0,0.0,2.419,2.419,2.4542,2.5519,2.5889,2.7913,3.308,3.8502,4.3768,4.8606,5.5074,5.8916,5.8753,5.9425,5.6146,4.7355,4.6612,4.2485,3.3474,3.6823,4.3139,5.2127,5.3054,5.5688,6.0206,6.0864,6.1553,6.2181,6.2151,6.2366,6.3049,6.1619,6.017,5.8579,5.9007,5.9047,5.8468,5.3138,4.9029,4.5405,0.0,0.0,0.0,0.0,0.0,0.0,0.0,0.0,0.0,0.0,0.0,0.0,0.0,0.0,0.0,0.0,0.0,0.0,0.0,0.0,0.0,0.0,0.0,0.0,0.0,0.0,0.0,0.0,0.0,0.0,0.0,0.0,0.0,2.1626,2.2101,2.278,2.3707,2.1514,2.0583,2.2136,2.1265,2.1011,2.1834,1.9637,1.8314,1.8321,1.6353,1.5169,1.4984,1.2671,1.1406,1.1406,0.6277,0.2472,0.0,-0.5128,-0.8976,-1.1745,-1.4121,-1.6785,-1.9192,-1.9321,-2.2103,-2.6749,-2.6725,-2.8322,-3.0587,-3.0133,-2.9913,-2.9913,-2.9913,-2.9913,-2.9913,2.4036,2.4151,2.419,2.419,2.419,2.4485,2.5335,2.6539,2.9087,3.4074,4.0059,4.5927,5.1336,5.6398,6.0317,6.2676,6.2392,6.0139,5.5803,5.1991,4.7342,4.1625,4.6857,5.1729,5.5804,5.8369,6.0715,6.2929,6.3109,6.3558,6.4216,6.2438,6.1812,6.1928,6.1112,6.0349,6.0023,6.0871,6.1267,6.0874,5.694,5.3437,5.0244,0.0,0.0,0.0,0.0,0.0,0.0,0.0,0.0,0.0,0.0,0.0,0.0,0.0,0.0,0.0,0.0,0.0,0.0,0.0,0.0,0.0,0.0,0.0,0.0,0.0,0.0,0.0,0.0,0.0,0.0,0.0,2.7872,2.7336,2.4778,2.4428,2.4329,2.4154,2.3855,2.3281,2.2161,2.1901,2.1813,2.2179,2.1501,2.0505,1.8886,1.8346,1.7147,1.5289,1.3012,1.1947,1.1947,0.671,0.2771,0.0197,-0.3167,-0.7304,-1.1763,-1.232,-1.4236,-1.7121,-1.8704,-2.1252,-2.4344,-2.4179,-2.556,-2.8172,-2.9845,-3.0532,-3.0532,-3.0532,-3.0532,-3.0532,2.3976,2.4112,2.419,2.419,2.419,2.4596,2.5836,2.7027,3.0337,3.7361,4.2316,4.7885,5.521,5.906,6.2245,6.4802,6.2516,5.9709,5.6896,5.156,4.8926,4.9931,5.3253,5.6546,5.9668,6.1507,6.2869,6.3617,6.3617,6.3947,6.4575,6.3177,6.2758,6.2992,6.2318,6.1517,6.0976,6.2025,6.1957,6.0907,5.9717,5.6955,5.3274,5.1483,4.9035,4.633,4.4476,4.3639,4.3012,3.9942,0.0,0.0,0.0,0.0,0.0,0.0,0.0,0.0,0.0,0.0,0.0,0.0,0.0,0.0,0.0,0.0,0.0,0.0,0.0,0.0,0.0,0.0,0.0,0.0,3.0594,3.0989,2.9836,2.7824,2.6235,2.6025,2.6521,2.6521,2.5241,2.5449,2.5635,2.5604,2.4796,2.3804,2.2447,2.0413,1.8822,1.7305,1.5015,1.3755,1.3755,0.8417,0.5023,0.361,-0.1408,-0.6017,-1.0352,-1.1328,-1.3482,-1.6244,-1.7533,-1.9651,-2.2154,-2.2065,-2.3447,-2.599,0.0,0.0,0.0,0.0,-3.0845,-3.0845,2.3816,2.3996,2.419,2.419,2.419,2.48,2.6581,2.7479,3.1492,4.1343,4.4633,4.9642,5.9038,6.2212,6.4174,6.5561,6.1217,5.6989,5.3481,4.8713,4.9353,5.699,5.713,5.8949,6.3199,6.3288,6.3318,6.3408,6.3468,6.3767,6.4216,6.4216,6.4515,6.4994,6.4455,6.3326,6.2029,6.3002,6.2175,6.0349,6.1816,5.9787,5.5658,5.3803,5.1695,4.9433,4.7568,4.6899,4.6733,4.5578,0.0,0.0,0.0,0.0,0.0,0.0,0.0,0.0,0.0,0.0,0.0,0.0,0.0,0.0,0.0,0.0,0.0,0.0,0.0,0.0,0.0,0.0,0.0,0.0,3.2571,3.3848,3.5741,3.2141,2.9394,2.9601,2.9864,2.9934,2.9974,3.0281,3.0408,3.0408,2.8594,2.7426,2.7227,2.272,0.0,0.0,0.0,1.6157,1.6157,1.111,0.8291,0.7887,0.0607,-0.4864,-0.8315,-1.0708,-1.3524,-1.662,-1.6534,-1.796,-2.0308,-2.0156,-2.1289,-2.345,-2.3129,-2.461,-2.6812,-2.9532,-3.0393,-3.0583,2.4132,2.4151,2.419,2.419,2.419,2.476,2.6401,2.7846,3.2032,4.1174,4.5466,5.0818,5.914,6.2685,6.4749,6.5595,6.2088,5.7524,5.2257,5.3228,5.5036,5.7266,6.0132,6.266,6.4605,6.4635,6.4904,6.5443,6.5981,6.6011,6.5622,6.5622,6.5413,6.5054,6.5443,6.5472,6.511,6.5353,6.5233,6.4664,6.4546,6.266,5.9877,5.8919,5.8248,5.7663,5.6762,5.6444,5.5822,5.1934,5.0186,4.895,4.5011,4.0678,0.0,0.0,0.0,0.0,0.0,0.0,0.0,0.0,0.0,0.0,0.0,0.0,0.0,0.0,0.0,0.0,0.0,0.0,0.0,3.5301,3.7135,3.8687,3.9721,3.7521,3.5649,3.5488,3.3977,3.3085,3.3529,3.1889,3.0715,3.0715,3.0597,2.9606,2.7499,2.484,2.2322,2.0363,1.7886,1.6619,1.6619,1.3379,1.0696,0.8385,0.4406,0.0,-0.8453,-0.8868,-1.2001,-1.6815,-1.6708,-1.7999,-2.0463,-1.8196,-1.7576,-1.8462,-2.2432,-2.4258,-2.4947,-2.7439,-2.8472,-2.8686,2.419,2.419,2.419,2.419,2.419,2.474,2.6355,2.747,3.0851,3.8537,4.1731,4.6025,5.3212,5.5683,5.7374,5.8863,5.7029,5.4435,5.1238,5.438,5.7647,6.053,6.2829,6.4515,6.5503,6.5203,6.5173,6.5533,6.5503,6.5682,6.6011,6.6011,6.6011,6.6011,6.6011,6.6011,6.5981,6.5652,6.5712,6.5981,6.5652,6.4725,6.3408,6.2091,6.1373,6.0954,5.9967,5.9608,5.9189,5.6555,5.5448,5.4461,5.0481,4.7189,4.4107,0.0,0.0,0.0,0.0,0.0,0.0,0.0,0.0,0.0,0.0,0.0,0.0,0.0,0.0,3.5648,3.422,0.0,3.9872,3.839,4.0096,4.1825,4.2283,4.1378,3.9937,3.7888,3.6579,3.6126,3.63,3.4152,3.2803,3.2803,3.2011,3.087,2.9697,2.7352,2.4805,2.2246,1.9938,1.788,1.6714,1.3845,1.1158,0.8447,0.5516,0.0426,-0.6402,-0.769,-1.0,-1.289,-1.5469,-1.6551,-1.6551,-1.6761,-1.6761,-1.6951,-1.9426,-2.1203,-2.2625,-2.5129,-2.6964,-2.827,2.419,2.419,2.419,2.419,2.419,2.474,2.6355,2.6931,2.9454,3.5741,3.7763,4.0844,4.6641,4.8369,4.965,5.0913,5.1768,5.1714,5.0466,5.473,5.9152,6.3408,6.4395,6.5144,6.5802,6.5413,6.5144,6.5024,6.4605,6.4874,6.5832,6.5951,6.6281,6.6789,6.652,6.64,6.634,6.5832,6.5892,6.637,6.6251,6.6041,6.5652,6.4066,6.3049,6.2301,6.1104,6.0176,5.9518,5.9638,5.9099,5.7902,5.5329,5.3533,5.099,4.3838,4.306,0.0,0.0,0.0,0.0,0.0,0.0,0.0,0.0,3.5935,3.8367,3.9419,4.2001,4.3287,4.0523,4.3138,4.4619,4.1207,4.305,4.4643,4.4131,4.409,4.3027,3.993,3.9028,3.8737,3.8889,3.6845,3.5593,3.5654,3.3787,3.249,3.249,2.9685,2.6889,2.4284,2.1693,1.9206,1.644,1.4152,1.1493,0.8216,0.5938,0.1272,-0.5068,-0.6763,-0.8206,-0.96,-1.3923,-1.5036,-1.3747,-1.6111,-1.6978,-1.6978,-1.6768,-1.7967,-2.0024,-2.3203,-2.5805,-2.7763,2.419,2.419,2.419,2.419,2.419,2.474,2.6355,2.6931,2.9275,3.5076,3.7737,4.0596,4.4529,4.7739,4.8753,4.6641,5.1554,5.3343,4.993,5.6511,6.1096,6.2241,6.3468,6.4425,6.5114,6.5652,6.5622,6.5024,6.5533,6.5562,6.5144,6.5742,6.6041,6.6161,6.7268,6.7747,6.7747,6.7687,6.7687,6.7687,6.7119,6.6191,6.5114,6.4904,6.4395,6.3707,6.2989,6.0446,5.7872,6.0775,5.9039,5.6047,5.853,5.6436,5.2217,4.7818,4.4287,4.0876,3.6313,3.6909,3.8381,3.6934,3.8967,4.1087,0.0,4.0529,4.139,4.0998,4.1839,4.2505,4.2183,4.536,4.7034,4.4258,4.6626,4.8212,4.5754,4.5549,4.529,4.4922,4.2192,4.0678,4.1548,3.9312,3.8038,3.8546,3.6497,3.5409,3.5409,3.0878,2.7103,2.4527,2.1864,1.9057,1.6537,1.6128,1.3515,0.8213,0.8012,0.2287,-0.7947,-0.5699,-0.7496,-1.2305,-1.2927,-1.4394,-1.6545,-1.6768,-1.6978,-1.6978,-1.6978,-1.7154,-1.7955,-2.2762,-2.4705,-2.5644,2.419,2.419,2.419,2.419,2.419,2.474,2.6355,2.6405,2.7556,3.1308,3.2477,3.3917,3.6525,3.9277,4.0471,3.9339,4.6255,5.0019,4.8506,5.6031,6.0984,6.2061,6.2959,6.3947,6.4994,6.5293,6.5503,6.5592,6.5862,6.6071,6.6191,6.6849,6.7148,6.7208,6.8136,6.8555,6.8555,6.8555,6.8555,6.8555,6.8286,6.7358,6.6252,6.6634,6.6131,6.4789,6.1582,5.9288,0.0,5.95,5.9267,5.8591,6.0615,5.8654,5.4694,5.0388,4.7768,4.5991,4.5025,4.3967,4.3084,4.2916,4.4699,4.6052,4.4452,4.6042,4.8074,4.8637,5.0444,5.1466,4.976,5.1174,5.1106,4.682,4.7482,4.752,4.4966,4.4785,4.4985,4.4954,4.3898,4.348,4.4485,4.2209,4.0815,4.1151,3.7575,3.56,3.56,3.2149,2.9116,2.6554,2.3779,2.1107,1.856,1.7099,1.4458,1.0635,0.8833,0.4904,-0.1213,-0.308,-0.7256,-1.2512,-1.0927,-1.289,-1.6978,-1.6978,-1.6978,-1.6978,-1.6978,-1.6978,-1.7412,-2.1129,-2.3512,-2.5491,2.419,2.419,2.419,2.419,2.419,2.4647,2.592,2.5781,2.6161,2.7971,2.8328,2.911,3.0882,3.2622,3.3802,3.4247,4.1213,4.6067,4.7398,5.4239,5.9228,6.1463,6.2491,6.3652,6.4981,6.5374,6.6031,6.6925,6.6668,6.7001,6.7932,6.7971,6.8213,6.8664,6.8759,6.885,6.9001,6.9001,6.9123,6.9427,6.9427,6.8817,6.7928,6.8075,6.6636,6.4004,6.0129,5.7983,5.6927,5.6357,5.6279,5.6699,5.84,5.745,5.4812,5.0527,4.832,4.757,4.9017,4.8727,4.8218,4.8817,5.1054,5.2874,5.1413,5.3254,5.5609,5.665,5.8353,5.8923,5.6895,5.6476,5.5016,5.049,4.936,4.8138,4.5605,4.5058,4.5052,4.5102,4.5405,4.5871,4.666,4.4826,4.3597,4.353,3.9881,3.7075,3.6451,3.4103,3.1231,2.7855,2.5238,2.2692,2.0008,1.7518,1.4856,1.2211,0.935,0.6351,0.2874,-0.1883,-0.6788,-1.1339,-0.9311,-1.1825,-1.6978,-1.6978,-1.6978,-1.6978,-1.6978,-1.6978,-1.7412,-2.0911,-2.3531,-2.5682,2.419,2.419,2.419,2.419,2.419,2.4368,2.486,2.5276,2.5692,2.6219,2.7577,2.9069,3.0526,3.109,3.1861,3.3313,3.7866,4.2559,4.7132,5.1157,5.5416,5.9917,6.1967,6.3671,6.5063,6.6282,6.7714,6.9202,6.8513,6.8826,7.0224,6.8858,6.8889,7.018,6.8726,6.8433,6.9052,6.9052,6.9574,7.0212,7.0212,7.0288,7.0204,6.8754,6.5039,6.0551,5.9693,5.6893,5.3363,5.1351,4.8662,4.6728,4.9904,5.1305,5.1114,4.7141,4.3799,4.1816,4.3732,4.7988,5.2232,5.3382,5.8035,6.2259,6.2214,6.2764,6.3439,6.3983,6.2664,6.1376,6.1351,6.0268,5.85,5.558,5.3779,5.1895,4.9732,4.7589,4.6474,4.6733,4.6753,4.6995,4.7485,4.6813,4.6186,4.6269,4.4272,4.187,3.896,3.662,3.2952,2.8044,2.517,2.2654,2.0008,1.7525,1.4856,1.2217,0.9526,0.5488,0.0,-0.2769,-0.5761,-0.8545,-0.846,-1.1825,-1.6978,-1.6978,-1.6978,-1.6978,-1.6978,-1.6978,-1.7629,-2.3117,-2.5079,-2.6104,2.419,2.419,2.419,2.419,2.419,2.4125,2.3835,2.4504,2.5141,2.5442,2.6533,0.0,0.0,0.0,0.0,0.0,3.6224,4.0053,4.0729,4.8552,5.3859,5.5406,5.99,6.2929,6.429,6.5615,6.6691,6.766,6.7937,6.7855,6.748,6.7889,6.7866,6.7433,6.8359,6.8851,6.9171,6.9998,7.0308,7.0192,7.0192,6.9649,6.8644,6.5481,6.2977,6.0272,0.0,5.068,4.9079,4.8349,4.7999,4.8362,5.1069,5.0692,4.8497,4.5211,4.5616,4.7717,5.0207,5.3929,5.7531,5.9309,6.1768,6.3851,6.375,6.5027,6.5919,6.5055,6.3667,6.2155,6.0788,5.9134,5.7095,5.4375,5.3966,5.3428,5.1737,5.1187,5.0373,4.9341,5.0848,5.0798,4.7878,4.7287,4.703,4.6636,4.4536,4.213,3.9202,3.6699,3.3823,3.0583,2.6185,2.3668,2.2727,1.8551,1.6071,1.5196,1.0555,0.553,0.0,-0.1066,-0.4052,-0.8542,-0.846,-1.1825,-1.6978,-1.6978,-1.6978,-1.6978,-1.6978,-1.8063,-2.0248,-2.3793,-2.6397,-2.8496,2.419,2.419,2.419,2.419,2.4112,0.0,0.0,0.0,0.0,0.0,0.0,0.0,0.0,0.0,0.0,0.0,0.0,3.6919,3.8051,4.468,4.9494,5.1439,5.5628,5.8499,5.9885,6.0929,6.2063,6.3329,6.4705,6.5395,6.556,6.7036,6.7716,6.7574,6.8373,6.8838,6.9148,6.9982,6.9968,6.9186,6.8405,6.7229,6.5727,6.1748,5.8906,0.0,4.9779,4.624,4.4509,4.4131,4.4815,4.6152,4.802,4.7907,4.7132,4.7038,4.9262,5.2735,5.7096,6.0617,6.3523,6.5466,6.723,6.8425,6.8425,6.9287,6.9782,6.8759,6.5978,6.3408,6.1968,5.8407,5.5301,5.3973,5.3062,5.2591,5.3167,5.2791,5.2452,5.2367,5.4018,5.3793,5.0943,4.9952,4.8871,4.7346,4.5898,4.3328,3.9564,3.7855,3.5382,3.2097,2.7013,2.4248,2.4263,1.8082,1.4071,1.225,0.872,0.448,0.0,-0.1066,-0.4052,-0.8542,-0.9526,-1.2675,-1.6978,-1.6978,-1.6978,-1.6978,-1.6978,-1.8716,-2.1323,-2.4154,-2.7014,-2.9615,2.419,2.419,2.419,0.0,0.0,0.0,0.0,0.0,0.0,0.0,0.0,0.0,0.0,0.0,0.0,0.0,0.0,0.0,3.8517,3.9829,4.2704,4.7804,4.9487,5.1026,5.2441,5.3128,5.4485,5.663,5.8982,6.1499,6.4011,6.5701,6.7491,6.9242,6.7811,6.7663,6.8316,6.8402,6.8048,6.71,6.4864,6.3247,6.1689,5.7638,5.3186,4.8836,4.7115,4.3817,4.0054,3.9262,3.9692,4.0747,4.1688,4.399,4.7374,5.2376,5.4429,5.6644,6.3574,6.7284,6.9773,7.1684,7.392,7.5636,7.5636,7.5199,7.4562,7.4209,6.9224,6.4825,6.4462,5.8219,5.3574,5.4686,5.1487,5.0239,5.4348,5.3172,5.2912,5.5696,5.6237,5.6186,5.5938,5.4344,5.1713,4.8113,4.7934,4.5744,4.0333,3.9974,3.7706,3.2831,2.7308,2.4577,2.4442,1.6558,0.9706,0.4419,0.4248,0.2772,0.0,-0.2985,-0.5761,-0.8751,-1.1446,-1.4388,-1.6978,-1.6978,-1.6978,-1.6978,-1.6978,-1.8723,-2.1708,-2.4243,-2.6981,-2.9839,0.0,0.0,0.0,0.0,0.0,0.0,0.0,0.0,0.0,0.0,0.0,0.0,0.0,0.0,0.0,0.0,0.0,0.0,3.2586,3.7536,4.0798,4.1666,4.6813,5.0048,5.0961,5.2034,5.3178,5.4329,5.5509,5.5895,5.5589,5.6645,5.6802,5.6389,5.6971,5.7394,5.7628,5.9112,5.959,5.9387,5.9215,5.8963,5.8137,5.323,5.0564,4.8866,4.4624,4.2029,4.0595,4.0036,4.2911,4.7467,5.1509,5.4135,5.5993,5.7836,6.0587,6.3727,6.7131,7.0542,7.3577,7.5082,7.5995,7.643,7.643,7.6768,7.5628,7.0536,6.7415,6.3902,5.8875,5.6512,5.5389,5.5264,5.6401,5.7729,5.9257,5.9062,5.856,5.8488,6.0431,6.0412,5.6775,5.6253,5.5025,5.2404,4.8439,4.4598,4.072,3.8701,3.5917,3.2735,2.7475,2.476,2.4671,1.6664,1.0874,0.7447,0.5328,0.2772,0.0,-0.2985,-0.574,-0.8668,-1.1409,-1.4388,-1.6978,-1.7195,-1.7195,-1.7195,-1.7202,-2.0256,-2.4803,-2.554,-2.8731,-3.3173,0.0,0.0,0.0,0.0,0.0,0.0,0.0,0.0,0.0,0.0,0.0,0.0,0.0,0.0,0.0,0.0,0.0,0.0,0.0,3.4942,3.735,3.7745,4.1756,4.4262,4.487,4.5828,4.6601,4.714,4.8952,4.9959,5.0393,5.2208,5.3122,5.3202,5.3981,5.4293,5.4362,5.5499,5.5536,0.0,0.0,5.3288,5.2067,4.8077,4.6401,4.5817,4.2847,4.2882,4.4681,4.7026,4.9862,5.2931,5.5866,5.8048,5.9932,6.2351,6.5258,6.8525,7.1999,7.4935,7.7346,7.8381,7.8682,7.8147,7.5838,7.4871,7.2738,6.6745,6.2989,5.9749,5.6235,5.4298,5.3416,5.4229,5.6276,5.8267,5.9935,6.0693,6.1135,6.1246,6.2609,6.2695,6.0337,5.8545,5.7095,5.58,5.0547,4.5807,4.162,3.984,3.7095,3.32,2.7849,2.3247,1.9586,1.3819,0.9367,0.6618,0.3625,0.1492,-0.0213,-0.4267,-0.7011,-0.885,-1.2896,-1.5685,-1.7195,-1.7202,-1.7353,-1.7365,-1.8703,-2.2062,-2.6062,-2.7262,-3.0527,-3.4202,0.0,0.0,0.0,0.0,0.0,0.0,0.0,0.0,0.0,2.6201,2.6644,2.6886,0.0,0.0,0.0,0.0,0.0,0.0,0.0,0.0,3.3699,3.5266,3.6273,3.7092,3.7798,3.8214,3.8599,3.894,4.1749,4.4273,4.6477,4.9317,5.1555,5.3098,5.3098,5.3077,5.3182,5.326,5.2488,5.1103,4.9103,4.7222,4.5407,0.0,4.2226,4.1842,4.1877,4.4926,4.9862,5.5705,5.7688,5.785,5.8713,6.0316,6.2704,6.6795,6.9504,7.21,7.6883,7.9254,8.0513,8.1101,8.1364,8.0087,7.4635,7.1786,6.858,6.2505,5.7632,5.4451,5.4365,5.1638,5.0304,5.3213,5.4382,5.6124,5.9265,6.0487,6.1709,6.333,6.3678,6.4002,6.448,6.0691,5.8028,5.8085,5.3281,4.7907,4.2517,4.169,3.8701,3.296,2.7951,2.119,1.2675,0.9908,0.698,0.4265,0.1279,0.0,-0.0213,-0.5976,-0.8737,-0.9122,-1.4921,-1.7319,-1.7319,-1.7319,-1.76,-1.8267,-2.078,-2.3762,-2.6903,-2.9394,-3.2114,-3.4478,0.0,0.0,0.0,0.0,0.0,0.0,0.0,0.0,0.0,0.0,2.9733,2.9397,0.0,0.0,0.0,0.0,0.0,0.0,0.0,0.0,0.0,3.3912,3.4679,3.5766,3.721,3.7311,3.7798,3.8687,3.9674,4.0134,4.0181,4.1174,4.1831,4.2132,4.2132,4.2281,4.2509,4.2987,4.3066,4.2802,4.291,4.2559,4.1941,4.1542,4.1723,0.0,4.2487,4.5847,5.0963,5.5996,5.9762,6.3316,6.8891,7.0874,7.1559,7.3602,7.4911,7.6217,7.8317,7.9938,8.119,8.1308,8.1772,8.056,7.4034,7.1862,6.8084,5.7242,5.4282,5.2376,4.822,4.8839,5.1393,5.5677,5.7146,5.9236,6.3342,6.2645,6.2172,6.2946,6.3844,6.4307,6.4407,6.0982,5.8744,5.8643,5.4046,4.8824,4.3101,4.0574,3.5596,2.7225,2.5902,2.123,1.268,0.9908,0.698,0.4265,0.1279,0.0,-0.0213,-0.5976,-0.8637,-0.9006,-1.4781,-1.7478,-1.7478,-1.7478,-1.8988,-2.1349,-2.1816,-2.5282,-3.0021,-3.0552,-3.2586,-3.4966,0.0,0.0,0.0,0.0,0.0,0.0,0.0,3.166,3.2401,3.2684,3.2632,3.1849,2.9792,2.9578,2.9717,0.0,0.0,0.0,0.0,0.0,0.0,0.0,3.4422,3.5178,3.5842,3.6146,3.6569,3.7179,0.0,3.8425,3.8804,3.9514,4.0085,4.0564,4.0528,4.0706,4.0957,4.1232,4.136,4.1379,4.1669,4.1705,4.1559,4.1415,4.1748,0.0,4.2915,4.6276,5.0898,5.3596,5.9356,6.6323,7.1761,7.3515,7.3815,7.527,7.6492,7.7844,7.9297,8.0716,8.1834,8.19,8.1868,7.9491,7.0421,6.688,6.231,5.1193,4.8216,4.7034,4.489,4.6805,4.9692,5.2942,5.6607,5.9707,6.1737,6.3181,6.3716,6.3376,6.4043,6.4587,6.4875,6.0982,5.8521,5.8858,5.4106,4.8907,4.3443,3.8896,3.3019,2.5914,2.5376,2.1129,1.268,0.996,0.7013,0.4265,0.1279,-0.0861,-0.241,-0.68,-0.9697,-1.132,-1.5814,-1.7632,-1.784,-1.9294,-2.0738,-2.2389,-2.5594,-2.8376,-3.1174,-3.2586,-3.4004,-3.5191,0.0,0.0,0.0,0.0,0.0,0.0,3.1545,3.272,3.378,3.4516,3.4856,3.3876,3.0893,3.0688,3.0735,0.0,0.0,0.0,0.0,0.0,0.0,0.0,0.0,0.0,3.476,0.0,0.0,3.5783,3.6564,0.0,0.0,0.0,0.0,0.0,4.0941,4.1125,4.1572,4.1372,4.1406,0.0,0.0,4.1556,4.146,0.0,0.0,0.0,0.0,4.5909,4.9368,5.1034,5.6932,6.4384,6.9227,7.1662,7.2877,7.4107,7.5466,7.7044,7.9365,8.0987,8.214,8.18,8.135,7.8058,6.6306,6.1779,5.7041,4.6117,4.2887,4.2207,4.282,4.4852,4.7305,5.0138,5.4755,5.844,5.992,6.2609,6.4373,6.3525,6.3994,6.4615,6.5013,6.0767,5.8229,5.8665,5.3047,4.7858,4.3501,3.7002,3.1145,2.5914,2.4933,2.0256,1.1825,0.9576,0.6831,0.3199,0.1074,-0.1529,-0.4703,-0.7625,-1.0508,-1.3559,-1.6501,-1.786,-1.8074,-2.0988,-2.2657,-2.3727,-2.8879,-3.1234,-3.2114,-3.4254,-3.5191,-3.5191,0.0,0.0,0.0,0.0,0.0,0.0,3.2381,3.3807,3.495,3.5359,3.5616,3.5266,3.384,3.3175,3.2809,0.0,0.0,0.0,0.0,0.0,0.0,0.0,0.0,0.0,0.0,0.0,0.0,3.5538,3.6103,0.0,0.0,0.0,0.0,0.0,0.0,3.9245,4.024,3.9436,0.0,0.0,0.0,0.0,0.0,0.0,0.0,0.0,0.0,4.397,4.5287,5.0033,5.1821,5.3191,5.9895,6.5636,7.0024,7.0415,7.1193,7.3008,7.785,8.031,8.1086,7.9736,7.9904,7.6842,6.3578,6.0353,5.6597,4.4079,4.1379,4.131,4.1375,4.2723,4.5528,5.0997,5.2609,5.5249,6.1274,6.1457,6.1408,6.2739,6.3469,6.4031,6.4525,6.0532,5.8229,5.8665,4.9641,4.3937,4.3383,3.5348,2.9331,2.6136,2.3184,1.7629,0.906,0.872,0.5761,0.0426,0.022,-0.1559,-0.465,-0.7535,-1.0657,-1.3559,-1.6501,-1.786,-1.8074,-2.1108,-2.3702,-2.6499,-2.9731,-3.2548,-3.494,-3.5191,-3.5191,-3.5191,0.0,0.0,0.0,0.0,0.0,0.0,3.2491,3.387,3.5271,3.6542,3.6418,3.6256,3.6361,3.5236,3.404,3.3088,0.0,0.0,0.0,0.0,0.0,0.0,0.0,0.0,0.0,0.0,3.5055,3.5205,3.6436,0.0,0.0,0.0,0.0,0.0,0.0,3.9552,4.0324,3.9954,0.0,0.0,0.0,0.0,0.0,0.0,0.0,0.0,0.0,0.0,4.4007,4.602,4.9122,5.2022,5.1297,5.58,6.2435,6.8292,7.054,7.2415,7.8253,8.0547,8.1021,8.0006,7.6911,7.1755,6.2329,5.6638,5.108,4.2898,4.0836,4.0557,4.051,4.1392,4.3117,4.6336,4.8924,5.1855,5.5891,5.7346,5.8824,6.1223,6.1425,6.1506,6.227,5.9307,5.5887,5.2181,4.6582,4.2596,4.0996,3.4241,2.9169,2.6347,2.2997,1.7195,0.8636,0.8508,0.5607,0.0,-0.1773,-0.4227,-0.7342,-1.0211,-1.3333,-1.6268,-1.7405,-1.8942,-2.0639,-2.3711,-2.6529,-2.954,-3.2361,-3.4108,-3.5191,-3.5191,-3.5191,-3.5191,0.0,0.0,0.0,0.0,0.0,3.1666,3.2491,3.4047,3.5612,3.6859,3.6808,3.6797,3.7148,3.6199,3.4932,3.3468,3.3573,0.0,0.0,0.0,0.0,0.0,0.0,0.0,0.0,0.0,3.5145,3.5393,3.6574,3.7267,0.0,0.0,3.883,3.9429,0.0,0.0,0.0,0.0,0.0,0.0,0.0,0.0,0.0,0.0,0.0,0.0,0.0,0.0,0.0,0.0,0.0,4.9642,4.5883,4.8324,5.4206,6.2763,6.6907,7.0013,7.5635,7.8744,8.0039,7.906,7.414,6.7655,6.0732,5.3917,4.7401,4.203,4.0471,4.0087,4.0087,4.0679,4.1699,4.3172,4.6225,4.9243,5.1725,5.3984,5.6301,5.8876,5.8519,5.8536,5.9837,5.778,5.3661,4.667,4.4256,4.1283,3.6872,3.1879,2.8134,2.6403,2.2397,1.6498,0.885,0.8508,0.5647,0.0,-0.311,-0.5986,-0.8923,-1.2015,-1.5139,-1.786,-1.786,-1.9573,-2.2352,-2.5202,-2.8253,-3.1272,-3.4108,-3.5191,-3.5191,-3.5191,-3.5191,-3.5191,0.0,0.0,0.0,0.0,0.0,0.0,3.2491,3.4717,3.6215,3.5975,3.6682,3.6787,3.5742,3.5791,3.5437,3.4185,3.3805,0.0,0.0,0.0,0.0,0.0,0.0,0.0,0.0,0.0,3.543,3.6287,3.6289,3.6723,3.7509,3.776,3.8365,3.9105,0.0,0.0,0.0,0.0,0.0,0.0,0.0,0.0,4.0414,0.0,0.0,0.0,0.0,0.0,0.0,0.0,0.0,0.0,0.0,4.4745,4.6064,5.2341,5.8535,6.4415,6.8876,7.3957,7.7705,7.6163,7.1786,6.5999,5.8527,5.2765,4.7296,4.1341,4.0087,4.0087,4.0087,4.0679,4.1681,4.3166,4.5314,4.7786,5.0564,5.2164,5.3871,5.5761,5.4865,5.5137,5.771,5.6269,5.1679,4.3477,4.2986,3.9296,3.0728,2.7503,2.6062,2.6403,2.0614,1.4673,0.885,0.872,0.5864,0.0,-0.311,-0.5986,-0.8906,-1.2015,-1.5139,-1.786,-1.786,-1.9573,-2.2352,-2.5202,-2.8253,-3.1272,-3.4108,-3.5191,-3.5191,-3.5191,-3.5191,-3.5191,0.0,0.0,0.0,0.0,0.0,0.0,0.0,3.3945,3.5121,3.5608,3.5749,3.5759,3.5599,3.5198,3.4882,3.4748,3.4397,0.0,0.0,0.0,0.0,0.0,0.0,0.0,0.0,0.0,3.6575,3.7934,3.8499,3.9145,3.9966,4.0039,4.0456,4.1102,4.0473,4.0578,0.0,0.0,0.0,0.0,0.0,4.0369,4.0965,0.0,0.0,0.0,0.0,0.0,0.0,0.0,0.0,0.0,0.0,0.0,0.0,4.7077,5.205,5.7754,6.1947,6.4736,6.6072,6.46,5.9968,5.4952,5.2101,4.7056,4.238,4.0459,4.0087,4.0087,4.0087,4.0273,4.09,4.238,4.3571,4.5307,4.8152,4.9856,5.2245,5.5921,5.6037,5.5476,5.4913,5.1467,4.7736,4.344,4.1277,3.7198,3.0829,2.7499,2.5058,2.3259,1.7586,1.2561,0.8832,0.6716,0.3718,0.0,-0.5108,-0.8011,-0.9149,-1.4265,-1.6956,-1.8088,-2.005,-2.242,-2.5418,-2.8242,-3.1272,-3.3883,-3.4755,-3.5191,-3.5191,-3.5191,-3.5191,-3.5191,0.0,0.0,0.0,0.0,0.0,0.0,0.0,3.2729,3.3851,3.434,3.4604,3.4796,3.4802,3.4432,3.4161,3.4235,3.4207,0.0,0.0,0.0,0.0,0.0,0.0,0.0,0.0,3.6611,3.7863,3.9154,3.9974,4.061,4.1099,4.1099,4.1372,4.187,4.1343,4.1404,0.0,0.0,0.0,0.0,3.9933,4.0708,4.1625,0.0,0.0,0.0,0.0,0.0,0.0,0.0,0.0,0.0,0.0,0.0,0.0,0.0,4.6839,5.0731,5.554,5.829,5.9575,5.8496,5.3922,4.9496,4.8727,4.4162,4.0087,4.0087,4.0087,4.0087,4.0087,4.0087,4.0578,4.2055,4.2746,4.429,4.7636,4.9095,5.0803,5.3631,5.4074,5.3436,5.1838,4.8666,4.5561,4.3231,3.923,3.4585,2.8769,2.5807,2.2249,1.8535,1.4945,1.1152,0.7126,0.5229,0.2193,-0.1763,-0.6653,-0.9587,-1.071,-1.5622,-1.786,-1.8088,-2.0905,-2.3937,0.0,-2.9765,-3.2586,-3.5191,-3.5191,-3.5191,-3.5191,-3.5191,-3.5191,-3.5191,0.0,0.0,0.0,0.0,0.0,0.0,0.0,3.1254,3.24,3.2231,3.3266,3.3802,3.3295,3.3424,3.3404,3.3052,0.0,0.0,0.0,0.0,0.0,0.0,0.0,0.0,0.0,3.7897,3.916,4.0062,4.0833,4.1209,4.1245,4.1245,4.1461,4.1791,4.1736,4.1798,0.0,0.0,0.0,0.0,3.9974,4.0891,0.0,0.0,0.0,0.0,0.0,0.0,0.0,0.0,0.0,0.0,0.0,0.0,0.0,0.0,0.0,0.0,0.0,5.3901,5.6539,5.5813,5.1953,4.8197,4.7492,4.3611,0.0,4.0087,4.0087,4.0087,4.0087,4.0172,4.0679,4.2108,4.2791,4.4558,4.8542,4.9667,5.0174,5.0373,5.029,4.9934,4.888,4.7382,4.5226,4.2419,3.7164,3.1352,2.5481,2.2699,1.852,1.253,1.2762,1.0216,0.4478,0.4341,0.1314,-0.4617,-0.7535,-1.0476,-1.3389,-1.6514,-1.8088,-1.8302,-2.1335,-2.3937,-2.6745,-2.9765,-3.2573,-3.498,-3.498,-3.498,-3.5191,-3.5191,-3.5191,-3.5191,0.0,0.0,0.0,0.0,0.0,0.0,0.0,0.0,0.0,0.0,3.1498,3.211,3.1402,3.2415,3.3121,0.0,0.0,0.0,0.0,0.0,0.0,0.0,0.0,0.0,0.0,3.8181,3.9685,4.1742,4.1931,4.2333,4.2915,4.2915,4.3267,4.3853,4.2922,4.1865,0.0,0.0,0.0,0.0,4.0561,4.1405,0.0,0.0,0.0,0.0,4.3497,4.3497,0.0,0.0,0.0,0.0,0.0,0.0,0.0,0.0,4.2772,4.2334,4.3784,0.0,4.473,4.419,4.3085,4.2132,0.0,4.0984,4.0087,4.0087,4.0087,4.0087,4.0087,4.0578,4.1441,4.2891,4.3451,4.5081,4.9259,5.1905,5.4194,5.6154,5.3801,5.1363,5.0106,4.5836,4.219,3.979,3.4456,2.9561,2.5685,2.2662,1.7559,0.976,0.9553,0.7859,0.4256,0.2168,-0.0874,-0.4589,-0.7535,-1.0484,-1.3389,-1.6514,-1.917,-2.1343,-2.4155,-2.588,-2.6745,-2.9765,-3.1272,-3.1923,-3.1923,-3.3235,-3.5191,-3.5191,-3.5191,-3.5191,0.0,0.0,0.0,0.0,0.0,0.0,0.0,0.0,0.0,0.0,0.0,0.0,0.0,0.0,0.0,0.0,0.0,0.0,0.0,0.0,0.0,0.0,0.0,0.0,3.801,3.9186,4.0613,4.2297,4.3027,4.3611,4.4048,4.4048,4.4346,4.4815,4.3797,4.2352,0.0,0.0,0.0,4.0524,4.1332,0.0,0.0,0.0,0.0,0.0,4.3497,4.3497,0.0,4.3497,4.3497,4.3497,0.0,0.0,0.0,0.0,4.2306,4.142,4.142,4.0967,4.0431,4.0154,4.0087,4.0087,4.0087,4.0087,4.0087,4.0087,4.0087,4.0189,4.0561,4.04,4.1016,4.3329,4.4039,4.5997,5.0934,5.2054,5.3162,5.5288,5.1414,4.8418,4.8343,4.3589,4.0029,3.877,3.2144,2.7567,2.5613,2.0279,1.4592,0.8699,0.7217,0.5099,0.2341,-0.065,-0.3491,-0.6538,-0.9521,-1.2501,-1.5622,-1.8494,-2.0694,-2.242,-2.6745,-2.8468,-2.8682,-3.171,-3.2798,-3.2798,-3.2798,-3.3883,-3.5191,-3.5191,-3.5191,-3.5191,0.0,0.0,0.0,0.0,0.0,0.0,0.0,0.0,0.0,0.0,0.0,0.0,0.0,0.0,0.0,0.0,0.0,0.0,0.0,0.0,0.0,0.0,0.0,0.0,3.8841,4.0471,4.1752,4.2697,4.4014,4.4783,4.4893,4.4892,4.4992,4.5095,4.4339,4.3002,0.0,0.0,4.1919,4.1299,4.1925,0.0,0.0,0.0,0.0,0.0,0.0,0.0,0.0,4.3497,4.3497,4.3497,4.3391,0.0,0.0,0.0,0.0,0.0,4.092,4.1165,4.1238,4.029,4.0087,4.0087,4.0087,4.0155,4.0257,4.0257,4.0358,4.056,4.0963,4.0357,4.07,4.3521,4.5231,4.7993,5.3236,5.1918,5.1132,5.2984,4.7877,4.4702,4.5976,4.1593,3.8235,3.7287,3.0231,2.568,2.4618,1.7099,1.1446,0.8487,0.5735,0.2768,0.0,-0.3031,-0.5887,-0.8943,-1.1965,-1.5168,-1.8736,-2.1132,-2.2656,-2.372,-2.8253,-3.0193,-3.0407,-3.2798,-3.3883,-3.3896,-3.4332,-3.4755,-3.5191,-3.5191,-3.5191,-3.5191,0.0,0.0,0.0,0.0,0.0,0.0,0.0,0.0,0.0,0.0,0.0,0.0,0.0,0.0,0.0,0.0,0.0,0.0,0.0,0.0,0.0,0.0,0.0,0.0,0.0,0.0,4.2809,4.4307,4.46,4.504,4.5736,4.5736,4.5369,4.4741,4.4252,4.3267,4.2139,4.2249,4.2249,4.2069,4.1687,0.0,0.0,0.0,0.0,0.0,0.0,0.0,0.0,4.3497,4.3497,4.3428,4.2995,0.0,0.0,0.0,0.0,0.0,4.092,4.4194,4.6413,4.1339,4.0087,4.0087,4.0087,4.0561,4.1035,4.1035,4.1508,4.1665,4.0606,4.1565,4.2703,4.3253,4.8481,5.3435,5.6311,5.4841,5.4646,5.7905,5.0633,4.5589,4.6283,4.1641,3.6569,3.1755,2.8181,2.4842,2.195,1.6066,1.1446,0.8487,0.5735,0.2776,0.0,-0.3041,-0.5903,-0.9024,-1.1988,-1.6255,-2.1571,-2.2008,-2.4806,-2.9551,-2.7823,-2.7176,-2.7176,-2.7607,-2.7823,-2.8038,-3.0632,-3.301,-3.5191,-3.5191,-3.5191,-3.5191,0.0,0.0,0.0,0.0,0.0,0.0,0.0,0.0,0.0,0.0,0.0,0.0,0.0,0.0,0.0,0.0,0.0,0.0,0.0,0.0,0.0,0.0,0.0,0.0,0.0,0.0,4.3539,4.471,4.5553,4.6177,4.6544,4.6104,4.548,4.4672,4.3996,4.3221,4.2323,4.2763,4.269,4.2289,0.0,0.0,0.0,0.0,0.0,0.0,0.0,0.0,0.0,0.0,4.3069,4.2958,4.2382,0.0,0.0,0.0,0.0,0.0,4.0466,4.2312,4.4316,4.479,4.6714,4.8564,4.8564,4.8188,4.7387,4.5728,4.5656,4.5078,4.2389,4.3727,4.6132,4.8899,5.2217,5.4871,5.5867,5.3835,5.2184,5.2169,4.6675,4.2691,4.2261,3.8732,3.477,3.0522,2.7445,2.4516,2.1328,1.4383,0.9757,0.8487,0.4272,0.1293,0.0,-0.4594,-0.7469,-0.9041,-1.3564,-1.804,-2.2219,-2.372,-2.6961,-3.0846,-3.1071,-3.1284,-3.1284,-3.1284,-3.1284,-3.1284,-3.2586,-3.4108,-3.5191,-3.5191,-3.5191,-3.5191,0.0,0.0,0.0,0.0,0.0,0.0,0.0,0.0,0.0,0.0,0.0,0.0,0.0,0.0,0.0,0.0,0.0,0.0,0.0,0.0,0.0,0.0,0.0,0.0,0.0,0.0,4.4198,4.4967,4.6397,4.7205,4.7388,4.6361,4.5553,4.4966,4.3938,4.3167,4.2616,4.324,4.313,4.2616,0.0,0.0,0.0,0.0,0.0,0.0,0.0,0.0,0.0,0.0,0.0,0.0,0.0,0.0,0.0,4.0733,4.0417,4.0087,4.0087,4.1238,4.3572,4.8342,5.096,5.2917,5.5371,5.4535,5.2829,5.1302,5.1459,5.051,4.6244,4.6611,4.9145,5.3922,5.5129,5.568,5.5682,5.3348,5.0315,4.7127,4.3233,4.024,3.8785,3.5734,3.2495,2.9469,2.6296,2.3369,2.0288,1.2696,0.8487,0.8487,0.3004,-0.0434,-0.1093,-0.6372,-0.8828,-0.9065,-1.5122,-1.9823,-2.3293,-2.4806,-2.7392,-3.0846,-3.1722,-3.2586,-3.3235,-3.3235,-3.3672,-3.4319,-3.498,-3.5191,-3.5191,-3.5191,-3.5191,-3.5191,0.0,0.0,0.0,0.0,0.0,0.0,0.0,0.0,0.0,0.0,0.0,0.0,0.0,0.0,0.0,0.0,0.0,0.0,0.0,0.0,0.0,0.0,0.0,0.0,0.0,4.3389,4.5039,4.581,4.6691,4.7498,4.8196,4.6617,4.5883,4.5736,4.4195,4.3461,4.3424,4.3461,4.3461,4.3389,4.2921,0.0,0.0,0.0,0.0,0.0,0.0,0.0,0.0,0.0,0.0,0.0,0.0,0.0,4.0827,4.0269,4.0104,4.0087,4.0087,4.4621,4.9627,5.0777,4.6625,4.48,5.4448,5.4427,5.328,5.6335,5.8671,5.8432,5.2729,5.0218,5.0294,5.4162,5.6149,5.7465,5.8175,5.6099,5.3256,4.9242,4.4743,4.1008,3.8732,3.4006,2.9722,2.6524,2.3574,2.0466,1.7398,1.1662,0.8487,0.8487,0.3004,-0.13,-0.4144,-0.7249,-0.8855,-0.8923,-1.4946,-2.0897,-2.6097,-2.3729,-2.5664,-3.0621,-2.5447,-2.4589,-2.7176,-2.7176,-2.8682,-3.1497,-3.4108,-3.5191,-3.5191,-3.5191,-3.5191,-3.5191,0.0,0.0,0.0,0.0,0.0,0.0,0.0,0.0,0.0,0.0,0.0,0.0,0.0,0.0,0.0,0.0,0.0,0.0,0.0,0.0,0.0,0.0,0.0,3.946,4.1075,4.3975,4.559,4.5883,4.7205,4.8012,4.8269,4.6654,4.5883,4.581,4.4195,4.3497,4.3497,4.3497,4.3497,4.3497,4.3286,4.3214,0.0,0.0,0.0,0.0,0.0,0.0,0.0,0.0,4.0805,4.0961,4.0535,4.0417,4.0368,4.0154,4.0087,4.0189,4.0663,4.4623,4.9226,5.136,4.9959,5.0713,6.0624,6.1313,6.0805,6.3937,6.4484,6.2892,5.8023,5.544,5.489,5.7493,5.9477,5.9707,5.6805,5.6174,5.3136,4.5532,4.3299,4.0933,3.6829,3.2742,2.913,2.6303,2.3044,1.9291,1.4628,1.0602,0.7641,0.5947,0.1943,-0.1525,-0.458,-0.7506,-0.9794,-1.1821,-1.7806,-2.263,-2.6529,-2.5447,-2.8038,-3.3447,-2.9337,-2.9337,-3.1935,-3.1935,-3.2586,-3.3672,-3.4755,-3.5191,-3.5191,-3.5191,-3.5191,-3.5191,0.0,0.0,0.0,0.0,0.0,0.0,0.0,0.0,0.0,0.0,0.0,0.0,0.0,0.0,0.0,0.0,0.0,0.0,0.0,0.0,0.0,0.0,0.0,3.946,4.1075,4.3833,4.548,4.5883,4.7498,4.8306,4.8269,4.6654,4.5883,4.581,4.4195,4.3497,4.3497,0.0,0.0,4.3497,4.3497,4.3497,0.0,0.0,0.0,0.0,0.0,0.0,0.0,0.0,3.9593,4.0095,4.0048,4.005,4.0104,4.0269,4.0189,4.0132,4.0635,4.3542,4.727,5.0946,5.236,5.5504,6.5019,6.5647,6.5214,6.9319,6.909,6.6796,6.2017,6.0505,5.9914,5.9904,6.1347,6.0832,5.6106,5.5995,5.2897,4.3299,4.2442,4.0717,3.5782,3.1449,2.8192,2.6293,2.2144,1.7768,1.2927,0.9968,0.7217,0.4253,0.0649,-0.2837,-0.5885,-0.8855,-1.1825,-1.4958,-2.0662,-2.4589,-2.6529,-2.5664,-2.8253,-3.3672,-2.9765,-3.0419,-3.3883,-3.3883,-3.4319,-3.5191,-3.5191,-3.5191,-3.5191,-3.5191,-3.5191,-3.5191,0.0,0.0,0.0,0.0,0.0,0.0,0.0,0.0,0.0,0.0,0.0,0.0,0.0,0.0,0.0,0.0,0.0,0.0,3.1384,3.2889,3.4541,0.0,0.0,3.946,4.1042,4.2958,4.4556,4.5883,4.7498,4.8269,4.8233,4.6654,4.5883,4.581,4.4195,4.3497,0.0,0.0,0.0,0.0,4.3497,4.3497,4.3497,0.0,0.0,0.0,0.0,0.0,0.0,0.0,3.8362,3.9084,3.9629,3.9945,4.0204,4.0733,4.0426,3.9907,3.9939,4.1617,4.4655,4.9623,5.2733,5.697,6.6262,6.5805,6.5186,7.1601,7.2519,7.0357,6.4569,6.5013,6.4897,6.1054,6.1296,6.0661,5.6988,5.6419,5.3023,4.3852,4.279,4.0717,3.5572,2.9745,2.6082,2.6082,2.0483,1.5697,1.2716,0.9968,0.7005,0.4253,-0.1512,-0.5885,-0.8926,-1.1951,-1.4958,-1.8088,-2.372,-2.6529,-2.6313,-2.3511,-2.5447,-3.0621,-2.4806,-2.5447,-3.0846,-3.0846,-3.2586,-3.5191,-3.5191,-3.5191,-3.5191,-3.5191,-3.5191,-3.5191,0.0,0.0,0.0,0.0,0.0,0.0,0.0,0.0,0.0,0.0,0.0,0.0,0.0,0.0,0.0,0.0,0.0,0.0,3.1384,3.2889,3.4541,3.6229,0.0,0.0,0.0,0.0,4.3721,4.4677,4.5717,4.6146,0.0,0.0,4.5219,4.5002,4.3975,0.0,0.0,0.0,0.0,0.0,4.3497,4.3497,4.3389,0.0,0.0,0.0,0.0,0.0,0.0,0.0,0.0,0.0,3.9181,3.9508,3.989,4.0231,4.088,4.1629,4.2176,4.7701,5.3337,5.3182,5.8154,6.3916,6.7519,6.8531,6.9651,7.3194,7.2298,6.9384,6.4425,6.3666,6.3134,6.0924,6.1632,6.1101,5.7033,5.671,5.3378,4.3886,4.3005,4.0307,3.2973,2.8468,2.5239,2.3123,1.7502,1.2721,0.9968,0.5082,0.2127,0.129,-0.4335,-0.7864,-0.8784,-1.1988,-1.582,-2.0905,-2.4797,-2.5447,-2.3511,-2.4589,-2.7392,-3.0632,-2.6961,-2.8479,-3.3883,-3.3883,-3.4332,-3.5191,-3.5191,-3.5191,-3.5191,-3.5191,-3.5191,-3.5191,0.0,0.0,0.0,0.0,0.0,0.0,0.0,0.0,2.6691,2.6691,2.6691,2.6691,0.0,0.0,0.0,2.7897,2.9725,0.0,3.1384,3.2464,3.3806,3.5476,3.6417,3.7753,0.0,4.1011,4.1876,0.0,0.0,0.0,0.0,0.0,4.4819,4.4672,4.3864,4.3497,0.0,0.0,0.0,4.3497,4.3497,4.3314,4.2913,0.0,0.0,0.0,0.0,0.0,0.0,0.0,0.0,0.0,3.9068,3.933,3.9615,4.0513,4.0966,4.1782,4.4307,4.9628,5.5162,5.7852,6.258,6.7427,7.1167,7.1415,7.0996,7.1706,7.1217,6.9224,6.421,6.4486,6.4508,6.1868,6.245,6.159,5.735,5.7134,5.3818,4.4106,4.3186,3.9989,3.1674,2.8045,2.4817,2.207,1.6227,1.1015,0.6983,0.2538,-0.0426,-0.1725,-0.7376,-1.0058,-0.8821,-1.3112,-1.7599,-2.221,-2.5014,-2.5664,-2.3937,-2.6961,-2.9112,-3.0846,-3.0193,-3.1935,-3.5191,-3.5191,-3.5191,-3.5191,-3.5191,-3.5191,-3.5191,-3.5191,-3.5191,-3.5191,0.0,0.0,0.0,0.0,0.0,0.0,0.0,2.6691,2.6691,2.6691,2.6691,2.6691,0.0,0.0,0.0,2.784,2.9212,3.0467,3.1236,3.1719,3.2637,3.429,3.5438,3.6798,3.8434,3.9212,3.9502,3.9166,4.2951,0.0,0.0,0.0,4.4636,4.4562,0.0,4.3497,0.0,0.0,4.3497,4.3497,4.3424,4.2947,4.2286,4.2106,0.0,0.0,0.0,0.0,0.0,0.0,0.0,0.0,3.9115,3.9295,3.9358,4.1069,4.117,4.1725,4.6462,4.9358,5.3346,6.2755,6.6153,6.8872,7.5358,7.3759,7.0278,6.865,6.9668,6.9132,6.383,6.6159,6.7457,6.3549,6.335,6.2103,5.7847,5.7603,5.4422,4.4429,4.3318,3.9974,3.1425,2.7822,2.4807,2.1627,1.5798,0.9944,0.443,0.1268,-0.1703,-0.4528,-1.0192,-1.2026,-0.9272,-1.5122,-1.939,-2.2647,-2.5231,-2.6745,-2.6961,-2.9326,-3.0407,-3.0621,-3.3883,-3.5191,-3.5191,-3.5191,-3.5191,-3.5191,-3.5191,-3.5191,-3.5191,-3.5191,-3.5191,-3.5191,0.0,0.0,0.0,0.0,0.0,0.0,2.6691,2.6691,2.6691,2.6691,2.6691,2.6691,2.6691,2.7147,0.0,2.7426,2.8599,2.9676,3.0433,3.1123,3.22,3.3766,3.5422,3.6504,3.6901,3.7798,3.894,4.034,4.1971,4.2687,0.0,0.0,0.0,4.3754,0.0,4.3497,0.0,4.3497,4.3497,4.3424,4.28,4.2433,4.2106,4.0413,3.9549,0.0,0.0,0.0,0.0,0.0,0.0,0.0,3.8534,3.8919,3.9441,3.9991,4.3741,4.7869,4.8462,5.5112,6.2602,6.539,6.955,7.3202,7.3726,7.1445,6.9643,7.1044,6.8622,6.552,6.3184,6.361,6.4086,6.359,6.3626,6.225,5.8322,5.8007,5.4422,4.4429,4.3318,3.9016,2.8387,2.6658,2.3905,1.8507,1.2787,0.7833,0.443,-0.0635,-0.4706,-0.7602,-1.1311,-1.2937,-1.2463,-1.6059,-2.0466,-2.5664,-2.6097,-2.7607,-2.9979,-2.8253,-2.7392,-2.7823,-3.3023,-3.5191,-3.5191,-3.5191,-3.5191,-3.5191,-3.5191,-3.5191,-3.5191,-3.5191,-3.5191,-3.5191,0.0,0.0,0.0,0.0,0.0,0.0,0.0,0.0,2.7165,2.7023,2.6825,2.6791,2.6954,2.7178,0.0,0.0,2.8047,2.8847,2.9627,3.0187,3.1253,3.2956,3.3933,3.4768,3.5446,3.6333,3.7638,3.9336,4.0435,4.1543,4.2619,4.332,0.0,4.3497,0.0,4.3497,4.3497,4.3497,4.3497,4.3461,4.302,4.2396,4.1592,4.0477,3.9574,3.8846,3.8445,0.0,0.0,0.0,0.0,0.0,0.0,0.0,3.8706,3.9817,4.245,4.6001,5.0343,5.6169,6.2433,6.8644,7.3168,7.5917,7.5216,7.2607,7.0487,7.1058,6.7242,6.3684,6.2935,6.3048,6.335,6.3651,6.4128,6.2861,5.8548,5.8276,5.4653,4.4463,4.2018,3.7323,2.7407,2.5001,2.1593,1.5778,1.1108,0.6137,0.0422,-0.2553,-0.6236,-1.0666,-1.2457,-1.3221,-1.3389,-1.7826,-2.221,-2.6529,-2.6529,-2.7392,-2.8682,-2.8682,-2.9337,-3.0846,-3.3896,-3.5191,-3.5191,-3.5191,-3.5191,-3.5191,-3.5191,-3.5191,-3.5191,-3.5191,-3.5191,-3.5191,0.0,0.0,0.0,0.0,0.0,0.0,0.0,0.0,0.0,2.7215,2.6954,2.6889,2.7178,2.7272,2.7272,0.0,0.0,0.0,2.8845,2.9344,3.0343,3.2043,3.2246,3.2848,3.4066,3.4979,3.6209,3.7827,3.9032,4.0848,4.3178,4.3321,0.0,4.3356,0.0,0.0,4.3497,4.3497,4.3497,4.3497,4.3351,4.2506,4.1295,4.1148,4.0267,3.9093,3.8946,3.8909,3.881,3.8238,0.0,0.0,0.0,0.0,3.7714,3.9799,4.0711,4.2841,5.1243,5.5651,6.0635,7.1671,7.574,7.7197,7.7414,7.4522,7.1595,7.0539,6.6554,6.3286,6.2822,6.3299,6.3726,6.3802,6.4655,6.3694,5.8729,5.8545,5.4926,4.448,4.0716,3.565,2.7308,2.3582,1.9517,1.368,1.0289,0.4873,-0.3796,-0.3636,-0.6697,-1.349,-1.2942,-1.3047,-1.4276,-1.9573,-2.3729,-2.6529,-2.7607,-2.7823,-2.7392,-3.0193,-3.2586,-3.4544,-3.498,-3.5191,-3.5191,-3.5191,-3.5191,-3.5191,-3.5191,-3.5191,-3.5191,-3.5191,-3.5191,-3.5191,0.0,0.0,0.0,0.0,0.0,0.0,0.0,0.0,0.0,0.0,2.7019,2.7115,2.6825,2.7083,2.7147,2.6825,2.6858,2.7164,2.7913,0.0,0.0,3.1292,3.1935,3.2415,3.2577,3.3931,3.5615,3.7655,3.8425,3.9939,4.2062,4.2541,4.2808,4.2808,4.3286,0.0,0.0,4.3497,4.3497,4.3424,4.2727,4.2323,4.2066,4.1368,4.0965,4.0708,3.9974,3.9753,3.9606,3.8847,3.7863,0.0,0.0,0.0,3.695,3.903,4.2894,4.6869,4.8754,5.7003,6.655,7.2844,7.5399,7.6634,7.7941,7.4881,7.2028,7.2371,6.8667,6.4949,6.3123,6.3299,6.3827,6.4279,6.4881,6.3816,5.9386,5.8769,5.4926,4.448,4.0716,3.5568,2.7079,2.3627,1.9593,1.3567,1.031,0.4906,-0.3797,-0.1927,-0.5618,-1.6543,-1.2069,-1.1942,-1.7184,-2.0474,-2.3729,-2.6529,-3.1722,-3.2798,-3.0407,-3.3235,-3.3447,-3.171,-3.4108,-3.5191,-3.5191,-3.5191,-3.5191,-3.5191,-3.5191,-3.5191,-3.5191,-3.5191,-3.5191,-3.5191,0.0,0.0,0.0,0.0,0.0,0.0,0.0,0.0,0.0,0.0,0.0,2.7577,2.7396,2.7334,2.7147,2.6725,2.6691,2.6996,2.7739,2.8856,2.9803,3.0548,3.1292,3.1867,3.2273,3.3322,3.4737,3.6464,3.7661,3.8929,4.0239,4.1209,4.1853,4.2221,4.2808,4.3069,0.0,0.0,4.3497,4.3461,4.3094,0.0,0.0,0.0,4.336,4.5156,4.1787,4.0561,4.0451,3.9643,3.8802,3.8072,3.7929,0.0,0.0,0.0,4.0523,4.3989,5.1349,6.0384,6.8993,7.4267,7.6608,7.7622,7.7667,7.5851,7.375,7.2576,7.0973,6.8667,6.516,6.522,6.559,6.4571,6.5183,6.4184,5.9522,5.7371,5.3291,4.4278,3.7986,3.2276,2.7011,2.2164,1.7054,1.1077,0.9454,0.4256,-0.616,-0.4071,-0.7137,-1.7107,-1.3481,-1.3559,-1.786,-2.242,-2.5231,-2.6529,-3.2373,-3.2798,-2.8682,-3.3235,-3.4544,-3.3447,-3.4755,-3.5191,-3.5191,-3.5191,-3.5191,-3.5191,-3.5191,-3.5191,-3.5191,-3.5191,-3.5191,-3.5191,0.0,0.0,0.0,0.0,0.0,0.0,0.0,0.0,0.0,0.0,0.0,2.8123,2.8035,0.0,0.0,0.0,2.6996,2.7232,2.7739,2.8349,2.9025,2.9803,3.0514,3.119,3.1732,3.2645,3.3829,3.5318,3.6874,3.8091,3.9005,4.0138,4.092,4.142,4.2302,4.277,4.2921,4.3321,4.3497,0.0,0.0,0.0,0.0,0.0,4.6564,4.8793,0.0,4.1168,4.1022,4.0251,3.94,3.8546,3.8151,3.6991,0.0,0.0,0.0,4.1682,5.2096,5.9858,6.6556,7.3063,7.5523,7.6592,7.7622,7.6732,7.514,7.3437,7.3239,7.2024,6.7638,6.7191,6.6803,6.4764,6.5383,6.4454,5.9545,5.6979,5.266,4.4361,3.6453,3.0199,2.6724,2.1173,1.5184,0.9444,0.8888,0.3649,-0.8171,-0.5381,-0.7794,-1.7371,-1.4205,-1.4054,-1.786,-2.3683,-2.692,-2.7607,-3.2798,-3.2586,-2.7823,-3.2798,-3.5191,-3.5191,-3.5191,-3.5191,-3.5191,-3.5191,-3.5191,-3.5191,-3.5191,-3.5191,-3.5191,-3.5191,-3.5191,-3.5191,0.0,0.0,0.0,0.0,0.0,0.0,0.0,0.0,0.0,0.0,0.0,2.878,2.841,2.9003,2.8939,2.7842,2.7739,2.7739,2.7772,2.784,2.8213,2.8991,2.977,0.0,3.0209,3.1596,3.3051,3.4539,3.6096,3.7584,3.9005,3.9765,4.0154,4.0254,4.1973,4.2995,4.3463,4.3497,4.3497,4.3941,4.9136,5.1307,5.1422,5.0609,5.0383,4.9818,4.3601,4.1358,4.125,4.0456,3.894,3.7498,3.8096,3.64,3.484,0.0,0.0,0.0,4.7457,5.1625,5.7007,6.6757,6.9583,7.1725,7.8052,7.7092,7.5258,7.6315,7.5598,7.3739,7.021,6.8378,6.6803,6.4764,6.5383,6.4454,5.9545,5.8608,5.4779,4.4436,3.8134,3.2436,2.693,2.1319,1.5354,0.93,0.8889,0.3759,-0.8104,-0.3264,-0.5636,-1.721,-1.2153,-1.2025,-1.786,-2.3602,-2.7899,-3.0621,-3.3672,-3.3672,-3.0846,-3.3883,-3.5191,-3.5191,-3.5191,-3.5191,-3.5191,-3.5191,-3.5191,-3.5191,-3.5191,-3.5191,-3.5191,-3.5191,-3.5191,-3.5191,0.0,0.0,0.0,0.0,0.0,0.0,0.0,0.0,0.0,0.0,0.0,0.0,0.0,2.9315,2.9248,2.8621,2.8552,0.0,0.0,2.8281,2.845,2.8247,2.9431,3.0108,3.0108,3.1529,3.278,3.3795,3.5318,3.6806,3.8294,3.9039,3.9827,4.0672,4.1682,4.2226,4.2465,4.3178,4.3497,4.3978,4.9405,5.3655,5.6329,5.279,5.5924,6.112,5.2017,4.8745,4.8529,4.7706,4.4139,3.9839,3.9084,3.7891,3.6953,3.7398,3.9101,4.1792,4.6695,5.0125,5.4161,6.1664,6.5923,6.8877,7.1674,7.4501,7.6343,7.6283,7.6728,7.6063,7.2428,7.0575,6.8332,6.5097,6.5383,6.4454,5.9545,5.5797,5.1061,4.4152,3.5034,2.8701,2.6704,2.1335,1.5366,0.9307,0.888,0.3692,-0.8287,-0.693,-0.9492,-1.7646,-1.585,-1.7424,-2.3383,-2.5438,-2.8048,-3.0858,-3.3819,-3.3672,-3.1059,-3.3883,-3.5191,-3.5191,-3.5191,-3.5191,-3.5191,-3.5191,-3.5191,-3.5191,-3.5191,-3.5191,-3.5191,-3.5191,-3.5191,-3.5191,0.0,0.0,0.0,0.0,0.0,2.9659,3.0467,3.0478,3.0592,0.0,0.0,0.0,0.0,0.0,3.0765,3.0033,2.9518,2.89,2.8247,2.845,2.8349,2.7806,2.8789,2.9465,2.9736,3.1157,3.2408,3.3423,3.4878,3.6253,3.7537,3.855,3.9457,4.0302,4.1348,4.1921,4.2144,4.3105,4.3497,4.4125,5.1665,5.7011,6.0184,5.6694,6.0282,6.5982,5.6659,5.3294,5.3318,5.4049,5.1176,4.6755,4.3565,4.087,3.8654,3.7377,3.836,4.0723,4.457,4.7183,5.0294,5.6408,6.0371,6.3858,6.7843,7.204,7.5277,7.6099,7.724,7.6941,7.3729,7.2311,7.0173,6.6098,6.5867,6.4405,5.9454,5.486,4.9934,4.4025,3.4259,2.7471,2.665,2.14,1.5366,0.9307,0.8999,0.3771,-0.8263,-0.7025,-0.8664,-1.4608,-1.6792,-2.0614,-2.6433,-2.6499,-2.8387,-3.2363,-3.4241,-3.4108,-3.2361,-3.4319,-3.5191,-3.5191,-3.5191,-3.5191,-3.5191,-3.5191,-3.5191,-3.5191,-3.5191,-3.5191,-3.5191,-3.5191,-3.5191,-3.5191,0.0,0.0,0.0,0.0,3.0246,3.0503,3.1347,3.1147,3.116,3.1923,0.0,0.0,0.0,0.0,0.0,3.2053,3.056,2.9489,2.9062,2.8315,2.784,2.784,0.0,0.0,2.8991,3.0446,3.1901,3.3389,3.4844,3.5949,3.6827,3.8235,3.8959,3.9059,4.095,4.2114,4.2693,4.325,4.3497,4.4565,5.6104,6.1404,6.2355,6.2544,6.338,6.3654,5.7068,5.4735,5.5308,5.8977,5.9563,5.7596,5.1284,4.5029,3.9606,3.7991,3.8652,4.0047,0.0,0.0,0.0,5.0964,5.3127,5.6402,6.6853,6.9846,7.1766,7.6119,7.7026,7.6544,7.4233,7.3774,7.2369,6.8143,6.6772,6.4431,5.9444,5.6319,5.1695,4.4219,3.5778,2.9342,2.6774,2.1309,1.5593,0.9318,0.8999,0.4008,-0.8254,-0.3621,-0.3096,-0.8862,-1.4691,-2.0614,-2.6423,-2.6551,-2.9335,-3.4966,-3.4966,-3.5191,-3.5191,-3.5191,-3.5191,-3.5191,-3.5191,-3.5191,-3.5191,-3.5191,-3.5191,-3.5191,-3.5191,-3.5191,-3.5191,-3.5191,-3.5191,-3.5191,0.0,0.0,0.0,3.0944,3.1054,3.1531,3.2926,3.303,3.3377,0.0,0.0,0.0,0.0,0.0,0.0,3.2854,3.2366,3.1455,2.9909,2.96,2.9228,2.8687,2.8653,2.9025,2.977,3.0209,3.1117,3.2596,3.3533,3.4651,3.5949,3.6966,3.7841,3.8807,4.0358,4.1289,4.1848,4.2996,4.3828,4.548,5.7891,6.2506,6.2697,6.8642,7.2877,7.5014,7.0004,6.7719,6.7325,6.8395,6.2717,5.4079,4.7263,4.3142,4.0441,3.8836,3.9118,3.9952,4.0148,0.0,0.0,0.0,0.0,0.0,5.7149,6.1866,6.6414,7.0526,7.2517,7.3807,7.5021,7.3967,7.1934,6.904,6.8119,6.5667,5.9168,5.4215,4.9272,4.3852,3.4071,2.7388,2.6564,2.1309,1.5518,0.94,0.9119,0.3966,-0.8217,-1.152,-1.2762,-1.2213,-1.582,-1.9692,-2.3383,-2.541,-2.8412,-3.2114,-3.2114,-3.3282,-3.5191,-3.3058,-3.3294,-3.5191,-3.5191,-3.5191,-3.5191,-3.5191,-3.5191,-3.5191,-3.5191,-3.5191,-3.5191,-3.5191,-3.5191,-3.5191,0.0,0.0,3.0552,3.1715,3.2192,3.2816,3.41,3.4731,3.5393,0.0,0.0,0.0,0.0,0.0,0.0,0.0,3.4168,3.3141,3.1162,3.0717,3.0243,2.9499,2.9161,2.9367,3.0078,3.0378,3.1123,3.228,3.3035,3.3859,3.4678,3.5802,3.6785,3.7759,3.9791,4.0937,4.1489,4.2922,4.3973,4.5773,5.8042,6.3003,6.3918,7.1498,7.6129,7.8203,7.543,7.4573,7.4974,7.5331,6.7384,5.6454,5.2001,4.6731,4.1769,4.0157,4.0031,4.0449,4.0822,0.0,0.0,4.3784,0.0,0.0,5.5359,6.0245,6.516,7.0658,7.3101,7.4546,7.5318,7.4416,7.2687,6.9696,6.916,6.6618,5.9725,5.4584,4.9787,4.5127,3.4783,2.7835,2.6594,2.1309,1.6037,1.1151,0.9869,0.5105,-0.4694,-1.2153,-1.4619,-1.1541,-1.5593,-1.9235,-2.2226,-2.5042,-2.808,-3.0951,-3.0951,-3.2363,-3.5191,-3.2127,-3.2363,-3.5191,-3.5191,-3.5191,-3.5191,-3.5191,-3.5191,-3.5191,-3.5191,-3.5191,-3.5191,-3.5191,-3.5191,-3.5191,0.0,0.0,3.098,3.2596,3.3476,3.4284,3.5247,3.6297,3.7308,0.0,0.0,0.0,0.0,0.0,0.0,0.0,3.5786,3.4507,3.2652,3.1765,3.1021,3.0378,2.9533,2.9434,3.0082,3.0722,3.1336,3.193,3.2832,3.3251,3.3173,3.4711,3.5745,3.6468,3.9191,4.074,4.1462,4.2805,4.4336,4.69,5.7899,6.3438,6.5836,7.3303,7.6578,7.7263,7.6946,7.7909,7.9311,7.9563,7.2463,6.3206,6.0867,5.3626,4.5321,4.2246,4.1825,4.231,4.231,4.229,0.0,4.3311,4.4044,0.0,5.6729,6.0596,6.4201,7.1412,7.4137,7.4766,7.3474,7.3367,7.2316,6.9077,6.8762,6.6846,6.0724,5.64,5.1758,4.6682,3.7223,2.9709,2.6824,2.1538,1.7169,1.3669,1.0048,0.5771,0.0222,-0.8507,-1.2116,-0.9083,-1.4691,-1.9228,-2.1759,-2.479,-2.7891,-3.0482,-3.0482,-3.194,-3.4649,-3.1704,-3.1891,-3.4716,-3.4966,-3.5191,-3.5191,-3.5191,-3.5191,-3.5191,-3.5191,-3.5191,-3.5191,-3.5191,-3.5191,-3.5191,3.1016,3.1664,3.2632,3.4257,3.466,3.5495,3.7661,3.8187,3.8857,4.0284,0.0,0.0,0.0,0.0,0.0,0.0,0.0,0.0,3.4143,3.2814,3.2002,3.1867,3.059,2.9939,3.0085,3.0217,3.0112,2.9655,3.159,3.2212,3.1685,3.3522,3.4993,3.614,3.7755,3.9443,4.1209,4.215,4.6789,5.419,6.1991,6.5779,6.8108,8.0704,8.475,8.3634,8.4077,8.3531,8.1866,7.7447,7.5104,7.1954,6.1009,5.9134,5.8672,4.6567,4.6271,4.877,4.3671,4.2304,4.2506,4.3309,4.3642,0.0,4.7194,4.8659,5.0892,5.6047,5.8318,6.0187,6.2783,6.3813,6.3389,6.0647,6.1953,6.2258,5.9777,5.5534,5.0788,4.5647,3.8061,3.1332,2.6584,2.3153,1.9057,1.3684,0.6092,0.1355,0.0,-0.8543,-1.2116,-0.9083,-1.4691,-1.8095,-1.8772,-2.3851,-2.6731,-2.7282,-2.7282,-2.8809,-3.1621,-2.8743,-2.8879,-3.1891,-3.4241,-3.5191,-3.5191,-3.5191,-3.5191,-3.5191,-3.5191,-3.5191,-3.5191,-3.5191,-3.5191,-3.5191,3.1224,3.2349,3.3587,3.477,3.6017,3.7257,3.8505,3.9717,4.0781,4.1589,0.0,0.0,0.0,0.0,0.0,0.0,0.0,0.0,3.6148,3.4712,3.3626,3.2882,3.1799,3.1016,3.0667,3.062,3.0273,2.9549,3.1025,3.1373,3.0701,3.2774,3.4248,3.519,3.7653,3.9465,4.0822,4.269,4.863,5.7291,6.3048,6.7695,7.2293,8.2796,8.5787,8.4508,8.5275,8.5052,8.4211,8.2718,7.7963,7.196,6.8471,6.4726,6.0153,5.2412,5.1731,5.1996,4.5287,4.3339,4.3185,4.3422,4.3497,0.0,0.0,4.8756,5.0456,5.4635,5.6454,5.7789,5.9577,6.0271,5.9981,5.8128,5.9925,6.0204,5.6415,5.4892,5.2714,4.8775,4.0857,3.3369,2.7882,2.3954,1.8661,1.1528,0.6821,0.3065,0.0219,-0.5791,-0.8957,-0.8862,-1.3338,-1.6274,-1.786,-2.3621,-2.6493,-2.6586,-2.7958,-3.0285,-3.2893,-3.0013,-3.0251,-3.3071,-3.4491,-3.5191,-3.5191,-3.5191,-3.5191,-3.5191,-3.5191,-3.5191,-3.5191,-3.5191,-3.5191,-3.5191,3.1494,3.2926,3.4284,3.5128,3.7184,3.8799,3.9129,4.0965,4.2396,4.2727,4.4048,4.4675,4.3985,4.4833,4.4936,0.0,0.0,0.0,3.9881,3.8367,3.648,3.4074,3.3032,3.207,3.1224,3.119,3.0769,2.99,3.0766,3.0835,3.0247,3.2457,3.3845,3.4691,3.9163,4.0932,4.0693,4.4583,5.1295,5.966,6.3798,7.0047,7.761,8.3918,8.5794,8.5131,8.5098,8.5565,8.6268,8.7385,8.0478,7.1868,7.4312,6.9206,6.1445,5.6947,5.6233,5.5197,4.7298,4.4642,4.4081,4.3789,4.3605,4.4628,0.0,0.0,0.0,5.4897,5.6131,5.6622,5.6594,5.6705,5.6509,5.5486,5.7176,5.6954,5.2187,5.2646,5.2703,5.0579,4.3887,3.6785,2.9934,2.4128,1.7401,0.92,0.8634,0.5976,0.0213,-0.2848,-0.578,-0.8889,-1.1776,-1.4912,-1.786,-2.3153,-2.6028,-2.6586,-2.8879,-3.1356,-3.3358,-3.1656,-3.1941,-3.3544,-3.4716,-3.5191,-3.5191,-3.5191,-3.5191,-3.5191,-3.5191,-3.5191,-3.5191,-3.5191,-3.5191,-3.5191,3.2449,3.3743,3.5165,3.6009,3.7588,3.9203,4.0634,4.1662,4.28,4.4232,4.5223,4.5326,4.4191,4.819,5.046,4.9282,5.2634,5.2728,4.7734,4.5601,4.2023,3.6411,3.4288,3.2627,3.1224,3.119,3.0527,2.9098,3.0524,3.1009,3.0701,3.2701,3.4294,3.5788,4.3436,4.4686,4.1494,4.8739,5.6478,6.4174,6.6801,7.4109,8.3983,8.841,9.0433,9.0503,8.808,8.7936,8.8158,8.3156,8.1853,8.0215,6.8291,7.0677,7.4467,5.6679,5.7478,6.1573,4.9985,4.5768,4.4628,4.4591,4.4044,4.3679,4.4299,0.0,4.4665,4.5102,0.0,4.6387,4.6389,0.0,0.0,4.6731,4.7688,4.8275,4.759,4.6334,4.5374,4.4939,4.5886,4.2331,3.1284,2.3799,1.6578,0.9111,0.7878,0.5334,0.0213,-0.2783,-0.5876,-0.875,-1.1825,-1.4912,-1.786,-2.1072,-2.3946,-2.6586,-2.6818,-2.7102,-2.7642,-2.9952,-2.966,-2.7736,-3.3045,-3.5191,-3.5191,-3.5191,-3.5191,-3.5191,-3.5191,-3.5191,-3.5191,-3.5191,-3.5191,-3.5191,3.2706,3.4321,3.5862,3.6229,3.8395,4.0341,4.1001,4.258,4.4121,4.5259,4.6507,4.7309,4.727,4.9234,5.1213,5.2909,5.4409,5.394,5.0753,4.8699,0.0,3.8741,3.6027,3.4192,3.3162,3.2701,3.1856,3.0594,3.1682,3.1857,3.1123,3.3316,3.4863,3.6218,4.4931,4.8005,4.7013,5.2509,5.97,6.771,6.9609,7.6666,8.6203,8.8135,8.9135,8.9355,8.8558,8.9523,9.0753,8.7769,8.3177,7.8868,7.9436,7.5626,6.996,6.4902,6.3619,6.1805,5.2209,5.1645,5.2567,4.7712,4.8481,4.9331,4.5176,4.3826,4.3497,4.3497,0.0,0.0,0.0,0.0,0.0,0.0,4.6229,4.655,4.3775,4.5357,4.6291,4.4841,4.2963,3.8619,3.0424,2.4345,1.8769,1.3467,1.0312,0.6831,0.2558,-0.0213,-0.4118,-0.8767,-1.0035,-1.3112,-1.786,-2.0835,-2.3708,-2.661,-2.8207,-3.0013,-3.1668,-3.2742,-3.2681,-3.1656,-3.4228,-3.5191,-3.5191,-3.5191,-3.5191,-3.5191,-3.5191,-3.5191,-3.5191,-3.5191,-3.5191,-3.5204,3.3036,0.0,3.6303,3.6303,3.8982,4.1258,4.1699,4.3644,4.5333,4.614,4.7645,4.9001,4.9866,5.2372,5.4978,5.7575,5.9744,5.9241,5.4964,5.3164,4.9539,4.3208,3.9019,3.7,3.758,3.5036,3.34,3.2761,3.2951,3.2825,3.2615,3.4491,3.5854,3.715,4.6078,5.0391,5.1257,5.6331,6.3194,7.0734,7.2513,7.7972,8.5508,8.8467,8.9291,8.8913,8.9811,9.1264,9.25,9.0484,8.4424,7.8891,8.5458,7.9087,6.9706,7.2146,7.0327,6.5661,5.7039,5.7397,5.8367,5.0701,5.1076,5.1894,4.6572,4.4554,4.3826,4.3826,4.3642,0.0,0.0,0.0,4.4189,0.0,0.0,4.4213,4.0361,4.2781,4.4406,4.315,3.8874,3.4443,3.0503,2.5214,2.0629,1.6529,1.1889,0.7453,0.3198,0.1066,-0.3034,-0.9899,-0.9365,-1.1767,-1.786,-1.9921,-2.2923,-2.6443,-2.8617,-3.1186,-3.403,-3.4821,-3.4756,-3.4017,-3.494,-3.5191,-3.5191,-3.5191,-3.5191,-3.5191,-3.5191,-3.5191,-3.5191,-3.5191,-3.5204,-3.5428,3.377,3.5128,3.6303,3.6303,3.8982,4.1625,4.3167,4.4819,4.614,4.6985,4.8526,4.9944,5.0886,5.9324,6.4777,6.4373,7.2833,7.364,6.2483,6.1133,5.7738,5.0918,4.3663,4.1512,4.5258,3.8195,3.469,3.5194,3.3725,3.3863,3.5487,3.6361,3.7386,3.8982,4.762,5.1474,5.2033,6.0428,6.7454,7.3279,7.5605,7.8174,8.1543,9.0948,9.3399,9.1789,9.3021,9.3513,9.2783,8.7652,8.5552,8.3975,7.834,7.9257,8.115,7.5366,7.6337,7.6895,6.603,6.1543,5.8549,5.2827,4.9677,4.7868,4.7198,4.5798,4.4665,4.4665,4.4044,4.3497,4.3534,4.3534,0.0,0.0,0.0,0.0,0.0,3.6029,3.5867,3.7203,3.4502,3.2422,3.2211,2.6748,2.1191,1.6416,1.1146,0.5916,0.0426,0.0,-0.4118,-1.2849,-1.0261,-1.1767,-1.786,-1.8088,-2.0843,-2.6443,-2.6541,-2.8191,-3.1186,-3.403,-3.3582,-3.1186,-3.4004,-3.5191,-3.5191,-3.5191,-3.5191,-3.5191,-3.5191,-3.5191,-3.5191,-3.5191,-3.5428,-3.5666,3.3917,3.5165,3.6303,3.6303,3.8982,4.1662,4.324,4.4856,4.7719,5.2858,5.539,5.8721,6.3868,6.7855,7.074,7.2254,7.5868,7.4163,6.4966,6.3694,6.0352,5.3543,4.6035,4.3642,4.7047,4.1057,3.7435,3.648,3.6324,3.6185,3.6075,3.7403,3.8548,3.9893,4.8479,5.4816,5.9455,6.4387,7.0515,7.683,7.6434,7.8924,8.302,8.5477,8.6789,8.8081,9.2714,9.4915,9.5321,9.3002,8.9669,8.6646,8.7763,8.3673,7.8747,8.0422,7.938,7.6726,7.1998,7.357,7.3837,6.2682,6.1178,6.0255,5.1936,4.8053,4.6287,4.6279,4.5213,4.4299,4.4299,0.0,0.0,0.0,0.0,0.0,0.0,3.4665,3.3265,3.3966,3.3411,3.2587,3.1773,2.7788,2.3997,2.1089,1.5341,0.9952,0.5758,0.3816,-0.1292,-1.0123,-0.9365,-1.1767,-1.786,-1.786,-2.0835,-2.6443,-2.6531,-2.9101,-3.3767,-3.4729,-3.4716,-3.3767,-3.4729,-3.5191,-3.5191,-3.5191,-3.5191,-3.5191,-3.5191,-3.6408,-3.8096,-3.6156,-3.5442,-3.6013,3.4798,3.5789,3.6707,3.6707,3.9386,4.2066,4.3681,4.5296,4.8967,5.6271,5.9318,6.3613,7.0954,7.3885,7.5851,7.7134,7.9066,7.6322,6.6971,6.7726,6.5544,5.9132,5.3614,5.2156,5.5359,4.7426,4.2671,4.1517,3.9077,3.7801,3.7599,3.8633,3.9548,4.063,4.6974,5.4755,6.3199,6.6542,7.2965,8.0701,7.6972,7.7865,8.1393,8.0997,8.3047,8.7068,9.3298,9.6021,9.6649,9.6428,9.3517,9.0692,9.4373,8.9787,8.3698,8.7742,8.6466,8.3082,7.9926,8.2021,8.2371,7.1023,6.9399,6.7956,5.7823,5.3373,5.078,4.8495,4.6726,4.5404,4.4923,4.4189,0.0,0.0,0.0,0.0,0.0,3.4058,3.2227,3.2472,3.2254,3.1511,3.0144,2.7384,2.45,2.1928,1.6876,1.1697,0.6576,0.4869,0.0214,-0.8614,-0.8855,-1.1316,-1.6268,-1.7405,-2.0835,-2.6443,-2.6531,-2.9568,-3.5191,-3.5191,-3.5191,-3.5191,-3.5191,-3.5191,-3.5191,-3.5191,-3.5204,-3.5442,-3.6408,-3.8096,-3.9581,-3.6647,-3.5697,-3.6639,3.6303,3.7,3.7654,3.7728,4.0267,4.2837,4.4452,4.6067,4.9848,5.7483,6.0566,6.4971,7.2569,7.7928,8.0498,7.9362,8.304,8.0628,6.9347,7.303,7.3229,6.7671,6.5549,6.5955,6.9133,5.6708,4.997,4.9551,4.1899,3.8768,3.9878,3.9982,4.0414,4.1209,4.3679,5.1414,6.2878,6.6464,7.4453,8.4143,7.724,7.5416,7.703,7.8452,8.2906,8.8967,9.4732,9.6795,9.6942,9.7644,9.6985,9.6029,9.7536,9.6911,9.5773,9.6544,9.6762,9.5455,8.9621,8.6905,8.4172,7.7595,7.4163,7.0796,6.4691,6.1379,5.7909,5.1817,4.9187,4.7494,4.5952,4.4926,0.0,0.0,0.0,0.0,0.0,3.4044,3.2223,3.2521,3.0895,2.9138,2.755,2.5597,2.2953,1.9131,1.5911,1.0835,0.3347,0.3816,0.0213,-0.8119,-0.8756,-1.0432,-1.3338,-1.6495,-2.0835,-2.6443,-2.6531,-2.9568,-3.5191,-3.5191,-3.5191,-3.5191,-3.5191,-3.5191,-3.5191,-3.5204,-3.5428,-3.5918,-3.8888,-4.0107,-4.0243,-3.6941,-3.6235,-3.7699,3.6413,3.7918,3.9643,4.0855,4.1735,4.2837,4.4452,4.6067,5.1463,6.3613,6.732,7.3193,8.4719,8.7701,8.8356,8.7232,8.7302,8.4529,7.7717,7.683,7.5967,7.4798,6.9145,6.7492,7.0667,5.9512,5.2573,5.0328,4.4767,4.1328,3.9915,4.1139,4.1498,4.1209,4.4262,4.9933,5.7464,6.1241,6.8732,7.7907,7.692,7.7175,7.8789,8.4461,8.7633,8.9847,9.5468,9.8272,9.9382,9.9566,9.9777,10.0024,10.0415,9.9841,9.9107,9.9269,9.8888,9.7799,9.5095,9.4008,9.1862,8.4589,8.0941,7.7512,7.1484,6.7762,6.5054,6.3397,6.1325,5.8549,5.4269,5.19,4.9082,4.4472,0.0,0.0,0.0,3.397,3.283,3.1985,2.9934,2.83,2.7687,2.4853,2.23,2.0675,1.6232,1.1635,0.7012,0.6489,0.2558,-0.5334,-0.7712,-1.0281,-1.3338,-1.6495,-2.0835,-2.6443,-2.6531,-2.9568,-3.5191,-3.5191,-3.5191,-3.5191,-3.5191,-3.5191,-3.5204,-3.5428,-3.5442,-3.5986,-3.8896,-4.1774,-4.3474,-4.0438,-4.0988,-4.3355,3.8505,3.979,4.1332,4.2616,4.5773,4.8526,4.9811,4.926,5.3665,6.7467,7.1394,7.6607,8.6407,9.1033,9.2823,9.1207,9.0753,8.8121,8.2378,8.2366,8.1505,7.9128,7.6742,7.5677,7.6092,6.8042,6.1008,5.5508,5.0261,4.5389,4.096,4.1878,4.2078,4.1752,4.4628,4.9601,5.6466,6.5719,7.2545,7.7353,7.9994,8.1958,0.0,8.8253,9.1901,9.5105,9.8674,10.0112,10.0413,10.1068,10.142,10.158,10.2299,10.2004,10.1402,10.1826,10.1479,10.0787,9.9211,9.8219,9.6421,9.1468,8.8216,8.4745,7.8882,7.5424,7.2548,6.946,6.6865,6.3972,6.0147,5.5889,5.091,4.4434,4.0448,3.7604,3.5859,3.4532,3.3245,3.194,3.0626,2.9346,2.8019,2.3524,2.058,1.9907,1.6786,1.3017,0.8357,0.7009,0.3567,-0.2344,-0.7402,-1.0596,-1.132,-1.5366,-2.0385,-2.6443,-2.6531,-2.9568,-3.5428,-3.5428,-3.5428,-3.5428,-3.5442,-3.5442,-3.5428,-3.568,-3.6697,-3.8396,-4.2725,-4.638,-4.8639,-4.5723,-4.5075,-4.5596,4.1368,4.1992,4.2763,4.3791,5.0655,5.6675,5.8437,5.5721,5.8143,7.1211,7.4808,7.8442,8.4352,9.1289,9.4797,9.3189,9.3566,9.1532,8.6046,8.8517,8.7937,8.2769,8.548,8.5978,8.3355,7.8114,7.1235,6.2524,5.6556,4.9812,4.2477,4.2447,4.241,4.2441,4.4847,5.0187,5.8389,7.2913,7.9139,7.9604,8.4275,8.755,8.9924,9.1473,9.6062,10.1712,10.2674,10.2097,10.1096,10.2517,10.2591,10.2399,10.3824,10.3708,10.3283,10.4016,10.4093,10.367,10.198,10.052,9.9011,9.7239,9.4777,9.1545,8.6268,8.3571,8.0335,7.39,7.0407,6.7811,6.5239,5.8248,5.0666,4.3721,4.0832,3.904,3.7684,3.6067,3.437,3.2768,3.2009,0.0,2.8637,2.3028,1.9388,1.9189,1.7604,1.4316,0.8784,0.6369,0.3598,0.0211,-0.7878,-1.0926,-0.8786,-1.4304,-2.0149,-2.6433,-2.6531,-2.9791,-3.5666,-3.5603,-3.5657,-3.5657,-3.5986,-3.5999,-3.567,-3.5923,-3.8325,-4.1934,-4.7565,-5.1591,-5.3761,-5.1107,-4.8667,-4.6821,4.28,4.3167,4.3975,4.6104,5.3188,6.0896,6.7724,6.8164,7.0991,8.0094,8.2223,8.56,9.2611,9.4666,9.5618,9.594,9.5176,9.4612,9.4472,9.2637,9.1351,9.0862,8.9328,8.8257,8.7666,8.1291,7.4058,6.6288,5.9479,5.1737,4.3314,4.3275,4.2947,4.2441,4.4847,5.1443,6.1132,6.6435,7.2547,7.9162,8.5333,8.9276,9.1986,9.7469,10.0798,10.2709,10.4095,10.448,10.4287,10.4595,10.5095,10.5595,10.5864,10.5864,10.5787,10.5864,10.548,10.4477,10.2901,10.1777,10.0509,9.8231,9.6502,9.4695,9.199,9.0231,8.8395,8.5538,8.2494,7.8723,7.3364,6.1367,5.0452,4.529,4.4362,4.3372,4.0649,4.0139,3.8932,0.0,0.0,2.9616,2.9997,2.6095,2.3495,2.3398,1.9323,1.4955,1.0884,0.6421,0.2718,0.0,-0.8385,-1.1316,-0.8109,-1.4517,-2.0378,-2.55,-2.6296,-2.9791,-3.5693,-3.5692,-3.5676,-3.6075,-3.6099,-3.5993,-3.5921,-3.6387,-3.9758,-4.5013,-4.8399,-5.1387,-5.4023,-5.3479,-5.2999,-5.2289,4.5149,4.5369,4.7205,5.3004,6.0382,6.8348,7.69,8.1415,8.4058,8.4572,8.571,8.7802,9.1326,9.5474,9.797,9.797,9.7751,9.7824,9.797,9.5844,9.4606,9.4545,9.2409,9.0945,9.045,8.7048,7.9782,6.8364,6.4805,5.7,4.536,4.492,4.4554,4.4446,5.0932,5.7201,6.3546,7.2759,7.9209,8.3881,9.0963,9.5065,9.7233,10.1214,10.317,10.4093,10.5287,10.5787,10.5787,10.5787,10.6097,10.6405,10.6405,10.6405,10.6405,10.6405,10.6097,10.548,10.4285,10.312,10.1684,10.0215,9.8222,9.6222,9.4431,9.2788,9.102,8.9043,8.5449,8.0018,7.1362,6.1466,5.3094,4.8298,4.6146,4.4419,4.2065,4.1638,4.0163,0.0,0.0,0.0,0.0,2.7233,2.4987,2.3503,1.9212,1.453,0.9677,0.4412,0.0368,-0.2042,-1.0341,-1.3341,-1.0555,-1.6601,-2.1801,-2.5961,-2.7931,-3.1421,-3.5945,-3.5917,-3.6184,-3.6392,-3.6353,-3.6433,-3.6458,-3.9736,-4.3788,-4.7944,-5.0828,-5.2712,-5.4023,-5.4023,-5.4023,-5.3761,4.9677,4.8937,5.1219,6.1855,6.8373,7.5014,8.3787,9.1362,9.4189,8.905,8.9454,9.0372,9.0739,9.6465,10.0099,9.9659,10.0209,10.0283,9.9659,9.848,9.7571,9.6842,9.5106,9.3729,9.307,9.2531,8.582,7.272,7.0485,6.2485,4.9117,4.7091,4.7054,4.9117,5.7855,6.4168,6.9055,8.1612,8.8031,9.0402,9.6981,10.0519,10.2096,10.3593,10.471,10.548,10.6213,10.6521,10.6521,10.6597,10.6521,10.6405,10.6405,10.6405,10.6521,10.6521,10.6521,10.6328,10.548,10.4287,10.2982,10.1954,10.0012,9.7904,9.6093,9.4333,9.2423,9.0036,8.5134,7.8146,6.7718,6.1433,5.605,5.115,4.8113,4.5609,4.3534,4.3093,4.1546,0.0,0.0,0.0,2.9427,2.7673,2.5412,2.209,1.8886,1.4562,0.8937,0.3136,-0.1019,-0.3324,-1.1222,-1.4304,-1.1992,-1.8312,-2.2902,-2.6405,-2.9686,-3.2947,-3.6085,-3.6268,-3.6458,-3.6679,-3.6706,-3.7189,-3.7921,-4.3879,-4.7731,-5.0012,-5.2935,-5.4023,-5.4023,-5.4023,-5.4023,-5.4023,5.8501,5.4951,5.5581,7.17,7.4549,7.7312,8.5512,9.3013,9.7493,9.6832,9.6906,9.753,9.8998,9.9842,10.0576,10.12,10.131,10.1384,10.1274,10.0496,9.9787,9.9315,9.7678,9.6761,9.6723,9.5302,9.0756,8.3174,7.5044,6.5868,5.5771,4.9786,5.0933,5.8128,6.2126,7.0445,8.1852,8.6648,9.1783,9.7002,9.9979,10.2211,10.3785,10.471,10.548,10.6328,10.6597,10.679,10.679,10.6982,10.679,10.6405,10.6405,10.6597,10.679,10.679,10.679,10.6597,10.5787,10.5316,10.4608,10.2983,10.2346,10.131,9.8014,9.6599,9.5074,9.1795,8.4842,7.6834,6.8832,6.323,5.7957,5.2157,5.1746,5.0518,4.5919,4.6549,4.5538,3.9991,0.0,0.0,2.9418,2.7918,2.5286,2.0529,1.9158,1.6518,1.1752,0.4673,0.0403,-0.04,-0.8917,-1.1816,-0.8417,-1.7582,-2.3162,-2.557,-2.938,-3.3097,-3.6053,-3.6405,-3.6679,-3.6927,-3.6941,-3.8446,-4.112,-4.6971,-4.9471,-5.0012,-5.2935,-5.4023,-5.4023,-5.4023,-5.4023,-5.4023,6.9284,6.7921,6.9585,8.1212,8.3043,8.5553,9.3768,9.7062,9.897,9.9884,9.9664,9.9585,10.0209,10.0686,10.131,10.2191,10.2191,10.2412,10.2889,10.2595,10.2431,10.2232,10.034,9.9455,9.974,9.742,9.2855,8.6046,7.7623,6.9397,6.1528,5.8125,6.0735,6.856,7.3963,7.968,8.5544,9.2142,9.6562,9.9403,10.1904,10.3712,10.5018,10.5787,10.6405,10.6905,10.6982,10.6982,10.7098,10.7175,10.7098,10.6905,10.6905,10.6982,10.6989,10.701,10.6887,10.6722,10.6369,10.5787,10.4922,10.377,10.3101,10.1905,9.8716,9.6875,9.5006,9.2362,8.4315,7.5568,6.8706,6.2345,5.7423,5.5235,5.2541,5.0042,4.8224,4.6869,4.4288,3.9131,0.0,3.0014,2.6294,2.3998,2.2165,2.0587,1.9488,1.6185,0.9642,0.347,-0.1339,-0.4369,-1.1766,-1.552,-1.5575,-2.1759,-2.6256,-2.8879,-3.2586,-3.4854,-3.6432,-3.6679,-3.7699,-3.9472,-3.9472,-4.2061,-4.6567,-4.8891,-5.081,-5.2412,-5.3518,-5.4023,-5.4023,-5.4023,-5.4023,-5.4023,7.9167,7.8178,8.0046,9.0555,9.0447,9.1575,9.9781,10.0507,10.0624,10.1707,10.1617,10.1274,10.1017,10.1494,10.2191,10.2999,10.3109,10.3293,10.388,10.388,10.399,10.421,10.2316,10.1465,10.1824,9.9293,9.5435,9.0211,8.2279,7.5519,6.9843,6.6872,6.9754,7.7608,8.3014,8.7012,9.0127,9.6814,9.9981,10.0673,10.3174,10.4789,10.5599,10.6486,10.698,10.7202,10.7319,10.7319,10.7319,10.7396,10.7396,10.7396,10.7202,10.7319,10.7313,10.7313,10.7109,10.6916,10.6923,10.6213,10.5287,10.4285,10.3474,10.2199,9.9053,9.6765,9.4071,8.9678,8.2387,7.4677,6.8018,6.1893,5.7546,5.6119,5.2003,4.8776,4.7902,4.5655,4.2379,3.7883,3.3543,2.9151,2.4641,2.1842,1.9715,1.8643,1.6436,1.2835,0.7429,0.2027,-0.3008,-0.7458,-1.3865,-1.8008,-1.9655,-2.5033,-2.904,-3.1421,-3.458,-3.6153,-3.6445,-3.6706,-3.846,-4.1223,-4.2122,-4.525,-4.9771,-5.0587,-5.217,-5.4023,-5.4023,-5.4004,-5.378,-5.4023,-5.4004,-5.378,8.7427,8.3371,8.3524,9.9595,9.5828,9.3332,10.1403,10.2709,10.2728,10.2684,10.3426,10.3595,10.2779,10.2705,10.2999,10.3806,10.388,10.388,10.388,10.388,10.4284,10.5091,10.3513,10.2705,10.2705,10.1127,9.9438,9.7787,9.047,8.5155,8.1842,7.4973,7.6275,8.4448,8.6557,9.1224,9.7634,10.0289,10.1289,10.152,10.4095,10.5287,10.5601,10.6489,10.6992,10.7187,10.7499,10.7617,10.7617,10.789,10.8007,10.789,10.7382,10.7382,10.7617,10.7617,10.7383,10.719,10.7194,10.679,10.602,10.44,10.4025,10.2978,9.9199,9.674,9.252,8.2959,7.8669,7.4337,6.6334,6.2616,5.887,5.3255,5.0455,4.7833,4.4466,4.2856,4.0741,3.7531,3.7306,3.423,2.5555,2.243,1.8777,1.3822,0.8787,0.6104,0.6145,0.1193,-0.364,-0.8123,-1.4228,-1.7521,-1.7599,-2.6337,-3.0975,-3.1421,-3.4644,-3.6197,-3.6445,-3.6706,-3.846,-4.14,-4.4237,-4.719,-5.0031,-5.2712,-5.4023,-5.4023,-5.4023,-5.3761,-5.3479,-5.378,-5.3761,-5.3479,9.7596,9.652,9.6751,10.252,10.1402,10.0709,10.3903,10.3862,10.3876,10.5116,10.5018,10.4907,10.517,10.4219,10.3806,10.4614,10.4724,10.5018,10.5605,10.5605,10.5678,10.6009,10.4908,10.41,10.3513,10.1898,10.0283,9.8741,9.1436,8.7039,8.5404,8.3555,8.6557,9.3633,9.4178,9.6623,10.0212,10.1019,10.2404,10.4172,10.498,10.5864,10.6719,10.6997,10.7109,10.7187,10.7304,10.7304,10.7383,10.7617,10.7617,10.75,10.7695,10.7812,10.789,10.789,10.7617,10.719,10.7194,10.679,10.602,10.44,10.4025,10.3051,9.9602,9.5269,8.9364,8.041,7.6966,7.3501,6.6955,6.2274,5.8133,5.4413,5.0183,4.636,4.3607,3.9891,3.6097,3.2244,2.8241,2.3218,1.7129,1.5082,1.3608,1.2824,0.9295,0.5921,0.2782,-0.2739,-0.8116,-1.3273,-1.8107,-2.2158,-2.537,-2.9024,-3.2127,-3.4505,-3.5646,-3.6432,-3.6706,-3.6927,-3.9486,-4.4254,-4.4997,-4.822,-5.2693,-5.3537,-5.4023,-5.4023,-5.4023,-5.3761,-5.3382,-5.3787,-5.3805,-5.3479,10.2905,10.3097,10.3405,10.4214,10.4403,10.4593,10.548,10.5403,10.5672,10.679,10.671,10.6805,10.7336,10.6134,10.5432,10.5605,10.5605,10.5789,10.6376,10.6376,10.6376,10.6376,10.5605,10.4908,10.4394,10.2779,10.131,9.9989,9.4813,9.2023,9.1542,9.2167,9.4706,9.8722,9.9313,10.0404,10.1904,10.2597,10.3864,10.5522,10.5991,10.6589,10.7199,10.7201,10.7192,10.7192,10.7192,10.7192,10.7192,10.7387,10.7309,10.73,10.7586,10.7708,10.7695,10.789,10.7695,10.7307,10.7194,10.6905,10.6213,10.4826,10.4025,10.2242,9.7362,9.314,8.774,7.8772,7.5877,7.2587,6.4999,6.1172,5.751,5.2787,4.8484,4.416,4.0108,3.5904,3.1445,2.6508,2.2583,1.8156,1.2978,1.0988,0.9247,0.7641,0.3993,0.0,-0.418,-0.6105,-1.0368,-1.7732,-2.1473,-2.5528,-2.9568,-3.1644,-3.3767,-3.6156,-3.6366,-3.6679,-3.6941,-3.7934,-4.1002,-4.558,-4.6505,-4.9512,-5.4023,-5.4023,-5.4023,-5.4023,-5.4023,-5.3761,-5.3527,-5.3922,-5.3847,-5.3479,10.4022,10.402,10.4208,10.5018,10.521,10.548,10.6405,10.7175,10.7716,10.7908,10.8479,10.9013,10.9013,10.8305,10.7381,10.6644,10.6376,10.6376,10.6376,10.6376,10.6376,10.6376,10.5605,10.5201,10.5128,10.3631,10.2382,10.1544,9.9842,9.9108,9.9108,9.9927,10.0326,10.0426,10.1991,10.2709,10.2905,10.4713,10.5484,10.5711,10.6812,10.7187,10.7217,10.72,10.7175,10.7098,10.7098,10.7098,10.7098,10.7175,10.7207,10.7215,10.7189,10.7192,10.7298,10.7812,10.7812,10.7502,10.731,10.6982,10.6521,10.5403,10.3799,10.0576,9.3367,9.0888,8.7501,7.7976,7.5343,7.178,6.181,5.9421,5.6643,4.8724,4.5192,4.0922,3.4267,3.0862,2.6761,2.0594,1.9853,1.7594,1.1971,0.9274,0.5353,-0.0428,-0.5741,-0.9949,-1.2835,-0.892,-1.1379,-2.1449,-2.4845,-2.7951,-3.0939,-3.3767,-3.5482,-3.6067,-3.6678,-3.6941,-3.6941,-3.9472,-4.2432,-4.573,-4.7966,-5.1051,-5.4023,-5.4023,-5.4023,-5.4023,-5.4023,-5.3761,-5.3547,-5.3825,-5.3728,-5.3479,10.4828,10.4787,10.5095,10.5864,10.6097,10.6405,10.729,10.76,10.8175,10.9363,10.9786,10.9902,10.9902,10.9705,10.8992,10.7418,10.6827,10.6376,10.6376,10.6376,10.6376,10.6376,10.6192,10.5789,10.5128,10.4828,10.3613,10.1497,9.9901,9.9108,9.9108,9.9904,10.06,10.1195,10.2183,10.3377,10.4595,10.521,10.6011,10.6792,10.7103,10.7187,10.7217,10.7006,10.679,10.6597,10.6597,10.6597,10.6597,10.679,10.6794,10.6718,10.7104,10.71,10.7015,10.7502,10.75,10.7307,10.7194,10.6982,10.6405,10.4593,10.2063,9.8823,9.4435,9.0868,8.6346,7.925,7.5235,7.096,6.4136,5.925,5.363,4.5805,3.9925,3.4491,2.8289,2.5679,2.2311,1.697,1.5575,1.1663,0.2878,0.1292,-0.0666,-0.444,-0.7363,-0.9568,-1.1024,-1.3498,-1.7738,-2.4547,-2.8269,-3.1389,-3.4017,-3.5204,-3.6126,-3.6308,-3.6794,-3.6941,-3.6941,-3.9472,-4.2371,-4.5656,-4.7987,-5.1051,-5.4023,-5.4023,-5.4023,-5.4023,-5.4023,-5.3761,-5.344,-5.3855,-5.3711,-5.3479,10.5787,10.5672,10.5787,10.6328,10.6713,10.7175,10.76,10.8367,10.9213,11.0094,11.0479,11.0786,11.0786,11.0402,10.9771,10.8904,10.7703,10.6844,10.6376,10.6376,10.6376,10.6376,10.6376,10.6406,10.6192,10.5619,10.4238,10.2003,10.0828,10.0372,10.0795,10.1611,10.2429,10.3218,10.401,10.4882,10.5672,10.6097,10.6614,10.7187,10.7304,10.7286,10.7207,10.6902,10.6597,10.6405,10.6405,10.6405,10.6405,10.6597,10.6521,10.6521,10.6713,10.6713,10.6719,10.7293,10.7407,10.7385,10.7387,10.7175,10.629,10.348,10.0839,9.7607,9.3371,8.8949,8.4264,7.8738,7.3404,6.824,6.3595,5.7732,5.1246,4.3252,3.7729,3.1492,2.2761,2.0308,1.6487,0.8612,0.6988,0.3674,-0.4133,-0.4966,-0.625,-0.9167,-1.0452,-1.2439,-1.5593,-1.9464,-2.304,-2.6103,-2.9534,-3.2586,-3.5265,-3.5992,-3.6313,-3.6445,-3.6706,-3.7451,-3.8709,-4.1031,-4.3931,-4.698,-4.9349,-5.1648,-5.3761,-5.3761,-5.378,-5.4023,-5.4023,-5.38,-5.3761,-5.4004,-5.38,-5.3741,10.679,10.6521,10.6405,10.6597,10.7175,10.7793,10.8024,10.9329,11.0209,11.0402,11.0978,11.1522,11.1522,11.0786,11.0286,11.0209,10.8779,10.7627,10.6654,10.6486,10.6497,10.659,10.657,10.7035,10.7811,10.6099,10.4533,10.3107,10.2128,10.2015,10.2711,10.3717,10.4516,10.5166,10.5992,10.6405,10.6521,10.6982,10.7197,10.7304,10.75,10.7394,10.7175,10.6905,10.6597,10.6405,10.6405,10.6405,10.6405,10.6405,10.6405,10.6405,10.6405,10.6405,10.6521,10.6982,10.7399,10.7513,10.7619,10.7181,10.5905,10.2404,9.9858,9.6861,9.1804,8.6957,8.2259,7.7938,7.1403,6.5461,6.1875,5.5554,4.833,4.0665,3.5408,2.8468,1.7665,1.5006,1.0364,0.0,-0.1147,-0.327,-0.9126,-0.9511,-1.1095,-1.4465,-1.4691,-1.7177,-2.2464,-2.5625,-2.7332,-2.7292,-3.0259,-3.311,-3.5702,-3.6693,-3.6954,-3.6679,-3.7202,-3.8695,-4.0737,-4.3052,-4.5708,-4.8693,-5.1124,-5.257,-5.3391,-5.3382,-5.3518,-5.4004,-5.4023,-5.4023,-5.4004,-5.4023,-5.4023,-5.4023,10.7716,10.6905,10.6597,10.7408,10.76,10.8175,10.9594,11.0017,11.0479,11.1214,11.1406,11.1522,11.1522,11.1406,11.0978,11.0286,10.9981,10.9086,10.7483,10.6827,10.6681,10.7441,10.7398,10.776,10.8672,10.6417,10.5108,10.4782,10.3326,10.2606,10.2673,10.4302,10.512,10.5166,10.5992,10.6521,10.679,10.7098,10.7313,10.75,10.7304,10.7199,10.7098,10.6713,10.6405,10.6405,10.6405,10.6405,10.6405,10.6405,10.6405,10.6405,10.6405,10.6405,10.6521,10.6982,10.7204,10.7303,10.7513,10.6182,10.4211,10.202,9.9384,9.6477,9.3237,8.7837,8.267,7.9573,7.2523,6.5972,6.2275,5.2698,4.3189,3.6866,2.6974,1.8178,1.2847,1.0383,0.6324,-0.0465,-0.0682,-0.3572,-1.1884,-1.2714,-1.4912,-2.0378,-2.0843,-2.2226,-2.5721,-2.8803,-3.0634,-3.0505,-3.3755,-3.5765,-3.6693,-3.9222,-3.9222,-3.6941,-3.9458,-4.0501,-4.0678,-4.3181,-4.577,-4.8637,-5.0977,-5.262,-5.331,-5.3418,-5.3479,-5.3498,-5.38,-5.378,-5.3498,-5.38,-5.4023,-5.4023,10.8024,10.7408,10.7175,10.76,10.8098,10.8787,11.0017,11.0594,11.0978,11.1406,11.1522,11.1522,11.1522,11.1522,11.1329,11.0863,11.0479,10.9907,10.9129,10.8184,10.7934,10.8311,10.8298,10.8504,10.8931,10.7408,10.6074,10.5193,10.4019,10.3428,10.34,10.4567,10.5397,10.5892,10.6189,10.6521,10.6794,10.7119,10.7286,10.7383,10.7187,10.7121,10.6905,10.6521,10.6405,10.6405,10.6405,10.6405,10.6405,10.6405,10.6405,10.6405,10.6405,10.6521,10.6713,10.7098,10.7399,10.75,10.6914,10.5612,10.3785,10.0596,9.7911,9.5348,9.2506,8.6377,8.0457,7.7771,7.0089,6.2018,5.5992,4.7755,3.9002,3.0016,2.2205,1.5127,0.8535,0.4966,0.0936,-0.4837,-0.7873,-1.1095,-1.5366,-1.7184,-1.9235,-2.1997,-2.2117,-2.4186,-2.8803,-3.0492,-3.2136,-3.3917,-3.541,-3.7155,-3.9208,-4.0501,-4.046,-3.929,-4.2213,-4.3102,-4.2683,-4.531,-4.7868,-5.0144,-5.1465,-5.2479,-5.3126,-5.332,-5.3498,-5.3683,-5.3844,-5.3983,-5.3761,-5.4004,-5.38,-5.3741,10.8482,10.8101,10.7985,10.8178,10.8829,10.9474,11.0402,11.1137,11.1522,11.1522,11.1522,11.1522,11.1522,11.1522,11.1522,11.1522,11.0863,11.0479,11.0479,10.9888,10.9376,10.9168,10.9424,10.9483,10.9483,10.8534,10.7397,10.6114,10.4982,10.4464,10.4584,10.5188,10.5831,10.6405,10.6521,10.6597,10.6912,10.7091,10.7187,10.7304,10.7215,10.7027,10.679,10.6521,10.6405,10.6405,10.6405,10.6405,10.6405,10.6405,10.6405,10.6405,10.6521,10.6597,10.6911,10.7194,10.7589,10.7617,10.6289,10.5301,10.3711,9.948,9.6805,9.45,9.1629,8.441,7.7842,7.5788,6.7482,5.8118,5.0527,4.3877,3.5697,2.4314,1.8606,1.2557,0.4381,0.0214,-0.4188,-1.0371,-1.4986,-1.8033,-1.8813,-2.1449,-2.3153,-2.3153,-2.386,-2.6586,-3.2114,-3.2361,-3.3588,-3.6158,-3.7176,-3.8709,-4.1252,-4.2568,-4.2933,-4.2195,-4.5098,-4.5989,-4.5308,-4.754,-4.9622,-5.1445,-5.1952,-5.2422,-5.2699,-5.3216,-5.3518,-5.3906,-5.3907,-5.3926,-5.38,-5.4023,-5.3761,-5.344,11.0017,10.9367,10.9104,10.9874,11.0098,11.0402,11.1329,11.1522,11.1522,11.1522,11.1522,11.1522,11.1522,11.1522,11.1522,11.1522,11.1406,11.1406,11.1406,11.1307,11.0868,11.0073,11.0907,11.1314,11.1314,10.9694,10.8819,10.8678,10.6995,10.6177,10.6224,10.6297,10.6276,10.6405,10.6713,10.6905,10.722,10.7208,10.7304,10.7496,10.6987,10.6835,10.679,10.6521,10.6405,10.6405,10.6405,10.6405,10.6405,10.6405,10.6405,10.6405,10.6713,10.679,10.6905,10.7387,10.7615,10.7383,10.6211,10.5301,10.3675,9.9442,9.6768,9.4427,9.1612,8.3075,7.5683,7.5427,6.6148,5.6376,5.0235,4.2243,3.3336,2.3323,1.5048,0.7516,0.0225,-0.2802,-0.7442,-1.6367,-1.7632,-1.8798,-2.1576,-2.4381,-2.6192,-2.6192,-2.8693,-3.1656,-3.5191,-3.5502,-3.6118,-3.6927,-3.9222,-4.0751,-4.1252,-4.6373,-4.7659,-4.5192,-4.8005,-4.904,-4.8193,-4.8447,-4.9622,-5.1445,-5.1952,-5.2344,-5.2762,-5.3178,-5.3479,-5.3479,-5.3887,-5.3683,-5.3498,-5.38,-5.3761,-5.3789,11.1522,11.0714,11.0175,11.1102,11.0714,11.0479,11.1406,11.1522,11.1522,11.1522,11.1522,11.1522,11.1522,11.1522,11.1522,11.1522,11.1522,11.1522,11.1522,11.1522,11.1377,11.1022,11.1339,11.1522,11.1522,11.0286,10.9528,10.8959,10.8331,10.7417,10.6397,10.6986,10.6905,10.6405,10.6713,10.6905,10.7207,10.7206,10.729,10.7301,10.6909,10.6713,10.6521,10.6405,10.6405,10.6405,10.6405,10.6405,10.6405,10.6405,10.6405,10.6405,10.6713,10.6902,10.7079,10.7491,10.7196,10.6589,10.5282,10.4713,10.3175,9.775,9.5768,9.4258,9.0707,8.232,7.4984,7.3294,6.2104,5.0049,4.2652,3.3908,2.5051,1.5431,0.8145,0.1945,-0.2566,-0.7275,-1.2032,-1.7262,-2.0947,-2.3527,-2.4807,-2.7568,-2.9167,-2.9167,-3.0233,-3.2275,-3.5725,-3.6268,-3.837,-4.2055,-4.3201,-4.374,-4.3786,-4.77,-4.9235,-4.8202,-5.0845,-5.0826,-4.8646,-5.0128,-5.094,-5.1445,-5.2205,-5.2461,-5.2712,-5.3498,-5.3761,-5.378,-5.4023,-5.4004,-5.378,-5.4023,-5.3761,-5.3769,11.2699,11.2117,11.1731,11.2303,11.1598,11.1137,11.1714,11.1791,11.1714,11.1598,11.1598,11.1598,11.1522,11.1522,11.1522,11.1522,11.1522,11.1522,11.1522,11.1522,11.1522,11.1522,11.1522,11.1522,11.1522,11.0863,11.0286,10.9825,10.9459,10.8583,10.7218,10.7481,10.7175,10.6405,10.679,10.7016,10.7187,10.7187,10.7215,10.7175,10.679,10.6597,10.6405,10.6405,10.6405,10.6405,10.6405,10.6405,10.6405,10.6405,10.6405,10.6521,10.679,10.7222,10.7383,10.7109,10.6702,10.5905,10.4211,10.3289,10.1597,9.6482,9.5178,9.3631,8.7588,7.9866,7.272,6.8253,5.6801,4.4779,3.5351,2.7683,1.9261,0.8171,0.2815,-0.1648,-0.6809,-1.1832,-1.6223,-2.0202,-2.4814,-2.7947,-2.7947,-3.1402,-3.2709,-3.0927,-3.2586,-3.4675,-3.7325,-3.9458,-4.2232,-4.5495,-4.7235,-4.7808,-4.6916,-4.9753,-5.1089,-5.107,-5.2607,-5.2097,-4.9789,-5.1444,-5.1932,-5.1465,-5.2266,-5.2676,-5.2712,-5.3741,-5.4023,-5.4023,-5.4023,-5.4023,-5.4023,-5.4023,-5.4062,-5.4674,11.3593,11.3593,11.3593,11.3622,11.2873,11.2295,11.2295,11.2295,11.2218,11.1911,11.1868,11.1791,11.1522,11.1522,11.1522,11.1522,11.1522,11.1522,11.1522,11.1522,11.1522,11.1522,11.1522,11.1522,11.1522,11.1522,11.1522,11.1522,11.0594,10.9825,10.8898,10.8098,10.7175,10.6405,10.6982,10.721,10.7187,10.7187,10.7215,10.7175,10.6597,10.6405,10.6405,10.6405,10.6405,10.6405,10.6405,10.6405,10.6405,10.6405,10.6405,10.6482,10.7023,10.761,10.7695,10.6289,10.5904,10.5405,10.3213,10.1096,9.8827,9.5905,9.5141,9.2372,8.2121,7.5073,6.8354,5.9732,5.081,4.0889,2.9551,2.481,1.7632,0.2587,0.0,-0.3053,-1.2603,-1.6145,-1.9921,-2.6192,-2.92,-3.0951,-3.0951,-3.6048,-3.7074,-3.13,-3.6142,-3.964,-4.0361,-4.5837,-4.803,-4.566,-5.103,-5.2674,-4.9771,-5.2655,-5.4023,-5.4023,-5.3664,-5.3074,-5.2732,-5.2245,-5.1932,-5.1484,-5.2344,-5.2684,-5.2712,-5.3741,-5.4023,-5.4023,-5.4023,-5.4023,-5.4023,-5.4023,-5.5096,-5.6781,11.5898,11.4804,11.4095,11.4684,11.3399,11.2307,11.2307,11.2307,11.2307,11.219,11.2174,11.2175,11.2099,11.1906,11.1791,11.1791,11.1598,11.1522,11.1522,11.1522,11.1791,11.2291,11.1791,11.1522,11.1522,11.1522,11.1522,11.1522,11.1214,11.0671,10.9825,10.8867,10.8485,10.8485,10.76,10.7599,10.8281,10.75,10.7215,10.7175,10.6597,10.6405,10.6405,10.6405,10.6405,10.6405,10.6405,10.6405,10.6405,10.6405,10.6405,10.6487,10.7013,10.7613,10.7695,10.6289,10.5514,10.4599,10.2366,10.0904,9.9211,9.6021,9.2052,8.7341,8.1124,7.3003,6.465,5.6265,4.4325,3.2932,2.5572,1.4798,0.5404,0.0942,-0.5394,-1.1131,-1.5884,-1.9115,-2.3198,-2.8897,-3.0434,-3.1656,-3.3767,-3.7155,-3.8605,-3.6867,-4.0294,-4.3458,-4.608,-4.6147,-4.7773,-5.1444,-5.1218,-5.1575,-5.2693,-5.3518,-5.4023,-5.4023,-5.3164,-5.2777,-5.2601,-5.1894,-5.1758,-5.1851,-5.236,-5.2924,-5.3236,-5.378,-5.4023,-5.4023,-5.4023,-5.4023,-5.4023,-5.4023,-5.5155,-5.6983,11.6914,11.5703,11.4883,11.5781,11.4101,11.2812,11.3086,11.289,11.2617,11.25,11.2485,11.2427,11.2311,11.2189,11.2099,11.2099,11.1791,11.1714,11.1714,11.1906,11.2291,11.2988,11.2791,11.2599,11.2526,11.2526,11.2526,11.2603,11.2526,11.2099,11.1406,11.041,10.9678,10.9299,10.822,10.801,10.8281,10.75,10.7215,10.7175,10.6597,10.6405,10.6405,10.6405,10.6405,10.6405,10.6405,10.6405,10.6405,10.6405,10.6521,10.6792,10.7192,10.7695,10.7695,10.5898,10.5086,10.4099,10.1597,9.961,9.7301,9.3402,8.9821,8.5235,7.7631,6.9451,6.0091,4.8387,3.7125,2.6461,1.7361,0.7054,-0.1177,-0.4689,-1.0876,-1.6419,-1.9065,-2.4056,-2.8317,-3.0564,-3.2834,-3.4873,-3.6747,-3.929,-4.1432,-4.236,-4.4295,-4.6328,-4.852,-4.814,-4.9786,-5.38,-5.2306,-5.2306,-5.4023,-5.4023,-5.4023,-5.4023,-5.3301,-5.2812,-5.2698,-5.1953,-5.1737,-5.2185,-5.2617,-5.2866,-5.3488,-5.3926,-5.4023,-5.4023,-5.4023,-5.3906,-5.3711,-5.3816,-5.4882,-5.6527,11.7109,11.6406,11.6015,11.6797,11.4883,11.3593,11.4297,11.3711,11.3086,11.2812,11.2695,11.2695,11.2383,11.241,11.2272,11.2272,11.211,11.1906,11.1906,11.2526,11.3104,11.3681,11.433,11.4522,11.4297,11.4181,11.4181,11.4417,11.4198,11.3813,11.3296,11.2099,11.0791,10.9493,10.8796,10.8203,10.7695,10.7383,10.7215,10.7175,10.6597,10.6405,10.6405,10.6405,10.6405,10.6405,10.6405,10.6405,10.6405,10.6521,10.6795,10.7189,10.752,10.7695,10.7383,10.5312,10.4619,10.383,10.0904,9.7478,9.3659,8.9343,8.7449,8.361,7.207,6.4562,5.4975,3.7824,2.972,2.1487,0.7067,0.1645,-0.3506,-1.2557,-1.6358,-1.9441,-2.3057,-2.9991,-3.4006,-3.1893,-3.6453,-3.9644,-3.9281,-4.1932,-4.4807,-4.7564,-4.778,-4.8107,-4.8871,-5.1439,-5.3086,-5.3945,-5.4004,-5.4023,-5.4023,-5.4023,-5.4023,-5.4023,-5.3574,-5.3144,-5.2754,-5.2324,-5.2168,-5.2226,-5.2598,-5.3008,-5.3457,-5.3867,-5.4023,-5.4023,-5.4023,-5.3711,-5.3404,-5.3349,-5.4524,-5.5787,11.8008,11.7304,11.6601,11.6093,11.5,11.4101,11.3593,11.3281,11.3203,11.3086,11.3086,11.3086,11.3008,11.2785,11.2618,11.2618,11.2398,11.2175,11.2175,11.2988,11.3796,11.4599,11.5407,11.6099,11.6721,11.5407,11.4714,11.483,11.4683,11.4506,11.4093,11.2511,11.1824,11.1609,10.942,10.8711,10.8906,10.7695,10.7215,10.7175,10.6597,10.6405,10.6405,10.6405,10.6405,10.6405,10.6405,10.6521,10.6713,10.6982,10.7119,10.7208,10.7496,10.7187,10.6484,10.5117,10.3588,10.1981,9.9865,9.5346,9.0629,8.8043,8.0682,7.2014,6.4448,5.9177,5.0758,3.1993,2.5151,1.8268,0.3772,-0.3441,-0.9212,-1.5759,-1.933,-2.39,-3.1154,-3.3646,-3.5522,-3.7338,-4.045,-4.1659,-3.9561,-4.3624,-4.7689,-5.0413,-5.0608,-5.0839,-5.1358,-5.2122,-5.2949,-5.3496,-5.3848,-5.4023,-5.4023,-5.4023,-5.4023,-5.4023,-5.3574,-5.332,-5.3203,-5.2773,-5.2754,-5.3086,-5.3183,-5.3476,-5.3887,-5.3984,-5.4023,-5.4023,-5.4023,-5.375,-5.3482,-5.341,-5.4501,-5.5672,11.8281,11.7617,11.6914,11.6406,11.5312,11.4297,11.3906,11.3515,11.3203,11.3203,11.3203,11.3203,11.3203,11.3008,11.289,11.2695,11.2592,11.2495,11.2495,11.3606,11.462,11.5336,11.6391,11.7279,11.7785,11.7007,11.6501,11.6307,11.6196,11.5992,11.5777,11.451,11.3786,11.3381,11.1019,10.9883,10.9804,10.8008,10.7215,10.7175,10.6597,10.6405,10.6405,10.6405,10.6405,10.6405,10.6405,10.6608,10.6803,10.71,10.7316,10.7383,10.7695,10.7187,10.6204,10.5009,10.3297,10.1433,9.9509,9.5611,9.0816,8.5759,7.8192,6.998,6.2175,5.3467,4.2587,2.7333,1.8336,0.9751,-0.188,-0.9124,-1.4912,-1.9228,-2.472,-2.989,-3.4319,-3.8253,-4.0854,-4.1097,-4.3636,-4.4715,-4.3373,-4.6807,-4.9806,-5.1231,-5.1426,-5.1621,-5.2051,-5.2285,-5.2695,-5.334,-5.3594,-5.3808,-5.4023,-5.4023,-5.4023,-5.4023,-5.3789,-5.3574,-5.3359,-5.3125,-5.3144,-5.3359,-5.3359,-5.3613,-5.4023,-5.4023,-5.4023,-5.4023,-5.4023,-5.3633,-5.3027,-5.3152,-5.3311,-5.3858,11.8281,11.7617,11.6992,11.6797,11.5508,11.4414,11.4297,11.3711,11.3203,11.3203,11.3203,11.3203,11.3203,11.3203,11.3086,11.2812,11.2812,11.2812,11.2812,11.4218,11.532,11.5779,11.7183,11.8086,11.8281,11.8281,11.8203,11.8008,11.7695,11.75,11.7499,11.6694,11.5776,11.4883,11.2705,11.1289,11.0508,10.8281,10.7293,10.7175,10.6597,10.6405,10.6405,10.6521,10.6405,10.6405,10.6521,10.6576,10.69,10.722,10.75,10.7617,10.789,10.7187,10.599,10.5008,10.3084,10.1039,9.9456,9.6021,9.096,8.2763,7.6511,6.9661,5.9121,4.7047,3.4319,2.0751,1.0563,0.0907,-0.984,-1.5572,-1.9883,-2.369,-3.0772,-3.5795,-3.6204,-4.2773,-4.6604,-4.4199,-4.636,-4.796,-4.7978,-5.0569,-5.1794,-5.1426,-5.1426,-5.1582,-5.1953,-5.2051,-5.26,-5.3686,-5.3463,-5.3737,-5.4496,-5.4188,-5.4023,-5.4023,-5.4023,-5.3828,-5.3476,-5.3476,-5.3476,-5.3476,-5.3476,-5.3691,-5.4023,-5.4023,-5.4023,-5.4023,-5.4023,-5.3535,-5.2812,-5.2656,-5.2286,-5.2335,11.8281,11.7617,11.6797,11.6093,11.5195,11.4218,11.3515,11.3281,11.3203,11.3203,11.3203,11.3203,11.3203,11.3203,11.3203,11.3086,11.3086,11.3086,11.3086,11.4687,11.57,11.5787,11.7417,11.8281,11.8281,11.8281,11.8281,11.8203,11.8203,11.8086,11.7812,11.6888,11.6112,11.5207,11.3318,11.1797,11.0508,10.8984,10.7917,10.7175,10.6597,10.6405,10.6405,10.6713,10.6597,10.6405,10.6713,10.6796,10.6912,10.7586,10.7803,10.7617,10.789,10.6719,10.5209,10.4783,10.2294,9.9646,9.909,9.3663,8.6549,7.9805,7.1935,6.1414,4.4948,3.9675,3.1509,0.7751,0.3804,-0.1358,-2.0168,-2.2284,-2.3864,-3.1771,-3.6238,-3.9404,-4.1833,-4.5133,-4.7351,-4.6889,-4.9053,-5.064,-5.094,-5.3064,-5.3638,-5.162,-5.1426,-5.1465,-5.1523,-5.1875,-5.3071,-5.542,-5.4105,-5.4344,-5.6511,-5.4802,-5.4023,-5.4023,-5.4023,-5.4004,-5.3945,-5.3945,-5.3945,-5.3945,-5.3945,-5.3965,-5.4023,-5.4023,-5.4023,-5.4023,-5.4023,-5.373,-5.3183,-5.2441,-5.3141,-5.4358,11.8281,11.7617,11.6718,11.5898,11.5117,11.4218,11.3281,11.3203,11.3203,11.3203,11.3203,11.3203,11.3203,11.3203,11.3203,11.3203,11.3203,11.3203,11.3203,11.4804,11.5703,11.5781,11.7383,11.8281,11.8281,11.8281,11.8203,11.8086,11.8203,11.8086,11.7617,11.7612,11.6884,11.5703,11.4297,11.2812,11.1211,10.9492,10.8111,10.7175,10.679,10.6521,10.6405,10.6521,10.6597,10.6597,10.679,10.6975,10.7277,10.7483,10.7695,10.7812,10.7383,10.6289,10.4897,10.3737,10.1464,9.9113,9.7634,9.3933,8.8146,7.8963,7.2119,6.1715,3.8457,3.2194,2.5338,0.4251,-0.1544,-0.7628,-2.2987,-2.6296,-2.8757,-3.5585,-4.0739,-4.4243,-4.5505,-4.7887,-5.0185,-5.1454,-5.2647,-5.3316,-5.3406,-5.5659,-5.5492,-5.162,-5.272,-5.2912,-5.1426,-5.1621,-5.2947,-5.5808,-5.3762,-5.4025,-5.6997,-5.4704,-5.3789,-5.4023,-5.5386,-5.6172,-5.6172,-5.4615,-5.4798,-5.6172,-5.4615,-5.4023,-5.4023,-5.4023,-5.4023,-5.4227,-5.5588,-5.5724,-5.5013,-5.2877,-5.2558,-5.3084]},{"header":{"parameterUnit":"m.s-1","parameterCategory":1,"la1":30.6,"la2":28.766,"lo1":-90.7593,"lo2":-88.6598,"dx":0.0162,"dy":0.0183,"nx":116,"ny":114,"refTime":"2022-11-21T18:00:00:Z","depth":0,"parameterNumber":3,"parameterNumberName":"V-component_of_WINDS"},"data":[0.0,0.0,0.0,0.0,0.0,0.0,0.0,0.0,0.0,0.0,0.0,0.0,0.0,0.0,0.0,0.0,0.0,0.0,0.0,0.0,0.0,0.0,0.0,0.0,0.0,0.0,0.0,0.0,0.0,0.0,0.0,0.0,0.0,0.0,0.0,0.0,0.0,0.0,0.0,0.0,0.0,0.0,0.0,0.0,0.0,0.0,0.0,0.0,0.0,0.0,0.0,0.0,0.0,0.0,0.0,0.0,0.0,0.0,0.0,0.0,0.0,0.0,0.0,0.0,0.0,0.0,0.0,0.0,0.0,0.0,0.0,0.0,0.0,0.0,0.0,0.0,0.0,0.0,0.0,0.0,0.0,0.0,0.0,0.0,0.0,0.0,0.0,0.0,0.0,0.0,0.0,0.0,0.0,0.0,0.0,0.0,0.0,0.0,0.0,0.0,0.0,0.0,0.0,0.0,0.0,0.0,0.0,0.0,0.0,0.0,0.0,0.0,0.0,0.0,0.0,0.0,0.0,0.0,0.0,0.0,0.0,0.0,0.0,0.0,0.0,0.0,0.0,0.0,0.0,0.0,0.0,0.0,0.0,0.0,0.0,0.0,0.0,0.0,0.0,0.0,0.0,0.0,0.0,0.0,0.0,0.0,0.0,0.0,0.0,0.0,0.0,0.0,0.0,0.0,0.0,0.0,0.0,0.0,0.0,0.0,0.0,0.0,0.0,0.0,0.0,0.0,0.0,0.0,0.0,0.0,0.0,0.0,0.0,0.0,0.0,0.0,0.0,0.0,0.0,0.0,0.0,0.0,0.0,0.0,0.0,0.0,0.0,0.0,0.0,0.0,0.0,0.0,0.0,0.0,0.0,0.0,0.0,0.0,0.0,0.0,0.0,0.0,0.0,0.0,0.0,0.0,0.0,0.0,0.0,0.0,0.0,0.0,0.0,0.0,0.0,0.0,0.0,0.0,0.0,0.0,0.0,0.0,0.0,0.0,0.0,0.0,0.0,0.0,0.0,0.0,0.0,0.0,0.0,0.0,0.0,0.0,0.0,0.0,0.0,0.0,0.0,0.0,0.0,0.0,0.0,0.0,0.0,0.0,0.0,0.0,0.0,0.0,0.0,0.0,0.0,0.0,0.0,0.0,0.0,0.0,0.0,0.0,0.0,0.0,0.0,0.0,0.0,0.0,0.0,0.0,0.0,0.0,0.0,0.0,0.0,0.0,0.0,0.0,0.0,0.0,0.0,0.0,0.0,0.0,0.0,0.0,0.0,0.0,0.0,0.0,0.0,0.0,0.0,0.0,0.0,0.0,0.0,0.0,0.0,0.0,0.0,0.0,0.0,0.0,0.0,0.0,0.0,0.0,0.0,0.0,0.0,0.0,0.0,0.0,0.0,0.0,0.0,0.0,0.0,0.0,0.0,0.0,0.0,0.0,0.0,0.0,0.0,0.0,0.0,0.0,0.0,0.0,0.0,0.0,0.0,0.0,0.0,0.0,0.0,0.0,0.0,0.0,0.0,0.0,0.0,0.0,0.0,0.0,0.0,0.0,0.0,0.0,0.0,0.0,0.0,0.0,0.0,0.0,0.0,0.0,0.0,0.0,0.0,0.0,0.0,0.0,0.0,0.0,0.0,0.0,0.0,0.0,0.0,0.0,0.0,0.0,0.0,0.0,0.0,0.0,0.0,0.0,0.0,0.0,0.0,0.0,0.0,0.0,0.0,0.0,0.0,0.0,0.0,0.0,0.0,0.0,0.0,0.0,0.0,0.0,0.0,0.0,0.0,0.0,0.0,0.0,0.0,0.0,0.0,0.0,0.0,0.0,0.0,0.0,0.0,0.0,0.0,0.0,0.0,0.0,0.0,0.0,0.0,0.0,0.0,0.0,0.0,0.0,0.0,0.0,0.0,0.0,0.0,0.0,0.0,0.0,0.0,0.0,0.0,0.0,0.0,0.0,0.0,0.0,0.0,0.0,0.0,0.0,0.0,0.0,0.0,0.0,0.0,0.0,0.0,0.0,0.0,0.0,0.0,0.0,0.0,0.0,0.0,0.0,0.0,0.0,0.0,0.0,0.0,0.0,0.0,0.0,0.0,0.0,0.0,0.0,0.0,0.0,0.0,0.0,0.0,0.0,0.0,0.0,0.0,0.0,0.0,0.0,0.0,0.0,0.0,0.0,0.0,0.0,0.0,0.0,0.0,0.0,0.0,0.0,0.0,0.0,0.0,0.0,0.0,0.0,0.0,0.0,0.0,0.0,0.0,0.0,0.0,0.0,0.0,0.0,0.0,0.0,0.0,0.0,0.0,0.0,0.0,0.0,0.0,0.0,0.0,0.0,0.0,0.0,0.0,0.0,0.0,0.0,0.0,0.0,0.0,0.0,0.0,0.0,0.0,0.0,0.0,0.0,0.0,0.0,0.0,0.0,0.0,0.0,0.0,0.0,0.0,0.0,0.0,0.0,0.0,0.0,0.0,0.0,0.0,0.0,0.0,0.0,0.0,0.0,0.0,0.0,0.0,0.0,0.0,0.0,0.0,0.0,0.0,0.0,0.0,0.0,0.0,0.0,0.0,0.0,0.0,0.0,0.0,0.0,0.0,0.0,0.0,0.0,0.0,0.0,0.0,0.0,0.0,0.0,0.0,0.0,0.0,0.0,0.0,0.0,0.0,0.0,0.0,0.0,0.0,0.0,0.0,0.0,0.0,0.0,0.0,0.0,0.0,0.0,0.0,0.0,0.0,0.0,0.0,0.0,0.0,0.0,0.0,0.0,0.0,0.0,0.0,0.0,0.0,0.0,0.0,0.0,0.0,0.0,0.0,0.0,0.0,0.0,0.0,0.0,0.0,0.0,0.0,0.0,0.0,0.0,0.0,0.0,0.0,0.0,0.0,0.0,0.0,0.0,0.0,0.0,0.0,0.0,0.0,0.0,0.0,0.0,0.0,0.0,0.0,0.0,0.0,0.0,0.0,0.0,0.0,0.0,0.0,0.0,0.0,0.0,0.0,0.0,0.0,0.0,0.0,0.0,0.0,0.0,0.0,0.0,0.0,0.0,0.0,0.0,0.0,0.0,0.0,0.0,0.0,0.0,0.0,0.0,0.0,0.0,0.0,0.0,0.0,0.0,0.0,0.0,0.0,0.0,0.0,0.0,0.0,0.0,0.0,0.0,0.0,0.0,0.0,0.0,0.0,0.0,0.0,0.0,0.0,0.0,0.0,0.0,0.0,0.0,0.0,0.0,0.0,0.0,0.0,0.0,0.0,0.0,0.0,0.0,0.0,0.0,0.0,0.0,0.0,0.0,0.0,0.0,0.0,0.0,0.0,0.0,0.0,0.0,0.0,0.0,0.0,0.0,0.0,0.0,0.0,0.0,0.0,0.0,0.0,0.0,0.0,0.0,0.0,0.0,0.0,0.0,0.0,0.0,0.0,0.0,0.0,0.0,0.0,0.0,0.0,0.0,0.0,0.0,0.0,0.0,0.0,0.0,0.0,0.0,0.0,0.0,0.0,0.0,0.0,0.0,0.0,0.0,0.0,0.0,0.0,0.0,0.0,0.0,0.0,0.0,0.0,0.0,0.0,0.0,0.0,0.0,0.0,0.0,0.0,0.0,0.0,0.0,0.0,0.0,0.0,0.0,0.0,0.0,0.0,0.0,0.0,0.0,0.0,0.0,0.0,0.0,0.0,0.0,0.0,0.0,0.0,0.0,0.0,0.0,0.0,0.0,0.0,0.0,0.0,0.0,0.0,0.0,0.0,0.0,0.0,0.0,0.0,0.0,0.0,0.0,0.0,0.0,0.0,0.0,0.0,0.0,0.0,0.0,0.0,0.0,0.0,0.0,0.0,0.0,0.0,0.0,0.0,0.0,0.0,0.0,0.0,0.0,0.0,0.0,0.0,0.0,0.0,0.0,0.0,0.0,0.0,0.0,0.0,0.0,0.0,0.0,0.0,0.0,0.0,0.0,0.0,0.0,0.0,0.0,0.0,0.0,0.0,0.0,0.0,0.0,0.0,0.0,0.0,0.0,0.0,0.0,0.0,0.0,0.0,0.0,0.0,0.0,0.0,0.0,0.0,0.0,0.0,0.0,0.0,0.0,0.0,0.0,0.0,0.0,0.0,0.0,0.0,0.0,0.0,0.0,0.0,0.0,0.0,0.0,0.0,0.0,0.0,0.0,0.0,0.0,0.0,0.0,0.0,0.0,0.0,0.0,0.0,0.0,0.0,0.0,0.0,0.0,0.0,0.0,0.0,0.0,0.0,0.0,0.0,0.0,0.0,0.0,0.0,0.0,0.0,0.0,0.0,0.0,0.0,0.0,0.0,0.0,0.0,0.0,0.0,0.0,0.0,0.0,0.0,0.0,0.0,0.0,0.0,0.0,0.0,0.0,0.0,0.0,0.0,0.0,0.0,0.0,0.0,0.0,0.0,0.0,0.0,0.0,0.0,0.0,0.0,0.0,0.0,0.0,0.0,0.0,0.0,0.0,0.0,0.0,0.0,0.0,0.0,0.0,0.0,0.0,0.0,0.0,0.0,0.0,0.0,0.0,0.0,0.0,0.0,0.0,0.0,0.0,0.0,0.0,0.0,0.0,0.0,0.0,0.0,0.0,0.0,0.0,0.0,0.0,0.0,0.0,0.0,0.0,0.0,0.0,0.0,0.0,0.0,0.0,0.0,0.0,0.0,0.0,0.0,0.0,0.0,0.0,0.0,0.0,0.0,0.0,0.0,0.0,0.0,0.0,0.0,0.0,0.0,0.0,0.0,0.0,0.0,0.0,0.0,0.0,0.0,0.0,0.0,0.0,0.0,0.0,0.0,0.0,0.0,0.0,0.0,0.0,0.0,0.0,0.0,0.0,0.0,0.0,0.0,0.0,0.0,0.0,0.0,0.0,0.0,0.0,0.0,0.0,0.0,0.0,0.0,0.0,0.0,0.0,0.0,0.0,0.0,0.0,0.0,0.0,0.0,0.0,0.0,0.0,0.0,0.0,0.0,0.0,0.0,0.0,0.0,0.0,0.0,0.0,0.0,0.0,0.0,0.0,0.0,0.0,0.0,0.0,0.0,0.0,0.0,0.0,0.0,0.0,0.0,0.0,0.0,0.0,0.0,0.0,0.0,0.0,0.0,0.0,0.0,0.0,0.0,0.0,0.0,0.0,0.0,0.0,0.0,0.0,0.0,0.0,0.0,0.0,0.0,0.0,0.0,0.0,0.0,0.0,0.0,0.0,0.0,0.0,0.0,0.0,0.0,0.0,0.0,0.0,0.0,0.0,0.0,0.0,0.0,0.0,0.0,0.0,0.0,0.0,0.0,0.0,0.0,0.0,0.0,0.0,0.0,0.0,0.0,0.0,0.0,0.0,0.0,0.0,0.0,0.0,0.0,0.0,0.0,0.0,0.0,0.0,0.0,0.0,0.0,0.0,0.0,0.0,0.0,0.0,0.0,0.0,0.0,0.0,0.0,0.0,0.0,0.0,0.0,0.0,0.0,0.0,0.0,0.0,0.0,0.0,0.0,0.0,0.0,0.0,0.0,0.0,0.0,0.0,0.0,0.0,0.0,0.0,0.0,0.0,0.0,0.0,0.0,0.0,0.0,0.0,0.0,0.0,0.0,0.0,0.0,0.0,0.0,0.0,0.0,0.0,0.0,0.0,0.0,0.0,0.0,0.0,0.0,0.0,0.0,0.0,0.0,0.0,0.0,0.0,0.0,0.0,0.0,0.0,0.0,0.0,0.0,0.0,0.0,0.0,0.0,0.0,0.0,0.0,0.0,0.0,0.0,0.0,0.0,0.0,0.0,0.0,0.0,0.0,0.0,0.0,0.0,0.0,0.0,0.0,0.0,0.0,0.0,0.0,0.0,0.0,0.0,0.0,0.0,0.0,0.0,0.0,0.0,0.0,0.0,0.0,0.0,0.0,0.0,0.0,0.0,0.0,0.0,0.0,0.0,0.0,0.0,0.0,0.0,0.0,0.0,0.0,0.0,0.0,0.0,0.0,0.0,0.0,0.0,0.0,0.0,0.0,0.0,0.0,0.0,0.0,0.0,0.0,0.0,0.0,0.0,0.0,0.0,0.0,0.0,0.0,0.0,0.0,0.0,0.0,3.7054,3.3024,0.0,0.0,0.0,0.0,0.0,0.0,0.0,0.0,0.0,0.0,0.0,0.0,0.0,0.0,0.0,0.0,0.0,0.0,0.0,0.0,0.0,0.0,0.0,0.0,0.0,0.0,0.0,0.0,0.0,0.0,0.0,0.0,0.0,0.0,0.0,0.0,1.6238,1.7076,2.0181,2.3497,2.6885,2.6784,2.4897,2.1545,0.0,0.0,0.0,0.0,0.0,0.0,0.0,0.0,0.0,0.0,0.0,0.0,0.0,0.0,0.0,0.0,0.0,0.0,0.0,0.0,0.0,0.0,0.0,0.0,0.0,0.0,0.0,0.0,0.0,0.0,0.0,0.0,0.0,0.0,0.0,0.0,0.0,0.0,0.0,0.0,0.0,0.0,0.0,0.0,0.0,0.0,0.0,0.0,0.0,0.0,0.0,0.0,0.0,0.0,0.0,0.0,0.0,0.0,0.0,0.0,0.0,0.0,0.0,0.0,0.0,0.0,0.0,0.0,0.0,0.0,4.4967,4.0274,0.0,0.0,0.0,0.0,0.0,0.0,0.0,0.0,0.0,0.0,0.0,0.0,0.0,0.0,0.0,0.0,0.0,0.0,0.0,0.0,0.0,0.0,0.0,1.4474,1.4857,1.5519,1.561,1.5174,0.0,0.0,0.0,0.0,0.0,0.0,1.4005,1.5498,1.6619,1.7402,2.2665,2.8237,3.3859,3.445,3.1574,2.5857,2.4422,0.0,0.0,0.0,0.0,0.0,0.0,0.0,0.0,0.0,0.0,0.0,0.0,0.0,0.0,0.0,0.0,0.0,0.0,0.0,0.0,0.0,0.0,0.0,0.0,0.0,0.0,0.0,0.0,0.0,0.0,0.0,0.0,0.0,0.0,0.0,0.0,0.0,0.0,0.0,0.0,0.0,0.0,0.0,0.0,0.0,0.0,0.0,0.0,0.0,0.0,0.0,0.0,0.0,0.0,0.0,0.0,0.0,0.0,0.0,0.0,0.0,0.0,0.0,5.6809,5.7755,5.8457,5.8881,5.8762,5.8049,5.4515,4.983,4.466,4.4163,0.0,0.0,0.0,0.0,0.0,0.0,0.0,0.0,0.0,0.0,0.0,0.0,0.0,0.0,0.0,0.0,0.0,0.0,0.0,0.0,0.0,1.4391,1.4849,1.5858,1.5953,1.5702,1.5163,0.0,0.0,0.0,0.0,1.38,1.4321,1.5997,1.8788,2.2727,2.887,3.2935,3.4901,3.5494,3.5602,3.506,3.2961,2.9715,2.5657,0.0,0.0,0.0,0.0,0.0,0.0,0.0,0.0,0.0,0.0,0.0,0.0,0.0,0.0,0.0,0.0,0.0,0.0,0.0,0.0,0.0,0.0,0.0,0.0,0.0,0.0,0.0,0.0,0.0,0.0,0.0,0.0,0.0,0.0,0.0,0.0,0.0,0.0,0.0,0.0,0.0,4.6725,4.2595,0.0,0.0,0.0,0.0,0.0,0.0,0.0,0.0,0.0,0.0,0.0,0.0,0.0,5.6458,5.7207,5.7629,5.8254,5.905,6.2034,6.3655,6.4092,6.6521,6.7368,6.688,6.6492,0.0,5.1756,4.7705,0.0,0.0,0.0,0.0,0.0,0.0,0.0,0.0,0.0,0.0,0.0,0.0,0.0,0.0,0.0,0.0,0.0,0.0,0.0,0.0,0.0,1.5504,1.6719,1.741,1.8777,1.8818,1.6958,1.6779,0.0,0.0,1.4143,1.4573,1.5342,1.8693,2.3976,3.115,3.4817,3.8216,4.1205,4.2107,4.2478,4.2345,4.1059,3.686,3.0493,2.6437,0.0,0.0,0.0,0.0,0.0,0.0,0.0,0.0,0.0,0.0,0.0,0.0,0.0,0.0,0.0,0.0,0.0,0.0,0.0,0.0,0.0,0.0,0.0,0.0,0.0,0.0,0.0,0.0,0.0,0.0,0.0,0.0,0.0,0.0,0.0,0.0,0.0,0.0,0.0,4.3896,4.4766,4.148,4.3052,4.3183,0.0,0.0,0.0,0.0,0.0,0.0,0.0,0.0,0.0,5.6628,6.1426,6.4098,6.4432,6.7152,6.8643,6.8897,7.0837,7.2045,7.2663,7.3606,7.3673,7.31,7.288,7.0032,6.5057,5.9359,5.5798,5.3659,0.0,0.0,0.0,0.0,4.056,4.0134,0.0,0.0,0.0,0.0,0.0,0.0,0.0,0.0,0.0,0.0,0.0,0.0,1.4948,1.7619,1.9639,2.0481,2.2553,2.2534,1.9651,1.9646,1.836,1.5226,1.5467,1.611,1.6983,2.2722,2.9809,3.8005,4.0301,4.3148,4.6404,4.7392,4.7704,4.7418,4.656,4.2268,3.5249,2.9965,2.6986,2.5441,0.0,0.0,0.0,0.0,0.0,0.0,0.0,0.0,0.0,0.0,0.0,0.0,0.0,0.0,0.0,0.0,0.0,0.0,0.0,0.0,0.0,0.0,0.0,0.0,0.0,0.0,0.0,0.0,0.0,0.0,0.0,0.0,0.0,0.0,0.0,0.0,0.0,4.6525,4.4258,4.2135,4.519,4.6419,0.0,0.0,0.0,0.0,0.0,0.0,5.4065,5.9386,6.3147,6.4698,6.9243,7.1705,7.1848,7.5346,7.7095,7.707,7.7726,7.844,7.9169,7.8588,7.7984,7.7304,7.6993,7.644,7.5359,6.8898,6.4457,6.1545,5.9771,5.8478,5.6769,4.9771,4.5094,4.2678,0.0,0.0,0.0,0.0,0.0,0.0,0.0,0.0,0.0,0.0,0.0,1.7179,1.8259,2.1113,2.374,2.568,2.6842,2.6275,2.3511,2.305,2.1351,1.7943,1.7962,1.8463,1.9295,2.8387,3.5671,4.1071,4.4828,4.7104,4.7831,4.8435,4.8989,4.9391,4.7806,4.4231,3.9118,3.5011,3.2175,2.9764,2.2574,0.0,0.0,0.0,0.0,0.0,0.0,0.0,0.0,0.0,0.0,0.0,0.0,0.0,0.0,0.0,0.0,0.0,0.0,0.0,0.0,0.0,0.0,0.0,0.0,0.0,0.0,0.0,0.0,0.0,0.0,0.0,0.0,0.0,0.0,0.0,0.0,0.0,0.0,4.9674,5.1471,0.0,0.0,0.0,0.0,6.0113,6.0752,6.1493,6.2797,6.7792,7.1068,7.2119,7.6526,7.9176,7.9804,7.9499,7.952,7.9896,7.9935,8.0306,8.0977,8.0348,7.9733,7.9076,7.9224,7.8961,7.7892,7.1394,6.8605,6.8017,6.4075,6.0076,5.6523,5.7047,5.1368,4.5534,0.0,0.0,0.0,0.0,0.0,0.8804,0.8804,0.9315,1.0077,1.121,1.4459,1.7333,1.9198,2.4645,2.8301,2.8733,3.1642,3.1864,2.8078,2.6227,2.3795,2.0647,1.9474,2.2062,2.8872,3.6015,4.1813,4.6125,4.8234,4.9163,4.9012,5.0664,5.145,5.1242,5.0617,4.9343,4.7288,4.0458,3.686,3.5182,2.9852,2.5901,0.0,0.0,0.0,0.0,0.0,0.0,0.0,0.0,0.0,0.0,0.0,0.0,0.0,0.0,0.0,0.0,0.0,0.0,0.0,0.0,0.0,0.0,0.0,0.0,0.0,0.0,0.0,0.0,0.0,0.0,0.0,0.0,0.0,0.0,0.0,0.0,0.0,5.8277,6.0214,0.0,5.9273,5.9307,6.0475,6.2988,6.6413,6.8844,6.9887,7.492,7.8176,7.9055,8.0922,8.2221,8.2851,8.3331,8.3494,8.3406,8.3924,8.4248,8.4324,8.4114,8.3639,8.2955,8.2659,8.2254,8.1556,7.8651,7.6179,7.4042,7.1878,7.0496,6.9362,6.519,6.3005,6.3555,0.0,0.0,0.0,0.0,0.8804,0.8725,0.8549,0.9233,1.0437,1.2332,1.5998,1.9516,2.2344,2.8244,3.2076,3.2552,3.6244,3.6295,3.1175,2.9725,2.7254,2.3092,2.338,2.7992,3.7283,4.1422,4.5422,4.9314,5.0268,5.0619,5.0444,5.1923,5.262,5.2412,5.2022,5.2093,5.2226,4.5809,4.2227,4.0434,3.5561,3.1065,2.6838,0.0,0.0,0.0,0.0,0.0,0.0,0.0,0.0,0.0,0.0,0.0,0.0,0.0,0.0,0.0,0.0,0.0,0.0,0.0,0.0,0.0,0.0,0.0,0.0,0.0,0.0,0.0,0.0,0.0,0.0,0.0,0.0,0.0,0.0,4.9422,5.7728,6.2811,6.5639,6.6671,6.5351,6.5798,6.711,6.9427,7.3122,7.5654,7.6498,8.0396,8.2857,8.3359,8.4028,8.4584,8.498,8.5818,8.6066,8.5727,8.634,8.6635,8.6662,8.6274,8.5892,8.5537,8.503,8.4167,8.3,8.2462,8.0919,7.8849,7.8098,7.826,7.84,7.3685,7.358,7.6415,0.0,0.0,0.0,0.8804,0.8804,0.8631,0.8046,0.9615,1.192,1.4728,1.9512,2.4012,2.7921,3.1797,3.5051,3.6891,4.0083,3.9132,3.2546,3.3401,3.1437,2.5224,2.9819,3.6038,4.374,4.4518,4.6728,5.0519,5.1071,5.1649,5.2176,5.2151,5.2563,5.2904,5.1934,5.2305,5.3678,5.0844,4.8244,4.527,3.95,3.5459,3.2537,0.0,0.0,0.0,0.0,0.0,0.0,0.0,0.0,0.0,0.0,0.0,0.0,0.0,0.0,0.0,0.0,0.0,0.0,0.0,0.0,0.0,0.0,0.0,0.0,0.0,0.0,0.0,0.0,0.0,0.0,0.0,0.0,0.0,4.2905,5.2066,6.0126,6.3408,6.7719,7.0616,7.1291,7.237,7.5125,8.0085,8.1013,8.1763,8.2642,8.4128,8.4945,8.4978,8.6064,8.6635,8.6635,8.7039,8.7152,8.6953,8.6958,8.7234,8.7733,8.6709,8.6352,8.657,8.6261,8.4703,8.2326,8.2251,8.2253,8.2355,8.2231,8.2186,8.2186,8.2186,8.2186,8.2186,0.9106,0.891,0.8804,0.8804,0.8804,0.8791,0.8848,0.9659,1.1531,1.4993,1.9538,2.4035,2.8164,3.3554,3.6963,3.7288,3.9176,3.8498,3.3862,3.186,3.016,2.8608,3.5955,4.1703,4.4988,4.833,5.0946,5.2804,5.2955,5.3331,5.3884,5.4756,5.5169,5.5273,5.4545,5.4577,5.4761,5.245,5.0955,4.9958,4.6315,4.2506,3.8728,0.0,0.0,0.0,0.0,0.0,0.0,0.0,0.0,0.0,0.0,0.0,0.0,0.0,0.0,0.0,0.0,0.0,0.0,0.0,0.0,0.0,0.0,0.0,0.0,0.0,0.0,0.0,0.0,0.0,0.0,0.0,5.4409,6.4399,6.413,6.4055,6.6843,7.4338,7.6238,7.7354,7.8575,7.8972,8.0009,8.2055,8.2397,8.3013,8.4317,8.5395,8.6202,8.6709,8.8383,8.9243,8.9243,9.0298,9.07,9.0507,9.0687,9.0291,8.9346,8.9074,8.8629,8.8078,8.7995,8.6851,8.4899,8.2954,8.3602,8.5436,8.3125,8.2208,8.2208,8.2208,8.2208,8.2208,0.9263,0.9015,0.8804,0.8804,0.8804,0.8831,0.8833,0.9571,1.1874,1.683,2.0525,2.4927,3.0604,3.4963,3.7401,3.7602,3.831,3.713,3.3015,3.1442,3.2383,3.6277,4.1794,4.5995,4.8534,5.1155,5.2754,5.3381,5.3381,5.3658,5.4185,5.4919,5.528,5.5486,5.4893,5.5147,5.563,5.3445,5.2683,5.2946,5.0554,4.7159,4.3333,4.1135,3.831,3.523,3.3212,3.2439,3.1973,2.9555,0.0,0.0,0.0,0.0,0.0,0.0,0.0,0.0,0.0,0.0,0.0,0.0,0.0,0.0,0.0,0.0,0.0,0.0,0.0,0.0,0.0,0.0,0.0,0.0,6.3784,7.2566,7.4312,7.296,7.4086,8.0097,8.0427,8.0427,8.1288,8.196,8.2557,8.3098,8.3709,8.4403,8.5259,8.6691,8.761,8.8002,8.9729,9.0681,9.0681,9.1606,9.2011,9.1882,9.2177,9.1795,9.0857,9.0623,9.0209,8.9832,9.1261,9.0508,8.8036,8.5318,8.6002,8.8448,0.0,0.0,0.0,0.0,8.4175,8.4175,0.9562,0.9211,0.8804,0.8804,0.8804,0.8721,0.8573,0.9462,1.2564,1.9389,2.2011,2.6118,3.3914,3.5918,3.7051,3.7851,3.7514,3.5438,3.1503,3.2703,3.719,4.513,4.6886,4.9464,5.303,5.3105,5.313,5.3206,5.3256,5.3507,5.3884,5.3884,5.4135,5.4536,5.4084,5.4807,5.6097,5.4047,5.381,5.4577,5.3029,5.0167,4.6702,4.5146,4.2425,3.932,3.7837,3.6477,3.5216,3.4346,0.0,0.0,0.0,0.0,0.0,0.0,0.0,0.0,0.0,0.0,0.0,0.0,0.0,0.0,0.0,0.0,0.0,0.0,0.0,0.0,0.0,0.0,0.0,0.0,6.9849,7.3003,7.6647,7.8562,8.0214,8.1884,8.1497,8.1139,8.1249,8.2634,8.3544,8.3544,8.4842,8.5678,8.5701,8.7852,0.0,0.0,0.0,9.1633,9.1633,9.2145,9.2441,9.2477,9.2732,9.2802,9.2714,9.2193,9.1861,9.1908,9.4978,9.4599,9.1604,8.9076,8.9535,9.1496,8.8633,8.726,8.7018,8.6999,8.7033,8.6966,0.8962,0.891,0.8804,0.8804,0.8804,0.8951,0.9349,1.0066,1.3105,2.0193,2.2793,2.6736,3.3973,3.6191,3.7383,3.7871,3.6209,3.4564,3.3131,3.885,4.3192,4.5348,4.9569,5.2578,5.421,5.4235,5.4461,5.4913,5.5365,5.539,5.5064,5.5064,5.4888,5.4587,5.4913,5.5182,5.5609,5.5081,5.498,5.5228,5.4401,5.2578,5.0243,4.9439,4.866,4.7958,4.7208,4.6736,4.6016,4.2811,4.137,4.0351,3.7269,3.3682,0.0,0.0,0.0,0.0,0.0,0.0,0.0,0.0,0.0,0.0,0.0,0.0,0.0,0.0,0.0,0.0,0.0,0.0,0.0,6.7454,7.2881,7.5115,7.5898,7.7357,7.9138,8.1133,8.1523,8.1889,8.2468,8.3618,8.4389,8.4389,8.522,8.5983,8.6557,8.8818,9.037,9.0911,9.3102,9.4249,9.4249,9.5197,9.5732,9.5845,9.611,0.0,9.6623,9.6507,9.601,9.5365,9.5978,9.5943,9.5248,9.4713,9.483,9.498,9.167,8.8979,8.7001,8.7026,8.6982,8.6994,0.8804,0.8804,0.8804,0.8804,0.8804,0.9005,0.9593,1.0407,1.3096,1.9005,2.1263,2.4601,3.0568,3.2148,3.3125,3.3984,3.4097,3.4512,3.5379,4.1164,4.6061,4.9455,5.2254,5.4135,5.4963,5.4712,5.4687,5.4988,5.4963,5.5114,5.539,5.539,5.539,5.539,5.539,5.539,5.5365,5.5089,5.5139,5.5365,5.5089,5.431,5.3206,5.2101,5.1498,5.1147,5.0318,5.0017,4.9665,4.7456,4.6527,4.5698,4.2359,3.9597,3.701,0.0,0.0,0.0,0.0,0.0,0.0,0.0,0.0,0.0,0.0,0.0,0.0,0.0,0.0,3.5338,4.1145,0.0,5.3153,7.2582,7.7024,7.7434,7.589,7.7009,7.8381,7.9434,8.0732,8.162,8.2013,8.3479,8.4354,8.4354,8.5617,8.6575,8.686,8.8772,9.0206,9.0911,9.2804,9.4177,9.4788,9.5486,9.6073,9.6545,9.7148,9.7538,9.7681,9.7705,9.7182,9.6289,9.6304,9.6322,9.6322,9.6286,9.6286,9.6134,9.4428,9.1842,8.9086,8.9102,8.8196,8.7007,0.8804,0.8804,0.8804,0.8804,0.8804,0.9005,0.9593,1.0608,1.2883,1.7432,1.9241,2.1946,2.6793,2.7785,2.8377,2.9394,3.2663,3.5376,3.7003,4.2568,4.8115,5.3206,5.4034,5.4662,5.5214,5.4888,5.4662,5.4561,5.421,5.4436,5.5239,5.534,5.5616,5.6043,5.5817,5.5717,5.5666,5.5239,5.529,5.5691,5.5591,5.5415,5.5089,5.3758,5.2904,5.2277,5.1272,5.0494,4.9941,5.0042,4.959,4.8586,4.6426,4.492,4.2785,3.6784,3.6132,0.0,0.0,0.0,0.0,0.0,0.0,0.0,0.0,3.5935,3.82,4.0998,4.1636,4.4049,5.1867,5.4232,6.0575,7.7499,7.9702,7.8507,7.6053,7.6753,7.7622,7.7946,7.9578,8.076,8.1077,8.2754,8.3852,8.3996,8.5773,8.6898,8.6898,8.872,9.0055,9.0631,9.2129,9.3357,9.4439,9.469,9.5325,9.633,9.7084,9.7179,9.6703,9.6717,9.6213,9.5338,9.6027,9.6294,9.6289,9.6278,9.6288,9.6288,9.6325,9.4637,9.2226,9.2203,9.0738,8.8726,0.8804,0.8804,0.8804,0.8804,0.8804,0.9005,0.9593,1.0608,1.2805,1.7013,1.8508,2.0908,2.545,2.6598,2.7024,2.6793,3.4285,3.8225,3.661,4.5355,5.1039,5.2226,5.3256,5.4059,5.4637,5.5089,5.5064,5.4561,5.4988,5.5013,5.4662,5.5164,5.5415,5.5516,5.6445,5.6846,5.6846,5.6796,5.6796,5.6796,5.6319,5.5541,5.4637,5.4461,5.4034,5.3457,5.2854,5.072,4.856,5.0996,4.954,4.7029,4.9113,4.7355,4.3815,4.0124,3.7161,3.4299,3.0741,3.1246,3.3071,3.3992,3.5241,3.6032,0.0,3.5543,4.1031,5.9652,6.3512,6.4523,6.7836,7.2945,7.751,7.9843,7.7983,7.6043,7.5773,7.5806,7.6505,7.7807,7.8523,7.9406,8.0671,8.1958,8.2987,8.3613,8.5463,8.6552,8.6552,8.9676,9.15,9.1536,9.2851,9.3667,9.3787,9.3859,9.4665,9.6291,9.6425,9.5285,9.3177,9.3185,9.2666,9.1914,9.4984,9.6313,9.6284,9.6325,9.6288,9.6288,9.6288,9.6058,9.5713,9.5729,9.5529,9.4876,0.8804,0.8804,0.8804,0.8804,0.8804,0.9005,0.9593,1.087,1.2631,1.4933,1.6016,1.775,2.0876,2.2906,2.3958,2.3872,3.269,3.7864,3.6885,4.5576,5.1172,5.2076,5.2829,5.3658,5.4536,5.4787,5.4963,5.5039,5.5265,5.544,5.5541,5.6093,5.6344,5.6394,5.7173,5.7524,5.7524,5.7524,5.7524,5.7524,5.7298,5.652,5.5346,5.3959,5.2839,5.1766,4.9646,4.801,0.0,4.8182,4.6722,4.5366,4.9967,4.7922,4.3311,4.044,3.8338,3.7243,3.8285,3.7056,3.7784,4.7247,4.9426,4.6863,3.7632,4.5048,5.6288,6.5133,6.8171,6.9552,7.0735,7.1744,7.2988,7.4566,7.6731,7.8311,7.8277,7.757,7.7138,7.7472,7.7986,7.8845,8.0253,8.1517,8.2311,8.2537,8.4396,8.5417,8.5417,8.7732,8.8949,8.8933,9.032,9.1423,9.2253,9.2257,9.2589,9.3341,9.3882,9.3582,9.2648,9.409,9.484,9.5039,9.5903,9.6289,9.6288,9.6288,9.6288,9.6288,9.6288,9.6288,9.629,9.6303,9.5186,9.3501,0.8804,0.8804,0.8804,0.8804,0.8804,0.9032,0.9756,1.1143,1.2478,1.3492,1.4356,1.5478,1.7206,1.9504,2.102,2.1192,2.9669,3.5509,3.6534,4.511,5.0586,5.1574,5.1743,5.2238,5.3329,5.3651,5.371,5.3473,5.4228,5.4499,5.4278,5.5288,5.5485,5.4863,5.5928,5.6002,5.5379,5.5379,5.5477,5.5473,5.5473,5.4985,5.4032,5.2,5.0214,4.8449,4.593,4.4492,4.3879,4.4229,4.2602,4.1383,4.6871,4.5493,4.1304,3.8422,3.6743,3.6502,3.934,3.807,3.8526,4.9677,5.695,5.8465,4.7734,5.7108,6.8062,6.8114,6.9542,7.0847,7.089,6.8816,6.7637,6.9493,7.4929,7.8941,7.8991,7.8044,7.7641,7.8514,7.8249,7.8656,8.0412,8.0868,8.1138,8.144,8.2681,8.3763,8.4334,8.6026,8.6985,8.7018,8.8015,8.9351,9.119,9.1184,9.122,9.1217,9.2851,9.3769,9.4057,9.588,9.7067,9.7625,9.6701,9.6308,9.6288,9.6288,9.6288,9.6288,9.6288,9.6288,9.629,9.631,9.4376,9.1828,0.8804,0.8804,0.8804,0.8804,0.8804,0.9111,1.0107,1.132,1.2461,1.3504,1.4279,1.5052,1.5891,1.7233,1.8487,1.933,2.5661,3.1205,3.4876,4.4275,4.9897,5.0499,4.929,4.9078,5.0151,5.1321,5.0795,4.8681,5.1161,5.1395,4.94,5.1418,5.1442,4.9598,5.1789,5.1334,4.9028,4.9028,4.917,4.9621,4.9621,4.9445,4.9157,4.8366,4.6178,4.339,4.2776,4.0581,3.8063,3.9403,3.7003,3.4106,3.8466,3.9013,3.7307,3.3937,3.0954,2.8605,2.8264,2.912,3.0156,3.0665,4.8913,6.7351,6.9399,7.0322,7.0766,7.0749,7.0829,7.0917,7.0888,6.8723,6.7,6.7125,7.2019,7.5862,7.5854,7.579,7.7346,8.1767,7.9769,7.8991,8.1423,7.987,7.9196,8.0141,8.0281,8.1296,8.355,8.575,8.6975,8.6957,8.7059,8.8393,9.119,9.1222,9.122,9.1256,9.46,9.6641,9.7539,9.7617,9.7682,9.7674,9.6701,9.6308,9.6288,9.6288,9.6288,9.6288,9.6288,9.6288,9.629,9.6287,9.4421,9.179,0.8804,0.8804,0.8804,0.8804,0.8804,0.9201,1.0426,1.0846,1.1524,1.2964,1.4331,0.0,0.0,0.0,0.0,0.0,2.2966,2.6889,3.2253,4.3334,4.8708,4.6698,4.7433,4.8505,4.9555,4.8775,4.8232,4.7817,4.8908,4.9753,5.039,5.1858,5.2784,5.3399,5.3168,5.2593,5.1652,5.0391,4.9688,4.9378,4.9378,4.8996,4.7842,4.4376,4.208,4.0082,0.0,3.2912,3.3416,3.3854,3.2224,3.0958,3.7104,3.6493,3.3021,3.0209,2.8504,2.7272,2.6555,2.6741,3.0751,4.5715,5.5861,6.2201,6.3196,6.3346,6.3379,6.3373,6.339,6.4928,6.9928,7.0162,6.9571,6.9597,7.1292,7.3201,7.4928,7.8822,8.1006,7.9347,8.02,8.1293,8.2098,8.0679,8.0241,8.1597,8.076,8.0501,8.1274,8.4908,8.6975,8.6966,8.7004,8.8329,9.1155,9.1179,9.2322,9.4607,9.6377,9.7382,9.7695,9.7689,9.7689,9.7635,9.6701,9.6308,9.6288,9.6288,9.6288,9.6288,9.6288,9.6289,9.6292,9.6323,9.4386,9.1771,0.8804,0.8804,0.8804,0.8804,0.9015,0.0,0.0,0.0,0.0,0.0,0.0,0.0,0.0,0.0,0.0,0.0,0.0,2.2513,2.6768,3.5381,4.1164,4.3162,4.2685,4.2893,4.3909,4.306,4.2456,4.2116,4.4887,4.6217,4.6119,4.9153,5.0336,5.0002,4.9904,4.9328,4.8418,4.7204,4.6311,4.5793,4.4635,4.4078,4.3092,3.8585,3.6275,0.0,2.9322,2.7784,2.8355,2.8796,2.7868,2.7321,3.2542,3.201,2.9024,2.7432,2.6747,2.804,3.4818,3.7146,4.1252,5.5913,5.948,5.9481,5.9481,5.9439,5.8554,5.5432,5.7354,5.8871,5.7033,5.665,5.7266,5.942,5.9713,6.2954,7.2181,7.7899,8.0002,7.6911,8.0463,8.3231,8.3132,8.2318,8.1738,8.1594,8.0714,8.0218,8.0228,8.4527,8.7027,8.7002,8.6996,8.8941,9.298,9.3024,9.4149,9.6294,9.7227,9.771,9.7695,9.7689,9.7689,9.7635,9.6719,9.6278,9.6288,9.6288,9.6288,9.6288,9.6288,9.6284,9.618,9.5106,9.3439,9.1827,0.8804,0.8804,0.8804,0.0,0.0,0.0,0.0,0.0,0.0,0.0,0.0,0.0,0.0,0.0,0.0,0.0,0.0,0.0,1.9309,2.1851,2.8265,3.9407,3.5625,3.3454,3.4218,3.4666,3.4212,3.2695,3.9411,4.0705,3.733,4.3486,4.4249,4.0381,4.2373,4.1871,3.9641,3.9492,3.909,3.8545,3.5586,3.4878,3.5258,3.1458,2.9179,2.7912,2.7065,2.5043,2.3125,2.4296,2.3967,2.3407,2.5422,2.5912,2.5722,2.5829,2.6253,3.0915,5.0343,5.7213,5.8807,5.883,5.8798,5.8828,5.8828,5.8752,5.6442,4.7962,5.2878,5.2964,3.4275,3.2105,3.4625,3.9368,3.9866,4.6645,6.6519,7.2517,7.4869,7.4926,8.0315,8.4089,8.4113,8.4084,8.3162,8.0871,8.0569,8.0442,8.0456,8.4757,8.7239,8.7229,8.7273,9.0147,9.6241,9.6361,9.6387,9.6383,9.729,9.7695,9.7695,9.7689,9.7682,9.7577,9.6708,9.6274,9.6288,9.6288,9.6288,9.6288,9.6288,9.6322,9.5934,9.2904,9.1821,9.1836,0.0,0.0,0.0,0.0,0.0,0.0,0.0,0.0,0.0,0.0,0.0,0.0,0.0,0.0,0.0,0.0,0.0,0.0,2.0165,2.0914,2.3318,2.7709,3.2779,3.4558,3.2622,3.0957,3.0548,3.1367,3.3518,3.4758,3.5244,3.7138,3.8313,3.8574,3.7708,3.6917,3.6185,3.3785,3.2692,3.2412,3.0825,3.0206,3.0103,2.683,2.5348,2.4898,2.2983,2.1879,2.1585,2.2999,2.3299,2.3151,2.3746,2.4671,2.5961,2.7277,3.3067,4.0209,4.5494,4.8256,4.9628,4.9696,4.9588,4.9634,4.9634,4.9616,4.8645,4.5153,4.6117,4.3919,3.1304,4.8053,5.9658,4.7409,4.2116,4.1559,4.6924,6.3336,7.4953,7.4861,7.6314,7.7323,7.7431,7.7425,8.0062,8.6359,8.4751,8.3438,8.3489,8.7955,9.0601,9.0554,9.0573,9.2404,9.6264,9.6977,9.7324,9.7333,9.7589,9.7695,9.7695,9.7689,9.7331,9.6643,9.6397,9.6274,9.6288,9.6289,9.6289,9.6289,9.6327,9.6331,9.5907,9.288,9.1821,9.1766,0.0,0.0,0.0,0.0,0.0,0.0,0.0,0.0,0.0,0.0,0.0,0.0,0.0,0.0,0.0,0.0,0.0,0.0,0.0,1.9469,2.0279,2.2122,2.6858,2.8882,2.7631,2.6326,2.6231,2.7491,2.9413,3.0465,3.0429,3.2623,3.3518,3.3244,3.2116,3.1663,3.1544,2.9665,2.8756,0.0,0.0,2.556,2.5395,2.2419,2.176,2.2347,2.113,2.1147,2.1913,2.2809,2.3119,2.3153,2.314,2.7377,3.288,3.4562,3.9211,4.3655,4.369,4.5025,4.6474,4.7329,4.7511,4.7188,4.6474,4.6331,4.4356,3.7188,3.5819,3.4323,2.9274,4.2614,5.5556,5.8921,5.6031,5.0206,4.1,5.1154,6.3307,7.364,7.4946,7.5382,7.6538,7.6643,8.0044,8.8438,8.755,8.7527,8.9766,9.1082,9.1813,9.1839,9.1806,9.3239,9.627,9.6792,9.7284,9.7706,9.7706,9.7684,9.7695,9.7719,9.7208,9.6313,9.6328,9.6309,9.6289,9.6327,9.7173,9.8481,9.8513,9.8497,9.8121,9.5075,9.3954,9.3969,0.0,0.0,0.0,0.0,0.0,0.0,0.0,0.0,0.0,1.0853,1.0161,1.1137,0.0,0.0,0.0,0.0,0.0,0.0,0.0,0.0,1.8488,1.9448,2.021,2.0666,2.0844,2.162,2.2285,2.2709,2.6214,2.6734,2.4583,2.833,2.8577,2.6041,2.6041,2.6174,2.6226,2.5977,2.56,2.4787,2.1862,2.0901,2.0933,0.0,1.858,2.007,2.0087,2.0949,2.2461,2.4801,2.5534,2.5455,2.5529,3.2749,4.1503,4.317,4.3642,4.3751,4.3942,4.5068,4.6719,4.849,4.8888,4.8359,4.6637,4.4857,4.0196,2.8157,2.5659,2.6118,2.77,2.8183,3.7223,6.4266,7.0235,6.4563,4.5066,4.3545,5.201,7.2532,7.522,7.6275,7.8569,7.8738,8.1729,8.8594,8.9114,9.1057,9.5494,9.3638,9.2292,9.1801,9.2143,9.3648,9.6278,9.6288,9.678,9.768,9.7687,9.7695,9.7695,9.7708,9.7421,9.6954,9.6944,9.6981,9.6981,9.6981,9.8558,10.1018,10.1009,10.0912,10.0403,9.7665,9.6681,9.6693,0.0,0.0,0.0,0.0,0.0,0.0,0.0,0.0,0.0,0.0,1.3316,1.4577,0.0,0.0,0.0,0.0,0.0,0.0,0.0,0.0,0.0,1.3874,1.8149,1.9017,1.5508,1.9011,2.0844,2.0679,2.1318,2.1452,2.1029,2.0979,2.0629,2.0096,2.0096,2.0508,2.1194,1.9931,1.9854,2.0416,1.7774,1.6872,1.6839,1.6364,1.633,0.0,1.6629,1.68,1.9181,3.3314,3.8073,3.8044,3.7991,3.9489,4.1523,4.3139,4.3687,4.4004,4.5444,4.6152,4.6639,4.8373,4.8891,4.8405,4.6712,3.7409,2.855,2.6238,2.5746,2.5829,2.6045,2.7351,3.0122,3.547,5.7647,6.9973,5.7788,6.3471,7.0273,7.4355,7.6764,7.8358,7.8831,7.876,8.1601,8.86,8.9064,8.9457,9.0364,9.3872,9.4577,9.1912,9.4199,9.5761,9.6317,9.6288,9.678,9.768,9.7687,9.7695,9.7695,9.7708,9.8724,10.0417,10.0402,10.0404,10.0404,10.0404,10.001,9.9373,9.9431,9.8647,9.7433,9.6899,9.6688,9.6725,0.0,0.0,0.0,0.0,0.0,0.0,0.0,1.1916,1.2276,1.2301,1.3184,1.4514,1.6514,1.6735,1.6728,0.0,0.0,0.0,0.0,0.0,0.0,0.0,1.4878,1.5296,1.3223,1.5811,1.715,1.7041,0.0,2.0003,1.9347,1.8321,1.743,1.6699,1.6787,1.707,1.728,1.5314,1.485,1.5368,1.5372,1.5386,1.5332,1.5382,1.5609,0.0,1.5832,1.5821,1.703,2.5277,3.1229,3.601,3.9983,4.1805,4.2617,4.3457,4.4386,4.517,4.6013,4.6367,4.6536,4.7285,4.6792,4.5203,4.1689,3.2982,2.565,2.5663,2.4966,2.4615,2.5527,2.6346,2.7262,2.815,5.0969,6.8383,6.767,7.1727,7.4932,7.4862,7.5986,7.7314,7.8699,7.876,8.1665,8.8505,8.9164,8.9145,8.9072,9.3903,9.5219,9.1884,9.4706,9.6303,9.6317,9.6793,9.7247,9.768,9.7687,9.8668,10.0401,10.0395,10.0706,10.1322,10.1273,10.1289,10.1173,10.0429,9.9702,9.8944,9.8083,9.7355,9.666,9.6688,9.6695,9.6685,0.0,0.0,0.0,0.0,0.0,0.0,1.2109,1.2315,1.2714,1.3945,1.3293,1.3859,1.6861,1.7628,1.8014,0.0,0.0,0.0,0.0,0.0,0.0,0.0,0.0,0.0,1.2309,0.0,0.0,1.4457,1.7342,0.0,0.0,0.0,0.0,0.0,1.4397,1.4462,1.4721,1.2846,1.1483,0.0,0.0,1.3302,1.3471,0.0,0.0,0.0,0.0,1.5808,1.5803,1.5846,2.0722,2.8162,3.5273,3.9519,4.2288,4.3435,4.4898,4.6293,4.6284,4.6523,4.6472,4.628,4.5325,4.3046,3.8668,3.1478,2.5545,2.517,2.4388,2.4002,2.4972,2.5118,2.5685,2.7506,4.3359,5.999,7.3013,7.4946,7.5039,7.5707,7.5259,7.5654,7.7824,7.8482,8.1634,8.8633,8.9163,8.9535,9.0692,9.454,9.5149,9.1884,9.4702,9.6331,9.6308,9.7225,9.7691,9.7721,9.847,10.0105,10.2587,10.2607,10.2117,10.1284,10.1321,10.1289,10.1211,9.9809,9.9123,9.8832,9.7492,9.6846,9.6681,9.6731,9.6685,9.6685,0.0,0.0,0.0,0.0,0.0,0.0,1.2107,1.2305,1.4121,1.9198,1.6419,1.407,1.4452,1.6541,1.7999,0.0,0.0,0.0,0.0,0.0,0.0,0.0,0.0,0.0,0.0,0.0,0.0,1.5545,1.3859,0.0,0.0,0.0,0.0,0.0,0.0,1.2186,1.4151,1.3965,0.0,0.0,0.0,0.0,0.0,0.0,0.0,0.0,0.0,1.5787,1.5815,1.5775,1.6339,1.8056,2.3593,3.0607,3.7625,4.2309,4.4919,4.6288,4.6316,4.6835,4.7288,4.6501,4.6133,4.5489,4.3492,3.3973,2.5199,2.3684,2.4496,2.5067,2.3648,2.3317,2.3954,2.5705,2.9012,4.1633,7.0799,7.4885,7.5832,7.8171,7.6313,7.4971,7.5217,7.7477,8.1634,8.8633,8.9096,9.109,9.5747,9.6462,9.5193,9.1903,9.4744,9.629,9.6293,9.7227,9.7682,9.7733,10.0898,10.2097,10.1417,10.14,10.1394,10.1284,10.1321,10.1289,10.1211,10.0383,9.9682,9.8894,9.8011,9.7277,9.6652,9.6685,9.6685,9.6685,0.0,0.0,0.0,0.0,0.0,0.0,1.2148,1.2917,1.4161,1.6365,1.7468,1.7978,1.803,1.8933,1.9161,1.8059,0.0,0.0,0.0,0.0,0.0,0.0,0.0,0.0,0.0,0.0,1.2759,1.369,1.2724,0.0,0.0,0.0,0.0,0.0,0.0,1.1435,0.9402,0.9777,0.0,0.0,0.0,0.0,0.0,0.0,0.0,0.0,0.0,0.0,1.58,1.5846,1.7034,1.8678,1.9179,2.3399,2.9613,3.6887,4.2176,4.5691,4.6095,4.6504,4.6777,4.6425,4.5984,4.5274,4.4664,4.04,3.4292,2.6288,2.4415,2.389,2.3271,2.3062,2.3655,2.5421,2.7119,3.3035,4.6484,6.369,7.5292,7.6282,7.5516,7.4946,7.4872,7.729,8.1698,8.8586,9.1917,9.4559,9.6581,9.6694,9.6916,9.7478,9.6717,9.6289,9.6293,9.7246,9.8747,10.0781,10.1586,10.1904,10.1806,10.1401,10.1274,10.128,10.1289,10.0973,10.0321,9.972,9.9007,9.8151,9.7422,9.699,9.6685,9.6685,9.6685,9.6685,0.0,0.0,0.0,0.0,0.0,1.0981,1.2148,1.3326,1.4569,1.5836,1.7557,1.9155,2.0485,1.945,1.8672,1.8743,1.4773,0.0,0.0,0.0,0.0,0.0,0.0,0.0,0.0,0.0,1.2273,1.2273,1.2683,1.2832,0.0,0.0,1.2336,0.9284,0.0,0.0,0.0,0.0,0.0,0.0,0.0,0.0,0.0,0.0,0.0,0.0,0.0,0.0,0.0,0.0,0.0,1.8808,1.6927,1.8429,2.2453,3.0105,3.6897,4.2068,4.3448,4.4778,4.5978,4.5876,4.5433,4.4992,4.4735,4.0999,3.5235,2.6647,2.3958,2.3144,2.3144,2.3133,2.3472,2.4675,2.642,2.8145,2.9863,4.8394,6.2529,6.4252,7.0675,7.4922,7.489,7.9164,8.3827,8.8706,9.3837,9.6671,9.6684,9.6676,9.8116,10.1182,9.8982,9.7283,9.6313,9.7246,9.9449,10.289,10.1788,10.1503,10.1993,10.1518,10.1297,10.1289,10.1289,10.0693,9.9793,9.9232,9.8529,9.7695,9.699,9.6685,9.6685,9.6685,9.6685,9.6685,0.0,0.0,0.0,0.0,0.0,0.0,1.2148,1.3327,1.5653,1.9942,1.6814,1.5805,2.0119,1.6785,1.587,2.0237,1.5495,0.0,0.0,0.0,0.0,0.0,0.0,0.0,0.0,0.0,1.2286,1.2318,1.3478,1.4097,1.4117,1.4118,1.4058,1.3848,0.0,0.0,0.0,0.0,0.0,0.0,0.0,0.0,1.471,0.0,0.0,0.0,0.0,0.0,0.0,0.0,0.0,0.0,0.0,1.6286,1.7337,2.2352,2.8707,3.4611,3.7202,4.1418,4.4863,4.464,4.4857,4.4727,4.3904,3.3132,2.3324,2.3152,2.3144,2.3144,2.3144,2.3133,2.3104,2.3073,2.4603,2.6352,2.8028,3.0117,3.3499,3.9408,6.0667,7.4854,7.4871,8.3422,8.9061,8.9142,9.3782,9.6653,9.672,9.6712,9.8121,10.1182,10.1322,9.9668,9.6313,9.7227,9.9436,10.289,10.1788,10.1503,10.1798,10.1518,10.1297,10.1289,10.1289,10.0693,9.9793,9.9232,9.8529,9.7695,9.699,9.6685,9.6685,9.6685,9.6685,9.6685,0.0,0.0,0.0,0.0,0.0,0.0,0.0,1.2607,1.4012,1.708,1.8117,1.9114,2.045,1.941,1.7582,1.5109,1.329,0.0,0.0,0.0,0.0,0.0,0.0,0.0,0.0,0.0,1.3493,1.3526,1.3917,1.4538,1.5241,1.5269,1.4128,1.198,1.0279,0.8625,0.0,0.0,0.0,0.0,0.0,1.39,1.491,0.0,0.0,0.0,0.0,0.0,0.0,0.0,0.0,0.0,0.0,0.0,0.0,1.8189,2.2632,2.8169,3.2765,3.5332,3.7192,3.9393,3.9692,3.7768,3.1151,2.6218,2.313,2.3124,2.3144,2.3144,2.3144,2.3135,2.314,2.313,2.4526,2.629,2.8081,3.3312,3.7611,3.9521,5.09,6.5531,8.2965,8.7374,8.9778,9.1587,9.271,9.3833,9.4883,9.5901,9.689,9.782,9.8481,9.8735,9.8472,9.9148,10.0204,10.1719,10.1708,10.1794,10.2012,10.1502,10.1325,10.1288,10.0798,10.0098,9.9177,9.8492,9.7695,9.7027,9.6801,9.6685,9.6685,9.6685,9.6685,9.6685,0.0,0.0,0.0,0.0,0.0,0.0,0.0,1.2728,1.4022,1.5922,1.8206,1.9887,2.05,1.8695,1.6661,1.462,1.3131,0.0,0.0,0.0,0.0,0.0,0.0,0.0,0.0,1.3507,1.4062,1.4058,1.4549,1.5082,1.5777,1.5777,1.4347,1.171,1.1563,1.0419,0.0,0.0,0.0,0.0,1.3361,1.4116,1.515,0.0,0.0,0.0,0.0,0.0,0.0,0.0,0.0,0.0,0.0,0.0,0.0,0.0,1.8687,2.272,2.8147,3.132,3.3364,3.4457,3.4517,3.2297,2.4828,2.3112,2.3144,2.3144,2.3144,2.3144,2.3144,2.3144,2.3075,2.3072,2.4555,2.7008,3.0787,3.6163,4.3968,5.5295,6.0852,7.0272,8.67,8.9632,9.1381,9.3239,9.3553,9.3746,9.4099,9.548,9.6371,9.6478,9.7099,9.7882,9.8806,9.9785,10.0484,10.1,10.1501,10.1894,10.1899,10.15,10.1289,10.1288,10.0505,9.9706,0.0,9.8124,9.7388,9.6685,9.6685,9.6685,9.6685,9.6685,9.6685,9.6685,0.0,0.0,0.0,0.0,0.0,0.0,0.0,1.3347,1.5367,1.6246,1.7225,1.8544,2.0204,1.5942,1.4179,1.7297,0.0,0.0,0.0,0.0,0.0,0.0,0.0,0.0,0.0,1.3513,1.4156,1.4187,1.5267,1.5819,1.5833,1.5833,1.4682,1.2677,1.2859,1.2381,0.0,0.0,0.0,0.0,1.4549,1.4883,0.0,0.0,0.0,0.0,0.0,0.0,0.0,0.0,0.0,0.0,0.0,0.0,0.0,0.0,0.0,0.0,0.0,2.8509,3.1988,2.9989,2.9543,2.839,2.4068,2.3067,0.0,2.3144,2.3144,2.3144,2.3144,2.3076,2.3133,2.3461,2.5331,2.9214,3.6579,4.04,5.2873,8.1006,8.453,8.5195,8.6836,9.0538,9.3243,9.4168,9.5567,9.578,9.4273,9.5463,9.6401,9.6809,9.6937,9.7199,9.7671,9.9436,10.0382,10.0714,10.14,10.1806,10.17,10.1398,10.1288,10.121,10.0375,9.9706,9.8949,9.8124,9.7351,9.6762,9.6762,9.6762,9.6685,9.6685,9.6685,9.6685,0.0,0.0,0.0,0.0,0.0,0.0,0.0,0.0,0.0,0.0,1.6136,1.7073,1.8497,1.8621,1.7334,0.0,0.0,0.0,0.0,0.0,0.0,0.0,0.0,0.0,0.0,1.3991,1.4542,1.5399,1.5677,1.5828,1.5832,1.5832,1.4477,1.2161,1.3122,1.31,0.0,0.0,0.0,0.0,1.4763,1.507,0.0,0.0,0.0,0.0,1.5832,1.5832,0.0,0.0,0.0,0.0,0.0,0.0,0.0,0.0,1.739,1.9293,2.0533,0.0,2.4287,2.4621,2.475,2.4447,0.0,2.307,2.3144,2.3144,2.3144,2.3144,2.3144,2.3075,2.3926,2.6671,3.2299,3.9535,4.8406,6.0773,7.2245,8.1324,8.3644,8.5482,8.7668,9.0937,9.3114,9.374,9.4666,9.5203,9.5027,9.5311,9.5906,9.6931,9.6991,9.7143,9.7485,9.9351,10.0191,10.009,10.14,10.1884,10.17,10.1398,10.097,10.0413,9.9653,9.9179,9.8949,9.8124,9.7695,9.7525,9.7525,9.721,9.6685,9.6685,9.6685,9.6685,0.0,0.0,0.0,0.0,0.0,0.0,0.0,0.0,0.0,0.0,0.0,0.0,0.0,0.0,0.0,0.0,0.0,0.0,0.0,0.0,0.0,0.0,0.0,0.0,1.4117,1.4651,1.5185,1.5814,1.598,1.6089,1.6032,1.6032,1.4946,1.3062,1.3599,1.3761,0.0,0.0,0.0,1.475,1.5044,0.0,0.0,0.0,0.0,0.0,1.5832,1.5832,0.0,1.5832,1.5832,1.5832,0.0,0.0,0.0,0.0,1.8395,2.0314,2.0314,2.1212,2.2296,2.295,2.3144,2.3144,2.3144,2.3144,2.3144,2.3144,2.3144,2.3203,2.3418,2.5862,2.8321,3.0058,3.8114,4.6807,5.4144,6.3146,7.087,7.6098,7.9931,8.3862,8.8118,9.1387,9.3171,9.3025,9.4693,9.5353,9.4763,9.5407,9.6204,9.6993,9.7115,9.7288,9.755,9.9255,9.9978,9.9747,10.1193,10.1813,10.15,10.1016,10.0589,10.0098,9.8949,9.8467,9.8405,9.7595,9.7317,9.7317,9.7317,9.7027,9.6685,9.6685,9.6685,9.6685,0.0,0.0,0.0,0.0,0.0,0.0,0.0,0.0,0.0,0.0,0.0,0.0,0.0,0.0,0.0,0.0,0.0,0.0,0.0,0.0,0.0,0.0,0.0,0.0,1.4233,1.5232,1.5819,1.5858,1.6238,1.641,1.6451,1.6339,1.5712,1.4544,1.4087,1.4284,0.0,0.0,1.5257,1.5134,1.5467,0.0,0.0,0.0,0.0,0.0,0.0,0.0,0.0,1.5832,1.5832,1.5832,1.6008,0.0,0.0,0.0,0.0,0.0,2.1302,2.2584,2.3809,2.3262,2.3144,2.3144,2.3144,2.3184,2.3242,2.3242,2.3301,2.3654,2.4735,2.9053,3.2665,3.3244,4.2735,5.1919,5.7339,5.9989,6.3995,7.0955,7.6992,8.2761,8.832,9.1798,9.3458,9.2872,9.5157,9.5838,9.4341,9.5751,9.6708,9.7012,9.7253,9.7578,9.789,9.9211,9.9826,9.9717,10.1091,10.149,10.1091,10.0497,10.0125,9.9758,9.8529,9.7993,9.7927,9.7317,9.7027,9.7064,9.6952,9.6801,9.6685,9.6685,9.6685,9.6685,0.0,0.0,0.0,0.0,0.0,0.0,0.0,0.0,0.0,0.0,0.0,0.0,0.0,0.0,0.0,0.0,0.0,0.0,0.0,0.0,0.0,0.0,0.0,0.0,0.0,0.0,1.6006,1.6346,1.6343,1.6505,1.6647,1.6647,1.6401,1.5953,1.4485,1.4477,1.5337,1.5378,1.5378,1.5416,1.6526,0.0,0.0,0.0,0.0,0.0,0.0,0.0,0.0,1.5832,1.5832,1.6021,1.7044,0.0,0.0,0.0,0.0,0.0,2.1302,2.4371,2.6797,2.3867,2.3144,2.3144,2.3144,2.3418,2.3691,2.3691,2.3965,2.5159,2.8432,2.9104,3.0742,3.5655,4.5209,5.4613,6.1993,6.9878,7.5213,7.6149,8.2223,8.7112,8.8909,9.1905,9.4038,9.4906,9.5906,9.6058,9.5077,9.6009,9.6708,9.7012,9.7253,9.7851,9.8789,9.9524,10.0099,10.0612,10.1285,10.1203,10.0404,10.0309,9.9493,9.8188,9.8651,9.8831,9.8831,9.8712,9.8651,9.8591,9.7897,9.7245,9.6685,9.6685,9.6685,9.6685,0.0,0.0,0.0,0.0,0.0,0.0,0.0,0.0,0.0,0.0,0.0,0.0,0.0,0.0,0.0,0.0,0.0,0.0,0.0,0.0,0.0,0.0,0.0,0.0,0.0,0.0,1.6171,1.6384,1.6693,1.6921,1.6941,1.678,1.6553,1.6259,1.5364,1.5094,1.5404,1.5565,1.5538,1.5497,0.0,0.0,0.0,0.0,0.0,0.0,0.0,0.0,0.0,0.0,1.6857,1.703,1.8319,0.0,0.0,0.0,0.0,0.0,2.2315,2.3817,2.5586,2.5859,2.8208,3.0346,3.0346,3.1443,3.1663,2.9132,2.8807,2.9274,3.0375,3.3553,3.9575,5.0416,5.3837,5.757,6.4837,6.7984,7.1497,7.6621,8.1665,8.6569,9.1148,9.3506,9.4884,9.5351,9.5713,9.5658,9.5219,9.6236,9.6893,9.7012,9.7836,9.8741,9.9687,10.0207,10.0504,10.0806,10.1322,10.1019,10.0223,9.9758,9.889,9.783,9.78,9.7732,9.7732,9.7732,9.7732,9.7732,9.7388,9.699,9.6685,9.6685,9.6685,9.6685,0.0,0.0,0.0,0.0,0.0,0.0,0.0,0.0,0.0,0.0,0.0,0.0,0.0,0.0,0.0,0.0,0.0,0.0,0.0,0.0,0.0,0.0,0.0,0.0,0.0,0.0,1.6415,1.6478,1.7002,1.7181,1.7248,1.6874,1.658,1.6366,1.5992,1.5712,1.5511,1.5738,1.5698,1.5511,0.0,0.0,0.0,0.0,0.0,0.0,0.0,0.0,0.0,0.0,0.0,0.0,0.0,0.0,0.0,2.1658,2.2403,2.3144,2.3144,2.3809,2.5156,2.791,3.1075,3.4201,3.6303,3.7132,3.6991,3.5424,3.4709,3.423,3.3444,3.8766,4.7459,6.015,6.0427,6.1299,6.8456,6.7672,6.9571,7.8047,8.2172,8.6789,9.3061,9.4943,9.5728,9.5641,9.563,9.5502,9.5446,9.6433,9.7012,9.7012,9.8313,9.9374,10.0189,10.0579,10.0903,10.1078,10.1181,10.0804,9.9898,9.9493,9.8772,9.783,9.7632,9.7388,9.721,9.721,9.7101,9.6915,9.6762,9.6685,9.6685,9.6685,9.6685,9.6685,0.0,0.0,0.0,0.0,0.0,0.0,0.0,0.0,0.0,0.0,0.0,0.0,0.0,0.0,0.0,0.0,0.0,0.0,0.0,0.0,0.0,0.0,0.0,0.0,0.0,1.59,1.6393,1.6673,1.6994,1.7288,1.7542,1.6967,1.67,1.6647,1.6086,1.5818,1.5805,1.5818,1.5818,1.59,1.7124,0.0,0.0,0.0,0.0,0.0,0.0,0.0,0.0,0.0,0.0,0.0,0.0,0.0,2.148,2.2668,2.3038,2.3144,2.3144,2.5762,2.8652,2.9316,2.7055,2.6919,3.5359,3.401,3.2971,4.0555,4.0701,3.9599,3.9915,4.3271,4.7728,5.3225,5.9428,6.6398,7.4461,7.6861,7.9328,8.4015,8.7813,9.1034,9.3506,9.5368,9.6462,9.6459,9.6337,9.6286,9.6213,9.6721,9.7012,9.7012,9.8313,9.9288,9.9914,10.052,10.1215,10.1993,10.1523,10.0467,9.9122,9.9796,9.9235,9.786,9.9291,9.9547,9.8831,9.8831,9.8405,9.7663,9.699,9.6685,9.6685,9.6685,9.6685,9.6685,0.0,0.0,0.0,0.0,0.0,0.0,0.0,0.0,0.0,0.0,0.0,0.0,0.0,0.0,0.0,0.0,0.0,0.0,0.0,0.0,0.0,0.0,0.0,1.4362,1.495,1.6005,1.6593,1.67,1.7181,1.7475,1.7569,1.6981,1.67,1.6673,1.6086,1.5832,1.5832,1.5832,1.5832,1.5832,1.6292,1.648,0.0,0.0,0.0,0.0,0.0,0.0,0.0,0.0,1.9792,1.9647,2.178,2.2403,2.2492,2.295,2.3144,2.3203,2.3477,2.7211,3.076,3.0102,3.0316,3.2934,4.186,4.3532,4.3773,4.624,4.7282,4.7393,4.6154,5.3537,5.964,5.9276,6.5766,7.243,7.7118,7.9117,8.2214,8.7934,9.027,9.2479,9.532,9.5768,9.603,9.6479,9.5983,9.5891,9.6436,9.6804,9.7082,9.724,9.8926,9.9832,9.9895,10.101,10.1717,10.1777,10.0981,10.001,9.9007,9.9291,9.8591,9.7137,9.8252,9.8252,9.7562,9.7562,9.7388,9.7101,9.6801,9.6685,9.6685,9.6685,9.6685,9.6685,0.0,0.0,0.0,0.0,0.0,0.0,0.0,0.0,0.0,0.0,0.0,0.0,0.0,0.0,0.0,0.0,0.0,0.0,0.0,0.0,0.0,0.0,0.0,1.4362,1.495,1.6389,1.7004,1.67,1.7288,1.7582,1.7569,1.6981,1.67,1.6673,1.6086,1.5832,1.5832,0.0,0.0,1.5832,1.5832,1.5832,0.0,0.0,0.0,0.0,0.0,0.0,0.0,0.0,2.0721,2.043,2.1858,2.2659,2.3038,2.2668,2.3203,2.3994,2.4295,2.7473,3.0991,3.1989,3.3841,3.7791,4.7674,4.8798,4.892,5.2236,5.2538,5.2187,5.2734,5.9199,6.425,6.3403,6.9646,7.5795,7.9022,8.0341,8.3433,9.027,9.1538,9.3086,9.6343,9.6077,9.5943,9.6441,9.5914,9.5867,9.656,9.6871,9.7115,9.7407,9.9216,9.9999,9.9787,10.1215,10.1815,10.16,10.0435,9.9547,9.9007,9.9235,9.8529,9.7101,9.8124,9.7964,9.7027,9.7027,9.6915,9.6685,9.6685,9.6685,9.6685,9.6685,9.6685,9.6685,0.0,0.0,0.0,0.0,0.0,0.0,0.0,0.0,0.0,0.0,0.0,0.0,0.0,0.0,0.0,0.0,0.0,0.0,1.1423,1.1971,1.2572,0.0,0.0,1.4362,1.504,1.703,1.7663,1.67,1.7288,1.7569,1.7555,1.6981,1.67,1.6673,1.6086,1.5832,0.0,0.0,0.0,0.0,1.5832,1.5832,1.5832,0.0,0.0,0.0,0.0,0.0,0.0,0.0,2.2148,2.2225,2.1071,2.1802,2.2862,2.1658,2.334,2.5546,2.5567,2.6641,2.9138,3.5233,3.6582,3.9521,5.1537,4.7591,4.5221,5.85,5.5898,5.3259,5.9687,5.8795,5.8691,6.3223,6.9588,7.5582,8.0264,8.095,8.3631,9.0914,9.1763,9.3086,9.6421,9.6537,9.6498,9.6498,9.6363,9.6386,9.6588,9.6871,9.713,9.7407,9.9012,9.9787,9.9522,10.0975,10.16,10.1288,9.9758,9.9007,9.9065,9.9847,9.9291,9.786,9.9493,9.9291,9.783,9.783,9.7388,9.6685,9.6685,9.6685,9.6685,9.6685,9.6685,9.6685,0.0,0.0,0.0,0.0,0.0,0.0,0.0,0.0,0.0,0.0,0.0,0.0,0.0,0.0,0.0,0.0,0.0,0.0,1.1423,1.1971,1.2572,1.3186,0.0,0.0,0.0,0.0,1.9352,1.931,1.976,1.9351,0.0,0.0,1.7471,1.638,1.6005,0.0,0.0,0.0,0.0,0.0,1.5832,1.5832,1.59,0.0,0.0,0.0,0.0,0.0,0.0,0.0,0.0,0.0,2.1163,2.1787,2.1658,2.2416,2.2777,2.2957,2.3258,2.9662,3.5976,3.4868,4.1099,4.8823,5.3227,5.0942,5.0605,6.0069,6.1205,6.0581,6.087,6.5641,6.8298,6.4482,6.9969,7.613,8.0328,8.1367,8.4192,9.0984,9.2224,9.3817,9.7134,9.688,9.6722,9.7249,9.6789,9.6627,9.6871,9.6976,9.7477,9.8507,9.928,9.9925,10.0398,10.1285,10.1311,10.0505,9.9455,9.9291,9.9847,9.9547,9.8772,9.7897,9.889,9.8505,9.7027,9.7027,9.6952,9.6685,9.6685,9.6685,9.6685,9.6685,9.6685,9.6685,0.0,0.0,0.0,0.0,0.0,0.0,0.0,0.0,1.541,1.541,1.541,1.541,0.0,0.0,0.0,1.3009,1.1934,0.0,1.1423,1.2219,1.2977,1.3529,1.4345,1.5831,0.0,1.9452,2.0537,0.0,0.0,0.0,0.0,0.0,1.7204,1.6259,1.5965,1.5832,0.0,0.0,0.0,1.5832,1.5832,1.5765,1.5725,0.0,0.0,0.0,0.0,0.0,0.0,0.0,0.0,0.0,2.0121,2.1133,2.1509,2.1655,2.2942,2.4735,2.6754,3.3161,3.9711,4.1456,4.7158,5.3155,5.5602,5.6299,5.8006,6.3441,6.4689,6.5119,6.6202,6.976,7.1644,6.8712,7.2158,7.6739,8.0773,8.1976,8.4885,9.1442,9.2613,9.4208,9.7483,9.7004,9.6831,9.7534,9.6972,9.6679,9.6819,9.692,9.7577,9.8852,9.9257,9.9885,10.0826,10.1303,10.1097,10.0185,9.9401,9.9235,9.9706,9.889,9.8279,9.783,9.7993,9.7562,9.6685,9.6685,9.6685,9.6685,9.6685,9.6685,9.6685,9.6685,9.6685,9.6685,0.0,0.0,0.0,0.0,0.0,0.0,0.0,1.541,1.541,1.541,1.541,1.541,0.0,0.0,0.0,1.313,1.1951,1.1315,1.1601,1.2735,1.3686,1.4291,1.5963,1.7848,1.9901,2.0522,2.1225,2.2159,1.9915,0.0,0.0,0.0,1.6357,1.6219,0.0,1.5832,0.0,0.0,1.5832,1.5832,1.5805,1.5631,1.5391,1.5429,0.0,0.0,0.0,0.0,0.0,0.0,0.0,0.0,1.8344,2.0022,2.1816,2.0142,2.3769,2.9216,3.3141,3.6858,4.1866,5.1731,5.3809,5.4539,5.8612,6.2442,6.5822,6.7462,6.6693,6.764,7.3753,7.1884,7.0775,7.4407,7.5497,7.7379,8.1474,8.2649,8.5426,9.211,9.2896,9.4172,9.744,9.7027,9.6793,9.7553,9.7003,9.6638,9.6617,9.6866,9.7563,9.8763,9.9047,9.9746,10.0903,10.1181,10.0928,10.0087,9.9346,9.8949,9.889,9.8215,9.7927,9.786,9.7027,9.6685,9.6685,9.6685,9.6685,9.6685,9.6685,9.6685,9.6685,9.6685,9.6685,9.6685,0.0,0.0,0.0,0.0,0.0,0.0,1.541,1.541,1.541,1.541,1.541,1.541,1.541,1.451,0.0,1.3974,1.326,1.3058,1.347,1.3938,1.459,1.5299,1.7372,1.87,1.9209,2.0844,2.1033,1.9675,2.0698,2.0475,0.0,0.0,0.0,1.5925,0.0,1.5832,0.0,1.5832,1.5832,1.5805,1.5578,1.5444,1.5429,1.5817,1.5878,0.0,0.0,0.0,0.0,0.0,0.0,0.0,1.7459,1.8668,1.9557,2.0376,2.5254,3.035,3.0874,3.8769,4.7388,5.0175,5.582,6.0612,6.0775,6.4612,6.7844,6.6832,6.8324,7.0879,7.4307,7.4149,7.4048,7.5448,7.5826,7.7562,8.2143,8.2843,8.5426,9.211,9.2896,9.4192,9.7392,9.6948,9.6779,9.7477,9.713,9.6832,9.6617,9.7068,9.7973,9.9358,9.9279,9.9947,10.1503,10.1392,10.0595,9.9235,9.9122,9.8712,9.8058,9.8529,9.8772,9.8651,9.7282,9.6685,9.6685,9.6685,9.6685,9.6685,9.6685,9.6685,9.6685,9.6685,9.6685,9.6685,0.0,0.0,0.0,0.0,0.0,0.0,0.0,0.0,1.5605,1.4902,1.5177,1.5235,1.4864,1.4451,0.0,0.0,1.3604,1.3375,1.3736,1.4561,1.5582,1.6973,1.8138,1.8976,1.9446,2.0661,2.0971,2.0368,2.1049,2.015,1.7762,1.7283,0.0,1.5832,0.0,1.5832,1.5832,1.5832,1.5832,1.5818,1.5658,1.5431,1.5241,1.5436,1.5389,1.5106,1.4951,0.0,0.0,0.0,0.0,0.0,0.0,0.0,1.9193,1.9852,2.3409,2.8328,3.3638,4.025,4.6834,5.1962,5.7165,6.093,6.0367,6.3955,6.7476,6.7727,7.0549,7.326,7.4672,7.5138,7.5497,7.5856,7.6425,7.8323,8.2462,8.3227,8.5789,9.2181,9.3277,9.475,9.7997,9.755,9.7401,9.8233,9.7494,9.6876,9.66,9.7505,9.8435,9.939,9.9654,10.0422,10.17,10.1096,10.0185,9.9007,9.9007,9.8772,9.8405,9.8405,9.8252,9.783,9.7064,9.6685,9.6685,9.6685,9.6685,9.6685,9.6685,9.6685,9.6685,9.6685,9.6685,9.6685,0.0,0.0,0.0,0.0,0.0,0.0,0.0,0.0,0.0,1.4547,1.4864,1.4982,1.4451,1.4273,1.4273,0.0,0.0,0.0,1.3836,1.5113,1.6647,1.8407,1.8523,1.8965,1.9668,2.0195,2.08,2.1511,2.0863,1.9156,1.6466,1.6197,0.0,1.6103,0.0,0.0,1.5832,1.5832,1.5832,1.5832,1.5778,1.5471,1.503,1.4977,1.4656,1.4229,1.4175,1.4162,1.4318,1.5159,0.0,0.0,0.0,0.0,1.9424,1.909,2.1533,2.6382,3.5714,4.0433,4.4867,5.45,5.8118,5.9235,5.9402,6.2809,6.6472,6.8716,7.1998,7.4426,7.4869,7.5437,7.5946,7.6036,7.7053,7.9007,8.2716,8.3611,8.6217,9.2216,9.364,9.535,9.8471,9.8224,9.8117,9.8902,9.7898,9.7026,9.6605,9.7979,9.8875,9.9125,9.9986,10.08,10.158,10.0693,9.9796,9.9007,9.8712,9.8651,9.8772,9.7993,9.7388,9.6877,9.6762,9.6685,9.6685,9.6685,9.6685,9.6685,9.6685,9.6685,9.6685,9.6685,9.6685,9.6685,0.0,0.0,0.0,0.0,0.0,0.0,0.0,0.0,0.0,0.0,1.4746,1.4569,1.5177,1.4628,1.451,1.5177,1.5118,1.5291,1.5712,0.0,0.0,1.8066,1.8437,1.8621,1.8809,1.959,1.9946,1.9706,2.0003,1.9696,1.8948,1.7948,1.7404,1.7404,1.6292,0.0,0.0,1.5832,1.5832,1.5805,1.5551,1.5404,1.5311,1.5057,1.491,1.4816,1.4549,1.4469,1.4416,1.4331,1.4724,0.0,0.0,0.0,1.903,1.8616,2.3411,2.9003,2.9439,3.7018,4.6815,5.4892,5.7856,5.907,5.9806,6.3111,6.6002,6.6899,6.9876,7.277,7.4564,7.5437,7.6066,7.6604,7.7322,7.9159,8.3256,8.3931,8.6217,9.2216,9.364,9.5131,9.7643,9.8414,9.85,9.8089,9.8092,9.7689,9.6644,9.8106,9.8942,9.8859,10.0095,10.0897,10.1326,10.0633,9.9796,9.9007,9.7632,9.7317,9.7927,9.721,9.7137,9.7595,9.699,9.6685,9.6685,9.6685,9.6685,9.6685,9.6685,9.6685,9.6685,9.6685,9.6685,9.6685,0.0,0.0,0.0,0.0,0.0,0.0,0.0,0.0,0.0,0.0,0.0,1.3674,1.4034,1.4154,1.451,1.5352,1.541,1.5586,1.6096,1.666,1.7207,1.7637,1.8066,1.8398,1.8633,1.9238,1.9753,2.0108,2.0768,2.1137,2.1171,2.021,1.9405,1.8688,1.7404,1.6857,0.0,0.0,1.5832,1.5818,1.5685,0.0,0.0,0.0,1.6753,1.8474,1.5727,1.4763,1.4723,1.4429,1.4895,1.5673,1.5711,0.0,0.0,0.0,2.0536,2.4258,2.9497,3.7003,4.5234,5.3219,5.5915,5.7175,5.9327,6.225,6.4962,6.5923,6.7646,6.9876,7.2686,7.4043,7.5121,7.6613,7.7682,7.9615,8.3447,8.4657,8.6962,9.2313,9.4612,9.6462,9.8229,9.8954,9.9248,9.9148,9.8178,9.7485,9.7227,9.8158,9.8961,9.9556,10.0703,10.1284,10.1289,10.0098,9.9346,9.9007,9.7459,9.7317,9.8405,9.721,9.6877,9.7137,9.6801,9.6685,9.6685,9.6685,9.6685,9.6685,9.6685,9.6685,9.6685,9.6685,9.6685,9.6685,0.0,0.0,0.0,0.0,0.0,0.0,0.0,0.0,0.0,0.0,0.0,1.3264,1.3447,0.0,0.0,0.0,1.5586,1.5723,1.6096,1.6367,1.6758,1.7207,1.7617,1.8008,1.832,1.8848,1.9531,2.0391,2.1289,2.1992,2.2519,2.202,2.1302,2.0314,1.8503,1.7498,1.7124,1.6197,1.5832,0.0,0.0,0.0,0.0,0.0,1.9765,2.198,0.0,1.5597,1.5542,1.5149,1.5619,1.6362,1.6292,1.7446,0.0,0.0,0.0,1.9216,2.8729,3.4212,3.94,4.8359,5.1906,5.413,5.77,6.1035,6.3893,6.5257,6.5655,6.6871,7.0656,7.2686,7.4518,7.6502,7.7921,7.995,8.3478,8.4874,8.7209,9.197,9.4962,9.7255,9.8874,9.961,10.0105,10.0377,9.9094,9.8331,9.8333,9.8564,9.9029,9.9788,10.1077,10.1611,10.1289,9.9606,9.874,9.8712,9.7317,9.7388,9.8651,9.7317,9.6685,9.6685,9.6685,9.6685,9.6685,9.6685,9.6685,9.6685,9.6685,9.6685,9.6685,9.6685,9.6685,9.6685,0.0,0.0,0.0,0.0,0.0,0.0,0.0,0.0,0.0,0.0,0.0,1.3882,1.471,1.5178,1.5631,1.5994,1.6096,1.6096,1.6115,1.6154,1.6289,1.6738,1.7187,0.0,1.7441,1.8242,1.9082,1.9941,2.084,2.1699,2.2519,2.2843,2.295,2.2775,1.9239,1.7044,1.5927,1.5832,1.5832,1.6211,2.0604,2.2576,2.2895,2.3734,2.4302,2.3762,1.8845,1.7131,1.7086,1.6757,1.6831,1.7188,1.7664,1.7951,1.7752,0.0,0.0,0.0,2.405,2.5319,2.7651,3.952,4.5188,4.9295,5.4907,5.9691,6.3149,6.432,6.3716,6.4383,6.8996,7.2056,7.4518,7.6502,7.7921,7.995,8.3478,8.4091,8.5986,9.1108,9.3794,9.6243,9.8777,10.0298,10.1225,10.1214,10.1604,10.1297,10.018,9.9712,9.9254,9.8865,10.0793,10.1595,10.1289,9.9264,9.8102,9.786,9.7101,9.7101,9.783,9.7027,9.6685,9.6685,9.6685,9.6685,9.6685,9.6685,9.6685,9.6685,9.6685,9.6685,9.6685,9.6685,9.6685,9.6685,0.0,0.0,0.0,0.0,0.0,0.0,0.0,0.0,0.0,0.0,0.0,0.0,0.0,1.5423,1.5798,1.6441,1.6484,0.0,0.0,1.6328,1.6426,1.6309,1.6992,1.7383,1.7383,1.8203,1.8926,1.9512,2.0391,2.125,2.2109,2.2539,2.2418,2.1854,1.977,1.858,1.8025,1.6466,1.5832,1.6224,2.0971,2.4594,2.717,2.5605,2.8341,3.1987,2.523,2.2086,2.1227,2.0867,1.9078,1.7014,1.6792,1.7268,1.7527,1.6067,1.5205,1.6043,2.1404,2.3108,2.5544,3.5066,4.1997,4.7782,5.2074,5.6909,6.1272,6.3444,6.2411,6.2423,6.6952,6.9961,7.2958,7.6219,7.7921,7.995,8.3478,8.43,8.6253,9.1029,9.4329,9.6893,9.8798,10.0375,10.1302,10.1292,10.4114,10.5717,10.5299,10.2304,10.0882,10.1366,10.1504,10.1404,10.1281,9.9253,9.7816,9.713,9.6843,9.7101,9.7763,9.7027,9.6685,9.6685,9.6685,9.6685,9.6685,9.6685,9.6685,9.6685,9.6685,9.6685,9.6685,9.6685,9.6685,9.6685,0.0,0.0,0.0,0.0,0.0,1.0795,1.1089,1.1395,1.1973,0.0,0.0,0.0,0.0,0.0,1.6358,1.6562,1.6362,1.6268,1.6309,1.6426,1.6367,1.6135,1.6621,1.7012,1.7168,1.7988,1.8711,1.9297,2.0137,2.1036,2.1781,2.2369,2.2437,2.1882,2.1068,1.9995,1.8764,1.6655,1.5832,1.6388,2.2733,2.6736,2.8706,2.8112,3.0715,3.3983,2.8095,2.5277,2.458,2.578,2.4273,2.1554,1.951,1.7877,1.6408,1.5101,1.4629,1.5226,1.8461,1.9907,2.2261,2.9364,3.5739,4.1668,4.7284,5.2101,5.6726,6.1076,6.1715,6.2584,6.5517,6.7136,6.9867,7.504,7.7462,7.9889,8.2967,8.4075,8.6054,9.0265,9.3491,9.6599,9.946,10.068,10.1302,10.1292,10.5515,10.7981,10.8004,10.3707,10.1584,10.2322,10.1709,10.1322,10.1295,9.8894,9.7392,9.6721,9.6694,9.699,9.7422,9.6915,9.6685,9.6685,9.6685,9.6685,9.6685,9.6685,9.6685,9.6685,9.6685,9.6685,9.6685,9.6685,9.6685,9.6685,0.0,0.0,0.0,0.0,1.1009,1.1102,1.141,1.2269,1.3067,1.3469,0.0,0.0,0.0,0.0,0.0,1.6508,1.5739,1.5762,1.6694,1.6348,1.6154,1.6154,0.0,0.0,1.6738,1.7578,1.8418,1.9277,2.0117,2.086,2.1369,2.2522,2.3063,2.3123,2.3051,2.1112,1.7684,1.6386,1.5832,1.6662,2.6461,2.896,2.7437,3.1696,3.1946,2.9682,2.7526,2.6696,2.7125,3.1194,3.2004,3.0463,2.5569,1.9579,1.4416,1.3828,1.4068,1.4576,0.0,0.0,0.0,2.1896,2.5625,3.0624,3.9971,4.5142,4.9786,5.6841,6.1544,6.4228,6.4529,6.3567,6.5162,7.2439,7.6475,7.9566,8.1818,8.3105,8.519,8.8689,9.1412,9.523,10.0801,10.1338,10.1307,10.1408,10.5515,10.8011,10.7888,10.3687,10.132,10.1293,10.1323,10.1322,10.1257,9.8233,9.6703,9.6725,9.6725,9.6685,9.6685,9.6685,9.6685,9.6685,9.6685,9.6685,9.6685,9.6685,9.6685,9.6685,9.6685,9.6685,9.6685,9.6685,9.6685,9.6685,0.0,0.0,0.0,1.1263,1.1303,1.1476,1.1984,1.2267,1.2896,0.0,0.0,0.0,0.0,0.0,0.0,1.683,1.6669,1.6725,1.7181,1.709,1.6875,1.6562,1.6543,1.6758,1.7187,1.7441,1.8056,1.901,1.9263,1.9905,2.086,2.1128,2.1958,2.3088,2.3066,2.1608,1.8851,1.672,1.5952,1.6891,2.4872,2.8815,3.0241,3.4786,3.875,4.1367,3.8804,3.696,3.5797,3.6942,3.2301,2.5074,1.9819,1.656,1.452,1.4135,1.4045,1.4148,1.3824,0.0,0.0,0.0,0.0,0.0,2.3818,3.847,5.2357,5.5848,5.7424,5.9502,6.3792,6.4299,6.477,6.6671,7.369,7.8956,7.9597,8.0,8.2409,8.8435,9.2977,9.711,10.0897,10.1338,10.2306,10.4813,10.6916,10.6879,10.4403,10.3108,10.2096,10.1297,10.1311,10.1307,10.1281,9.8252,9.6693,9.6681,9.6681,9.6657,9.6685,9.6692,9.6694,9.6685,9.6685,9.6685,9.6685,9.6685,9.6685,9.6685,9.6685,9.6685,9.6685,9.6685,9.6685,9.6685,0.0,0.0,1.1196,1.1543,1.1717,1.1944,1.2412,1.3072,1.3853,0.0,0.0,0.0,0.0,0.0,0.0,0.0,1.7692,1.7714,1.7901,1.7734,1.7461,1.7031,1.6836,1.687,1.7278,1.7539,1.7969,1.8543,1.9265,1.9945,2.0631,2.0566,2.1131,2.202,2.0165,1.8872,1.7825,1.6369,1.5896,1.6547,2.0982,2.4977,2.9298,3.8016,4.2416,4.3349,4.0107,3.8202,3.7585,4.1114,3.5265,2.6175,2.2746,1.8644,1.5099,1.4616,1.4274,1.4027,1.3659,0.0,0.0,1.5612,0.0,0.0,1.6661,2.7933,4.0717,4.9936,5.5588,5.9829,6.3199,6.3839,6.3745,6.3864,7.0378,7.6298,7.8543,8.1306,8.5371,9.1509,9.4921,9.7877,10.1011,10.1338,10.2701,10.6095,10.7399,10.6283,10.2392,10.2681,10.2399,10.1298,10.1307,10.1315,10.1301,9.9514,9.7928,9.669,9.669,9.6721,9.6685,9.6718,9.6721,9.6685,9.6685,9.6685,9.6685,9.6685,9.6685,9.6685,9.6685,9.6685,9.6685,9.6685,9.6685,9.6685,0.0,0.0,1.1276,1.1864,1.2184,1.2478,1.2916,1.4115,1.5168,0.0,0.0,0.0,0.0,0.0,0.0,0.0,1.8728,1.8638,1.8757,1.834,1.791,1.7539,1.7051,1.6908,1.7193,1.7648,1.791,1.7973,1.9533,2.0276,2.0328,2.0345,2.043,2.0423,1.6033,1.4728,1.5812,1.5792,1.5809,1.5806,1.6466,2.0154,2.6934,4.0424,4.3768,4.065,3.7114,3.571,3.6773,4.3876,4.0167,3.2032,2.9359,2.2625,1.5716,1.5272,1.4708,1.4259,1.4259,1.4562,0.0,1.5657,1.5813,0.0,1.5866,1.8237,2.5452,4.2697,5.4858,6.2458,6.2476,6.2661,6.2864,6.2745,6.7572,7.295,7.7724,8.3616,8.9647,9.5184,9.634,9.7937,10.099,10.133,10.2597,10.5603,10.6794,10.5702,10.1718,10.2381,10.2371,10.1273,10.1323,10.1277,10.1283,10.1308,9.9728,9.6675,9.6675,9.6862,9.7171,9.6857,9.6713,9.6691,9.6725,9.6685,9.6685,9.6685,9.6685,9.6685,9.6685,9.6685,9.6685,9.6685,9.6685,9.6685,1.1519,1.1681,1.1877,1.2553,1.2701,1.2919,1.3707,1.4088,1.4528,1.5062,0.0,0.0,0.0,0.0,0.0,0.0,0.0,0.0,1.9613,1.8945,1.8477,1.8398,1.7484,1.7285,1.781,1.7271,1.7298,1.7995,1.8331,1.8504,1.8478,1.8486,1.9297,2.0447,1.6026,1.4747,1.5819,1.5759,1.5769,1.5795,1.6466,2.2169,3.1218,3.8494,4.3182,4.6121,4.6126,4.6064,4.6082,4.6305,4.535,4.1543,2.5115,1.8079,1.5721,1.5694,1.5594,1.5494,1.5465,1.4877,1.4532,1.5549,1.5777,0.0,1.5791,2.767,4.012,4.5184,5.3673,6.0187,6.0102,6.1624,6.2839,6.2802,6.9108,7.4526,7.5487,7.6788,8.0884,8.9588,9.4203,9.7881,10.0973,10.1294,10.1587,10.2213,10.3297,10.3507,10.2617,10.281,10.2371,10.1273,10.1323,10.1326,10.1283,10.1292,9.9762,9.6734,9.6734,9.8042,10.0289,9.7817,9.6718,9.6713,9.6694,9.6685,9.6685,9.6685,9.6685,9.6685,9.6685,9.6685,9.6685,9.6685,9.6685,9.6685,1.1519,1.1854,1.2225,1.2741,1.3198,1.3561,1.4015,1.4456,1.4843,1.5137,0.0,0.0,0.0,0.0,0.0,0.0,0.0,0.0,1.9627,1.9639,1.9414,1.8984,1.8359,1.7997,1.7974,1.7589,1.7566,1.8019,1.7109,1.7123,1.7994,1.7981,1.745,1.6409,1.4832,1.4462,1.4959,1.5538,1.5801,1.5888,1.6746,2.6495,4.0072,3.7514,3.8195,4.1217,4.6784,4.8857,4.7887,4.192,3.9724,3.8061,2.8537,2.15,1.7533,2.1576,1.947,1.5773,1.5815,1.5347,1.5081,1.5697,1.5832,0.0,0.0,2.2995,3.0018,3.0911,3.4595,3.7888,3.8505,3.9516,4.1417,4.5007,4.896,5.6635,7.0924,7.2844,7.6342,8.5773,9.123,9.4889,9.6441,9.7893,9.9475,10.1181,10.0707,10.0305,10.0312,10.1984,10.2382,10.1293,10.1313,10.1318,10.1289,10.1306,9.9744,9.6685,9.6704,9.8291,10.1235,9.9722,9.8179,9.6729,9.673,9.6685,9.6685,9.6685,9.6685,9.6685,9.6685,9.6685,9.6685,9.6685,9.6685,9.6685,1.1463,1.1984,1.2478,1.2786,1.3534,1.4122,1.4242,1.491,1.5431,1.5551,1.6032,1.6926,1.8444,1.9146,1.9889,0.0,0.0,0.0,2.0761,2.1267,2.0956,1.918,1.8879,1.8516,1.8027,1.8008,1.8034,1.7966,1.6273,1.6309,1.7995,1.7991,1.6507,1.3928,1.4935,1.4999,1.451,1.546,1.5927,1.6405,1.9657,3.1004,4.5261,3.8909,3.6417,3.7459,4.5965,4.8904,4.7328,3.6868,3.272,3.181,3.0971,2.6047,2.191,2.8393,2.358,1.5828,1.4573,1.5045,1.5827,1.583,1.5763,1.5804,0.0,0.0,0.0,1.5741,1.583,1.6102,1.7033,1.7472,1.9458,2.5287,2.7119,3.7876,6.6796,6.7082,6.9308,8.2943,8.7545,8.9915,9.0778,9.4144,9.7443,10.0125,9.8685,9.7708,9.7695,10.0389,10.1789,10.1604,10.1388,10.1291,10.1289,10.1294,9.9746,9.6685,9.6718,9.7955,10.0425,10.0401,9.9039,9.6732,9.6691,9.6685,9.6685,9.6685,9.6685,9.6685,9.6685,9.6685,9.6685,9.6685,9.6685,9.6685,1.181,1.2365,1.2799,1.3106,1.3681,1.4269,1.479,1.5164,1.5578,1.6099,1.646,1.7626,2.0023,2.2728,2.5296,2.7599,3.0083,2.968,2.5381,2.5538,2.3534,1.8453,1.8136,1.8086,1.8027,1.8008,1.7982,1.8006,1.623,1.6315,1.7994,1.8033,1.862,1.9634,1.9795,1.8282,1.5617,1.5719,1.6462,1.825,2.8873,3.3969,3.6082,4.4079,4.7077,4.7364,4.8573,4.8995,4.7369,3.6806,3.3279,3.18,2.3515,2.5899,3.1609,3.1579,2.4843,1.6211,1.0397,1.2264,1.5804,1.5791,1.5813,1.579,1.5796,0.0,1.5817,1.575,0.0,1.5859,1.5973,0.0,0.0,1.8644,2.2874,3.6543,6.6719,5.3301,5.1286,8.1073,8.2781,8.3079,8.7132,9.2858,9.6476,9.6838,9.7377,9.7706,9.7695,9.8085,9.9631,10.2596,10.1815,10.1291,10.1289,10.1308,9.9744,9.6685,9.6702,9.6906,9.72,9.7209,9.7012,9.6727,9.6655,9.6685,9.6685,9.6685,9.6685,9.6685,9.6685,9.6685,9.6685,9.6685,9.6685,9.6685,1.1904,1.2492,1.3053,1.3186,1.3975,1.4683,1.4923,1.5498,1.6059,1.6473,1.6927,1.7688,1.8978,2.0267,2.2401,2.5806,2.7872,2.793,2.5582,2.6717,0.0,1.921,1.9358,1.905,1.8005,1.8033,1.8023,1.8022,1.7292,1.7297,1.7969,1.5713,1.5431,1.6793,1.6799,2.3026,3.2766,2.0816,1.6556,1.9096,3.6236,4.3375,4.3686,4.2511,4.5417,5.0298,5.0359,4.586,3.9225,3.4794,3.0274,2.4867,1.6885,1.9911,2.703,3.061,2.5542,1.7868,1.4479,1.5175,1.67,1.5964,1.5753,1.5791,1.5776,1.5843,1.5832,1.5832,0.0,0.0,0.0,0.0,0.0,0.0,2.0825,2.9513,4.4937,3.8738,4.3546,7.3174,6.7438,6.7912,8.5324,9.0857,8.9259,7.9413,9.0508,9.7691,9.7701,9.7695,9.9289,10.2791,10.189,10.1303,10.1289,10.1277,10.0684,9.9309,9.7567,9.6658,9.6745,9.8571,9.8386,9.6708,9.6657,9.6685,9.6685,9.6685,9.6685,9.6685,9.6685,9.6685,9.6685,9.6685,9.6685,9.6722,1.2024,0.0,1.3213,1.3213,1.4188,1.5017,1.5177,1.5885,1.65,1.6794,1.7341,1.7956,1.8768,2.063,2.3337,2.6542,2.9787,3.0348,2.7554,2.9621,2.746,1.9919,2.0638,2.051,1.8737,1.8727,1.8705,1.8724,1.7153,1.6455,1.635,1.3586,1.2961,1.4075,1.4418,2.6372,4.5348,3.0426,2.176,1.945,3.4976,4.3443,4.5945,4.1724,4.4762,5.1076,4.8005,4.1351,3.3896,3.3831,2.9689,2.3181,1.5839,1.8622,2.5027,2.7875,2.4559,1.9294,1.649,1.5648,1.5503,1.5864,1.6104,1.6238,1.5922,1.5778,1.5843,1.5843,1.5777,0.0,0.0,0.0,1.5757,0.0,0.0,2.4256,2.7481,2.8992,3.7927,5.9664,5.2775,5.7323,8.5544,8.9403,8.274,6.5082,8.4598,9.741,9.7682,9.7689,9.9289,10.2806,10.1914,10.1311,10.1289,10.1302,10.1306,10.1333,9.818,9.6697,9.6769,9.9017,9.8832,9.6732,9.6652,9.6685,9.6685,9.6685,9.6685,9.6685,9.6685,9.6685,9.6685,9.6685,9.6722,9.6682,1.2291,1.2786,1.3213,1.3213,1.4188,1.515,1.5712,1.6313,1.6794,1.7101,1.7662,1.8673,2.0559,2.7506,3.2473,3.3689,4.0788,4.1664,3.3749,3.583,3.2005,2.0057,2.177,2.2189,2.0506,2.0523,2.0536,2.0525,1.5104,1.2493,1.2479,1.2343,1.2964,1.4188,1.5243,2.7082,4.6238,4.5536,3.5301,1.9464,2.1323,2.6727,3.5033,4.4851,4.9661,5.0097,3.9485,3.5429,3.5152,3.5192,3.4132,3.1606,2.3391,2.6327,3.1558,2.3763,2.117,1.9529,1.2835,1.0437,1.0984,1.5023,1.6863,1.7186,1.6022,1.577,1.5817,1.5817,1.5813,1.5832,1.5845,1.5845,0.0,0.0,0.0,0.0,0.0,2.7027,3.2437,3.9548,4.2229,5.6156,8.85,8.8874,7.9085,5.9698,8.1901,9.6733,9.7655,9.7695,9.9289,10.2794,10.1906,10.1311,10.1289,10.1288,10.1315,10.1333,9.8195,9.6717,9.6697,9.6769,9.6842,9.6697,9.6695,9.6685,9.6685,9.6685,9.6685,9.6685,9.6685,9.6685,9.6685,9.6685,9.6682,9.6677,1.2345,1.2799,1.3213,1.3213,1.4188,1.5164,1.5738,1.6326,1.7368,1.9239,2.016,2.1518,2.4038,2.6729,3.0392,3.5241,3.8241,3.8401,3.4907,3.7332,3.2598,1.8829,2.1344,2.284,2.2314,2.2292,2.1722,2.0639,1.5794,1.3081,1.2334,1.3153,1.4126,1.5214,1.5635,1.9681,2.6939,4.0625,4.3423,3.8936,3.9366,3.3705,2.6375,3.6063,4.024,4.0141,3.6521,3.5251,3.5166,3.5235,3.487,3.3913,3.0434,3.1076,3.2819,3.0069,2.9285,2.8687,2.6383,1.8173,1.0706,1.1617,1.5395,1.8422,1.7252,1.7016,1.6733,1.5935,1.5789,1.5796,1.5796,0.0,0.0,0.0,0.0,0.0,0.0,2.624,3.1567,3.6265,3.9119,4.6756,6.2023,6.4291,6.2923,5.8336,8.1776,9.6716,9.7643,9.7112,9.8663,10.2784,10.1914,10.1311,10.1289,10.1289,10.1277,10.1333,9.8157,9.6692,9.6695,9.6728,9.6691,9.6695,9.6728,9.6685,9.6685,9.6685,9.6685,9.6685,9.6685,9.6734,9.6712,9.6704,9.6718,9.6966,1.2665,1.3026,1.336,1.336,1.4335,1.5311,1.5899,1.6486,1.7822,2.0481,2.159,2.3153,2.5825,2.7808,3.1031,3.6173,3.8563,3.8469,3.5797,3.8709,3.4484,2.0361,2.6585,2.7296,2.0698,2.2241,2.1742,1.892,1.5689,1.3665,1.2946,1.3776,1.4688,1.58,1.5831,1.6089,1.7824,3.8418,4.8294,4.9454,4.5114,3.4668,2.2381,2.8484,3.2713,3.5178,3.5115,3.5186,3.5177,3.5097,3.5197,3.5041,3.4349,3.4017,3.4029,3.3462,3.3408,3.2518,2.8696,2.3326,1.8639,1.8368,1.7303,1.6629,1.7955,1.8248,1.7857,1.6698,1.6432,1.6302,1.5908,1.5757,0.0,0.0,0.0,0.0,0.0,2.6134,2.9531,3.205,3.5664,3.9971,4.5114,4.9402,5.737,7.0619,8.5817,9.5261,9.7082,9.6948,9.8085,10.1,10.1215,10.1284,10.128,10.1289,10.1277,10.1333,9.8157,9.6714,9.6685,9.6685,9.6685,9.6685,9.6685,9.6685,9.6685,9.6685,9.6722,9.6718,9.6734,9.6712,9.6748,9.6728,9.7415,9.865,1.3213,1.3467,1.3612,1.3639,1.4656,1.5591,1.6179,1.6767,1.8143,2.0922,2.2044,2.3647,2.6413,3.0893,3.4793,3.7218,4.1629,4.1972,3.6485,4.0273,3.7312,2.5133,3.7086,3.5624,1.7718,2.1768,2.134,1.5742,1.4734,1.4206,1.4122,1.406,1.471,1.5819,1.579,1.6458,1.8924,3.9935,4.9513,4.9564,3.7672,2.8949,2.3,2.3425,2.8344,3.5269,3.5183,3.5231,3.5284,3.5298,3.4821,3.4478,3.5019,3.4795,3.415,3.3007,3.2611,3.0326,1.9868,2.4715,3.2733,3.3337,2.2497,1.3281,1.8856,1.9795,1.9096,1.7968,1.7903,1.7639,1.616,1.613,0.0,0.0,0.0,0.0,0.0,2.6598,2.6681,2.6689,3.1853,3.6468,3.8982,4.6418,6.3062,9.1977,9.1399,9.1548,9.584,9.7112,9.7695,9.771,10.0086,10.1379,10.1313,10.1283,10.1277,10.1333,9.8157,9.6714,9.6685,9.6685,9.6685,9.6685,9.6685,9.6685,9.6685,9.6722,9.6682,9.6709,9.686,9.6827,9.6559,9.6867,9.8882,10.1506,1.3253,1.3801,1.4429,1.487,1.519,1.5591,1.6179,1.6767,1.8731,2.3153,2.4502,2.664,3.0835,3.2572,3.4582,3.7028,4.0247,4.0545,3.6861,3.8936,3.9335,3.6886,4.3627,4.4672,3.8569,3.8463,3.0968,1.5748,1.5524,1.494,1.4135,1.4065,1.4695,1.5819,1.5783,1.6466,1.8949,3.996,4.4635,3.7369,2.895,2.4518,2.3525,2.9702,3.342,3.5166,3.522,3.5283,3.5193,3.5258,2.9555,2.3783,3.2385,2.9338,2.2198,2.2007,2.1923,2.1234,1.8485,1.934,2.3117,3.1416,3.0464,2.8021,2.9427,2.4999,2.0355,1.9231,2.2472,2.3804,1.8158,2.0444,2.2757,2.1451,0.0,0.0,0.0,2.7879,2.8918,2.8926,3.2811,3.5738,3.6411,6.3094,7.5893,6.5076,6.6967,7.5594,9.1646,9.5796,9.7701,9.7706,10.0799,10.2101,10.1313,10.1283,10.1277,10.1333,9.8157,9.6714,9.6685,9.6685,9.6685,9.6685,9.6685,9.6685,9.6722,9.6682,9.6718,9.6892,9.9378,9.782,9.4847,9.8845,10.0814,10.1521,1.4015,1.4482,1.5044,1.5511,1.666,1.7662,1.813,1.7929,1.9533,2.4556,2.5985,2.7883,3.145,3.3133,3.4936,3.7546,3.9225,3.9004,3.6247,4.0173,4.1978,4.0535,4.6568,4.9145,4.7548,4.5679,3.5579,1.6574,1.6089,1.5518,1.4807,1.4318,1.4694,1.5819,1.5804,1.6476,1.8483,3.1347,3.3444,2.7772,2.4266,2.5057,0.0,3.3436,3.2093,2.772,2.7597,2.7528,2.7611,2.8029,2.3648,1.9515,2.5981,2.355,1.8336,1.8184,1.835,1.8225,1.794,2.1325,2.6513,3.2615,3.3863,3.467,3.9114,3.6583,3.3062,3.239,3.4993,3.5826,3.0978,2.8323,2.622,2.4503,2.5275,2.6453,2.7765,2.8976,2.9803,2.9784,3.313,3.6402,3.8742,5.7144,6.4778,5.5067,6.7957,7.6755,7.7873,8.906,9.6145,9.7667,9.9608,10.0812,10.1322,10.1302,10.1329,10.1333,9.8157,9.6714,9.6682,9.6682,9.6682,9.6682,9.6718,9.6718,9.6682,9.6714,9.7502,9.8734,9.8261,9.6156,9.3935,9.6946,9.9483,10.122,1.5057,1.5284,1.5565,1.5939,1.8437,2.0628,2.1269,2.0281,2.1162,2.5919,2.7228,2.8551,3.0702,3.3227,3.5679,3.7651,3.8279,3.768,3.5202,4.1984,4.4324,4.0593,4.7382,5.0141,4.8125,4.7168,3.7677,1.9414,1.7022,1.5825,1.5776,1.4823,1.481,1.5763,1.5771,1.6065,1.6743,1.8857,2.0836,2.2826,2.3967,2.887,3.497,3.352,2.664,1.7935,1.8104,1.8002,1.8053,1.8538,1.8783,1.8748,1.8774,1.8754,1.8909,1.8809,1.8823,1.8747,1.8211,2.6465,3.5305,3.5152,3.4496,3.6292,4.684,4.9227,4.9229,4.9146,4.9071,4.8817,4.8495,3.7467,2.8085,2.7187,2.8857,3.0228,3.0245,3.0669,3.0947,3.0557,3.3437,0.0,4.2456,4.1544,4.4856,5.4949,7.7799,8.224,6.1524,7.8727,9.157,9.6679,9.7377,9.779,9.7966,10.0195,10.1296,10.1295,9.8157,9.6686,9.6677,9.7158,9.7305,9.7305,9.6892,9.6929,9.7342,9.7374,9.8552,10.0001,9.5401,9.3553,9.3587,9.364,9.6553,9.984,1.5578,1.5712,1.6005,1.678,1.9359,2.2164,2.4649,2.481,2.5838,2.9152,2.9927,3.1156,3.3708,3.4456,3.5039,3.5632,3.7731,3.7986,3.5322,4.028,4.3572,4.4316,4.7997,4.8169,4.4428,4.6933,4.2114,2.9168,2.019,1.5818,1.5765,1.5644,1.5631,1.5763,1.5771,1.4025,1.1192,1.2163,1.9779,3.1383,3.2543,3.3824,3.4163,2.4528,2.005,1.8573,1.8589,1.8658,1.8623,1.8678,1.8768,1.8857,1.8905,1.8905,1.8891,1.8905,1.8836,1.8893,1.8608,2.7509,3.6334,3.5511,3.5124,3.7779,4.8398,5.105,5.1035,5.089,4.9813,5.1124,5.8618,4.2572,2.9719,3.3819,3.3429,3.2535,3.2479,3.5512,3.6945,0.0,0.0,3.6736,3.9807,4.2375,4.7124,5.5122,6.1284,6.2895,5.8726,6.6684,7.7843,9.1914,9.5845,9.2159,8.053,9.4319,10.1291,10.1333,9.8139,9.6686,9.6751,9.9411,10.0745,10.0478,9.785,9.8222,10.074,10.0656,9.8404,9.4905,9.3972,9.3666,9.3571,9.3569,9.4155,9.4819,1.6433,1.6513,1.7181,1.9292,2.1977,2.4877,2.7989,2.9633,3.0595,3.0782,3.1196,3.1957,3.324,3.475,3.5658,3.5658,3.7034,3.7062,3.5658,3.9211,4.1628,4.2342,4.7849,4.8866,4.436,4.2691,3.8697,3.2608,2.1998,1.6344,1.5841,1.5797,1.5778,1.5848,1.6426,1.4394,1.0776,1.8986,2.7081,3.389,2.8463,2.6141,2.5599,2.0362,1.8656,1.8823,1.8802,1.8891,1.8891,1.8891,1.8708,1.8762,1.8762,1.8762,1.8762,1.8762,1.8708,1.8836,1.8858,2.7631,3.6759,3.6228,3.5993,3.7419,4.2786,4.856,5.2816,5.2713,5.1343,5.2712,6.1219,4.4658,3.2377,4.0706,5.0803,5.6854,5.5069,5.8106,6.0968,0.0,0.0,0.0,0.0,4.0951,4.4164,4.9552,5.2077,5.4705,5.7829,7.2131,8.4413,9.3571,9.6361,9.4926,8.9182,8.8495,9.2585,10.1296,9.8215,9.6703,9.6783,10.0036,10.1476,10.136,9.9879,10.0099,10.1544,10.1524,9.8349,9.359,9.3614,9.3644,9.3571,9.3571,9.3571,9.3587,1.6984,1.7209,1.8138,2.0847,2.3877,2.7118,3.0082,3.3027,3.4282,3.2412,3.2559,3.2893,3.3026,3.511,3.6433,3.6273,3.6473,3.65,3.6273,3.8297,3.9421,3.9866,4.613,4.8015,4.4143,3.9039,3.5548,3.3717,2.3243,1.7329,1.6196,1.6215,1.6202,1.6196,1.6045,1.5999,1.6738,2.85,3.2695,3.0687,2.15,1.795,1.8232,1.8733,1.8699,1.8836,1.8728,1.8782,1.8782,1.8796,1.8782,1.8762,1.8762,1.8762,1.8782,1.8782,1.8782,1.8749,1.8836,2.576,3.371,3.6354,3.6897,3.6849,3.6887,4.5755,5.39,5.3566,5.3716,5.6257,6.3982,5.1548,4.1475,4.5055,6.5618,8.0204,7.7339,7.9368,8.2426,0.0,0.0,0.0,4.2816,4.1221,4.1877,4.5291,4.8566,5.251,5.7236,7.9821,9.3393,9.5176,9.6616,9.8656,10.1324,8.8037,8.7764,10.0293,9.7862,9.706,9.7814,10.0325,10.1544,10.1464,10.1538,10.1486,10.1424,10.0315,9.7324,9.3566,9.3563,9.3571,9.3571,9.3571,9.3571,9.3571,1.6637,1.7194,1.7792,1.871,2.297,2.7188,2.9653,3.3166,3.5485,3.5244,3.5271,3.5498,3.6032,3.634,3.6607,3.6834,3.6874,3.6901,3.6861,3.6826,3.8055,4.0631,4.1211,4.1072,4.0559,4.0208,3.8524,3.5091,2.4383,1.8577,1.7451,1.7386,1.7414,1.7218,1.264,1.8876,3.2863,3.3261,2.8061,1.9515,1.8304,1.8253,1.8767,1.8699,1.8836,1.8749,1.8796,1.883,1.883,1.8864,1.883,1.8762,1.8762,1.8796,1.883,1.883,1.883,1.8796,1.8891,1.9519,2.3191,3.4208,3.6998,3.6874,3.689,4.5817,5.3517,5.1935,5.6957,6.4186,7.2217,7.21,6.4086,4.3765,6.5054,8.4076,8.37,8.3977,8.4308,8.4792,0.0,0.0,5.3901,4.716,4.5384,4.8362,5.2637,5.5321,5.5887,7.9237,9.2304,9.1718,9.4777,9.8001,10.1291,9.9712,9.8364,9.712,9.6853,9.8205,10.1108,10.1397,10.1464,10.1457,10.1494,10.1477,10.114,9.6304,9.403,9.3566,9.3563,9.3571,9.3571,9.3571,9.3571,9.3571,1.7757,1.7724,1.7996,1.931,2.0705,2.433,3.183,3.4372,3.5534,3.6108,3.6029,3.6246,3.6473,3.6647,3.6874,3.7195,3.7195,3.7275,3.7448,3.7342,3.7789,3.8987,4.0285,4.0182,3.8286,4.0104,3.9176,3.5202,2.8061,2.2549,1.8664,1.653,1.4581,1.3327,2.1383,2.8804,3.4779,2.6857,2.1407,1.7975,1.7968,1.8287,1.8754,1.8891,1.8762,1.885,1.8864,1.8864,1.8884,1.8898,1.8884,1.885,1.885,1.8864,1.7424,0.9833,0.7474,0.9102,1.6847,1.8891,1.992,2.4913,3.1521,3.6839,3.6908,4.5689,5.3478,5.1725,5.8491,6.6857,7.3678,7.4962,7.1869,6.2432,6.2894,6.8562,8.0259,8.2004,8.3293,8.6867,0.0,8.0276,5.5751,6.505,6.6727,5.2599,5.3182,6.2024,7.9968,8.833,8.7685,7.6946,7.992,8.8017,10.1191,10.1283,9.9726,9.6718,9.6688,9.8425,10.147,10.1464,10.1506,10.1501,10.1501,9.9693,9.6543,9.4421,9.358,9.3589,9.3636,9.3571,9.3571,9.3571,9.3571,9.3571,1.8277,1.8049,1.8113,1.9248,1.8813,2.1142,2.8847,3.0249,3.1727,3.5767,3.6484,3.6861,3.6767,3.6941,3.7195,3.7489,3.7529,3.7595,3.7809,3.7809,3.7849,3.7929,3.9532,3.9458,3.7061,3.9112,3.8558,3.5308,3.1996,2.7673,2.2693,2.1085,1.9181,1.7739,2.9805,3.3183,2.9284,2.0799,1.7404,1.7978,1.8192,1.8477,1.8383,1.4729,1.3372,1.3163,1.3177,1.3177,1.3177,1.3187,1.3187,1.3187,1.3163,1.3177,1.1516,0.2576,0.0,0.28,1.5265,1.8728,1.8802,1.8858,2.7968,3.6945,3.6788,4.283,4.897,5.0996,6.1242,7.1176,7.5211,7.6092,7.6713,7.8676,6.964,6.6827,7.9723,8.1524,8.3624,8.9246,8.5155,7.4961,5.7353,7.8097,8.2119,5.6537,5.4611,6.38,8.491,8.4429,8.1077,7.5727,7.3031,8.1231,10.1115,10.0403,9.8829,9.6703,9.7652,9.9328,10.1507,10.1538,10.1513,10.1393,9.9837,9.7038,9.3606,9.3656,9.3634,9.3571,9.3571,9.3537,9.3621,9.3571,9.3537,9.3621,1.7787,1.7911,1.7944,1.801,1.7977,1.7931,1.8108,1.8573,2.3009,3.4607,3.6879,3.745,3.7408,3.7382,3.7489,3.7782,3.7809,3.7809,3.7809,3.7809,3.7956,3.825,3.7676,3.7382,3.7382,3.6807,3.6193,3.5591,3.5182,3.3543,3.0396,3.3576,3.4962,3.498,3.5191,2.8544,1.7216,1.7684,1.786,1.7901,1.8589,1.8802,1.7435,0.4882,0.0233,0.0234,0.0235,0.0235,0.0235,0.0235,0.0236,0.0235,0.0234,0.0234,0.0235,0.0,0.0,0.2807,1.5304,1.883,1.8694,1.8879,2.7874,3.6973,3.6843,3.617,3.856,4.9111,6.6011,7.8678,7.8704,7.8719,8.1028,8.7762,8.8727,8.764,8.4966,8.4565,8.6382,9.1171,7.2047,5.8991,6.0572,8.2271,8.5581,5.987,5.7931,5.8078,5.8467,6.0769,7.2487,9.524,7.9677,8.0698,10.1097,9.829,9.6765,9.6703,9.9906,10.1513,10.1507,10.1538,10.1513,10.1195,9.5958,9.3623,9.3601,9.3644,9.3571,9.3571,9.3571,9.3587,9.3569,9.3621,9.3587,9.3569,1.7868,1.7889,1.7932,1.7847,1.8336,1.8438,1.8555,1.8781,2.0191,2.3785,2.4729,2.8355,3.6985,3.7675,3.7782,3.8076,3.8116,3.8223,3.8437,3.8437,3.8464,3.8584,3.8183,3.7889,3.7676,3.7088,3.65,3.5939,3.3959,3.211,3.0663,3.3758,3.5191,3.4775,2.6561,2.0758,1.767,1.7812,1.8057,1.8603,1.8747,1.8905,1.738,0.4905,0.0,0.0,0.0,0.0,0.0,0.0,0.0,0.0,0.0,0.0,0.0,0.0,0.0,0.2807,1.5304,1.883,1.8694,1.8879,2.7874,3.6999,3.6992,4.1672,4.7266,5.0735,6.6026,7.882,7.8741,8.264,8.6593,8.8794,8.9151,9.0013,9.2459,9.2848,9.3425,9.4989,7.3093,5.8196,5.8765,7.944,8.9716,8.213,8.1581,7.5236,6.0678,7.3816,8.6259,9.5961,9.1029,9.1415,9.81,9.7204,9.6718,9.6766,9.9967,10.147,10.1538,10.1457,10.1538,10.1174,9.5949,9.3624,9.361,9.367,9.3571,9.3571,9.3571,9.3587,9.3399,9.1312,9.18,9.3569,1.7914,1.8179,1.8233,1.8141,1.8644,1.8913,1.8836,1.8823,1.8871,1.883,1.9056,2.2459,3.0272,3.5255,3.8114,3.8437,3.8437,3.8504,3.8718,3.8718,3.8718,3.8718,3.8437,3.8183,3.7996,3.7408,3.6874,3.6393,3.4509,3.3266,3.2642,3.2865,3.377,3.4717,2.27,1.7478,1.7968,1.8091,1.8548,1.8369,1.3719,1.1673,1.0322,-0.2339,-0.7026,-0.7026,-0.7026,-0.7026,-0.7026,-0.7038,-0.3982,-0.0936,-0.5638,-0.3761,0.0,0.0,0.0,0.281,1.5304,1.885,1.8728,1.872,2.7874,3.6709,3.6402,4.4176,5.2459,5.6187,6.8621,7.8869,7.885,8.2293,8.607,8.8727,9.0707,9.3105,9.6234,9.6673,9.398,8.6702,7.2174,6.2291,6.1058,8.074,9.3881,9.4457,8.7096,7.6875,6.3769,8.2156,9.4668,9.8058,9.5867,9.5272,9.6714,9.6671,9.6695,9.6704,9.9916,10.1464,10.1494,10.146,10.1483,10.1184,9.5879,9.3611,9.3571,9.3571,9.3571,9.3571,9.3571,9.3587,9.3181,9.0187,9.0959,9.3569,1.7874,1.8342,1.8844,1.8754,1.8788,1.8836,1.8762,1.8898,1.8751,1.8784,1.9372,1.9713,1.9713,3.029,3.7762,3.8552,3.8718,3.8718,3.8718,3.8718,3.8718,3.8718,3.8437,3.829,3.8263,3.7463,3.7011,3.6458,3.634,3.6072,3.6072,3.1987,3.1633,3.409,2.3781,1.8573,1.7914,1.8464,1.8362,1.6507,0.4664,0.0,-0.1404,-1.4113,-1.8898,-1.8884,-1.8884,-1.8884,-1.8884,-1.8898,-1.1032,-0.3276,-1.5064,-1.0794,-0.117,-0.0235,0.0,0.2815,1.532,1.8864,1.8782,1.8823,2.7813,3.6607,3.5374,4.4084,5.4942,6.4279,7.3076,7.9024,7.8759,7.9213,8.1651,8.8354,9.3694,9.6994,9.6768,9.5693,8.8218,7.0084,7.0987,7.1902,6.877,8.6418,9.8057,9.8046,7.9598,6.8618,6.925,8.669,9.7974,10.0909,9.521,9.3611,9.6653,9.6695,9.6828,9.7112,10.0093,10.1494,10.1494,10.1501,10.119,10.0344,9.5681,9.3538,9.3571,9.3571,9.3571,9.3571,9.3571,9.3587,9.3215,9.0472,9.1211,9.3569,1.8484,1.8713,1.8768,1.8905,1.8708,1.8762,1.8918,1.8731,1.9074,1.953,1.9605,1.9626,1.9626,2.232,2.8187,3.7775,3.8618,3.8718,3.8718,3.8718,3.8718,3.8718,3.8651,3.8504,3.8263,3.5584,3.3916,3.3223,3.5132,3.6072,3.6072,3.4888,3.2445,2.9017,3.0511,2.6495,1.8678,1.8788,1.3251,0.4196,0.1168,0.0,-0.1404,-1.4088,-1.883,-1.8796,-1.8796,-1.8796,-1.8796,-1.883,-1.6914,-1.4761,-1.7923,-1.6724,-1.2429,-0.2815,0.0,0.281,1.5304,1.8864,1.8762,1.8913,2.7348,3.5481,3.5308,4.9337,6.3312,6.5619,7.4581,8.1271,7.9202,8.3065,8.7946,9.187,9.6986,9.9463,9.7055,8.5321,7.532,7.0687,8.507,9.499,9.4214,9.8702,10.1716,10.17,9.6242,9.2985,9.3139,9.7586,9.9327,9.7545,9.6206,9.5892,9.6732,9.6722,9.7923,10.0435,10.109,10.1494,10.1494,10.1501,9.8032,9.2075,9.3173,9.3538,9.3571,9.3571,9.3571,9.3571,9.3571,9.3587,9.3501,9.2811,9.303,9.3569,1.8891,1.8871,1.8891,1.8749,1.8816,1.8898,1.8731,1.9108,1.9257,1.966,1.9729,1.9784,1.9784,1.9715,2.2583,2.9436,3.3959,3.705,3.8718,3.8718,3.8718,3.8718,3.8718,3.7942,3.6306,3.4318,3.2866,3.2161,3.4964,3.579,3.4461,3.3752,3.1316,2.7416,2.7626,2.4455,1.8871,1.8708,1.1441,0.0,0.0,-0.3512,-0.9379,-1.6215,-1.8796,-1.8762,-1.8762,-1.8762,-1.8762,-1.8796,-1.8782,-1.8782,-1.8816,-1.8816,-1.738,-1.0567,-0.4455,0.2812,1.5331,1.8898,1.8742,1.8479,2.6784,3.5285,3.5142,4.7794,6.0661,6.5196,7.5024,8.205,7.9237,8.5591,9.245,9.6577,10.0912,9.9879,8.8809,7.7824,7.4366,8.3698,9.6897,10.5209,10.5192,10.3396,10.2192,10.2207,10.1573,10.1309,10.1307,10.1311,9.9797,9.6573,9.6601,9.7388,9.89,9.8888,9.9769,10.1507,10.1538,10.1515,10.1502,10.1555,9.6957,8.9294,9.2326,9.3656,9.3587,9.3587,9.3621,9.3571,9.3571,9.3655,9.3587,9.3537,9.3655,9.3553,1.883,1.8782,1.8762,1.8796,1.8898,1.8764,1.8805,1.9278,1.9681,1.9715,1.9818,1.9664,1.9664,1.9784,1.9695,1.9681,2.7122,3.3677,3.8293,3.8758,3.8499,3.8007,3.8525,3.6855,3.3218,3.3199,3.2709,3.1769,3.4668,3.4878,3.2385,3.0969,2.9477,2.7688,2.1564,1.8762,1.8782,1.8864,1.1503,0.0,0.0,-0.751,-1.8898,-1.885,-1.8796,-1.8762,-1.8762,-1.8762,-1.8762,-1.8762,-1.8762,-1.8762,-1.8762,-1.8762,-1.8782,-1.8864,-0.9869,0.2346,1.2976,1.7456,1.8674,1.8057,2.6523,3.5734,3.7324,4.4786,5.4705,6.6272,7.6236,8.2296,8.0637,8.7623,9.5367,10.065,10.431,9.928,7.8866,7.6312,8.2909,10.0312,10.5111,10.702,10.6994,10.3509,10.1308,10.1316,10.1323,10.1288,10.1329,10.0898,9.9396,9.6772,9.6704,9.8242,10.1522,10.1501,10.1531,10.1464,10.1523,10.1465,10.1463,10.0205,9.5829,8.9217,9.1758,9.2917,9.2944,9.3399,9.3636,9.3537,9.3571,9.3571,9.3537,9.3571,9.3571,9.3571,1.8751,1.885,1.8796,1.8697,1.8731,1.9074,1.9571,1.9647,1.9729,1.961,1.9644,1.9664,1.9664,1.9644,1.9818,1.9695,2.1129,2.6693,3.8062,3.8618,3.7516,3.4651,3.7242,3.6056,3.0137,3.2028,3.1634,2.8813,3.159,3.2844,3.2373,2.9662,2.8167,2.7688,2.1564,1.8782,1.883,1.8884,1.1516,0.0,0.0,-0.7496,-1.8884,-1.8816,-1.8762,-1.8762,-1.8762,-1.8762,-1.8762,-1.8762,-1.8762,-1.8762,-1.8762,-1.8762,-1.8782,-1.8864,-0.9851,0.0468,0.2346,1.0692,1.861,1.7989,2.663,3.7518,4.674,5.0203,5.6817,7.6174,8.1613,8.3685,8.6905,9.0818,9.532,10.0606,10.4303,9.9287,7.8882,9.1129,10.34,10.66,10.4216,10.2281,10.232,10.1708,10.1291,10.1291,10.1315,10.1301,10.1277,9.8817,9.716,9.675,9.6658,9.8264,10.1501,10.1514,10.1514,10.1494,10.1465,10.1516,10.1318,9.4208,9.0314,8.9114,8.9644,8.9778,9.0052,9.2522,9.3569,9.3602,9.3655,9.3621,9.3602,9.3655,9.3571,9.3571,1.8805,1.8697,1.8898,1.8731,1.9061,1.9427,1.9647,1.975,1.9818,1.9644,1.9664,1.9664,1.9664,1.9664,1.963,1.9798,1.9729,2.2111,2.7969,3.4891,3.7957,3.6503,3.4666,3.214,2.9188,2.9283,2.9417,2.9668,3.3297,3.3855,3.1613,3.2469,2.9229,2.2991,2.0161,1.8782,1.8351,1.1495,0.5388,0.0,0.0,-0.7491,-1.885,-1.8782,-1.8762,-1.8762,-1.8762,-1.8762,-1.8762,-1.8762,-1.8762,-1.8762,-1.8762,-1.8782,-1.8816,-1.8884,-0.9869,0.0,0.0,0.924,1.8767,1.7964,2.6693,3.804,4.8928,5.1389,5.739,7.8453,8.2793,8.4582,9.0483,9.2721,9.5929,10.298,9.6181,8.6896,7.7932,9.4753,10.73,10.5514,10.2902,10.1308,10.1302,10.1326,10.1315,10.1311,9.9765,9.8841,9.8817,9.745,9.7455,9.9206,9.9305,10.0042,10.1478,10.1516,10.0143,9.7245,10.0053,10.1543,10.1169,9.2899,8.9087,8.9083,8.914,8.9091,8.9297,9.2353,9.3602,9.3452,9.1868,9.2103,9.3587,9.3537,9.3655,9.3553,1.9128,1.8818,1.8798,1.8831,1.9189,1.9796,1.9715,1.9596,1.9664,1.9664,1.9664,1.9664,1.9664,1.9664,1.9664,1.9664,1.9798,1.9729,1.9729,2.8931,3.5012,3.6527,3.0346,2.7044,2.7044,2.5307,2.6528,3.0428,3.5127,3.4953,3.0236,3.1909,2.7616,1.8762,1.8782,1.8796,1.7891,0.5378,0.0,-0.0234,-0.3276,-1.007,-1.883,-1.8782,-1.8762,-1.8762,-1.8762,-1.8762,-1.8762,-1.8762,-1.8762,-1.8762,-1.8782,-1.8796,-1.8131,-1.5304,-0.7523,0.0,0.0,0.9213,1.852,1.7989,2.8446,4.109,4.9492,5.1474,5.7337,7.8481,8.4081,8.6979,9.2578,9.5177,9.8746,10.5315,8.9452,7.8177,8.3596,9.8007,10.6597,10.2995,10.1793,10.098,10.0282,10.0909,10.1294,10.1294,9.8438,9.6685,9.6681,9.7422,9.8947,10.1402,10.145,10.1502,10.1466,10.0284,9.7573,9.3669,9.8958,10.0913,9.942,9.2305,8.9062,8.9106,8.9083,8.9441,9.0365,9.2639,9.3636,9.3368,9.106,9.1548,9.3655,9.3571,9.3587,9.3501,1.9647,1.9284,1.8747,1.888,1.9413,1.9715,1.963,1.9664,1.9664,1.9664,1.9664,1.9664,1.9664,1.9664,1.9664,1.9664,1.9644,1.9644,1.9644,2.063,2.3819,2.9752,2.3827,2.038,2.038,2.0331,2.313,2.9374,3.4507,3.3988,2.7966,2.2594,1.9697,1.8762,1.8816,1.885,1.7942,0.5384,0.0,-0.0938,-1.2663,-1.7878,-1.883,-1.8782,-1.8762,-1.8762,-1.8762,-1.8762,-1.8762,-1.8762,-1.8762,-1.8762,-1.8816,-1.883,-1.6454,-0.4923,-0.0704,0.0,0.0,0.875,1.8048,1.7982,3.4267,5.0472,5.1305,5.1409,5.7291,7.8449,8.8181,9.2905,9.3491,10.0125,10.5728,10.6299,8.9921,8.3804,10.3007,10.6994,10.642,10.1897,10.1289,10.0205,9.7324,9.9638,10.1277,10.1277,9.8442,9.6708,9.6685,9.9563,10.1292,10.1457,10.1514,10.15,10.1466,9.668,9.4043,9.3694,9.8972,9.8899,9.4077,9.0638,8.9062,8.9106,8.9083,9.0662,9.3257,9.3515,9.3569,9.3569,9.3334,9.3452,9.3602,9.3655,9.3587,9.3165,1.9664,1.9522,1.9427,1.9341,1.9522,1.9729,1.9644,1.9664,1.9664,1.9664,1.9664,1.9664,1.9664,1.9664,1.9664,1.9664,1.9664,1.9664,1.9664,1.9664,2.0894,2.3093,2.0887,1.9664,1.9664,1.9695,2.0794,2.3408,3.312,3.6463,3.3292,2.3473,1.885,1.8762,1.8816,1.4549,0.6792,0.2105,-0.445,-1.1988,-1.6933,-1.8816,-1.8782,-1.8762,-1.8762,-1.8762,-1.8762,-1.8762,-1.8762,-1.8762,-1.8762,-1.8762,-1.8816,-1.3363,-0.6315,-0.1407,0.5618,1.1673,1.1763,1.4716,1.796,1.7896,3.4857,5.1444,5.132,5.1439,5.8584,8.4315,9.1642,9.3635,9.3591,10.0611,10.6387,10.6426,10.0686,9.9043,10.6883,10.741,10.5606,10.1789,9.9618,9.7996,9.6793,9.7749,9.8466,9.8466,9.7367,9.7162,9.8154,10.0325,9.9959,9.6721,9.8181,9.8242,9.6637,9.4635,9.358,9.359,9.4627,9.4592,9.3448,9.0434,8.9126,8.9106,8.907,9.0865,9.3644,9.3602,9.3587,9.3621,9.3571,9.3537,9.3621,9.3571,9.3587,9.3131,1.3588,1.3518,1.471,1.9045,1.9678,1.9596,1.9698,1.9712,1.9698,1.9678,1.9678,1.9678,1.9664,1.9664,1.9664,1.9664,1.9664,1.9664,1.9664,1.9664,1.9664,1.9664,1.9664,1.9664,1.9664,1.9798,1.9695,1.9612,2.8563,3.2422,3.1251,2.2846,1.8898,1.8762,1.883,1.172,0.0,0.0,-0.7262,-1.8898,-1.883,-1.8796,-1.8762,-1.8762,-1.8762,-1.8762,-1.8762,-1.8762,-1.8762,-1.8762,-1.8762,-1.8782,-1.883,-1.0088,0.0,0.0,0.8866,1.8674,1.861,1.8213,1.7914,1.7882,3.4877,5.1368,5.1336,5.1371,5.9415,8.7754,9.3606,9.4411,9.7126,10.2418,10.6514,10.6797,10.7502,10.7917,10.748,10.5903,10.3897,10.1565,9.8605,9.6666,9.6666,9.5229,9.4995,9.6616,9.6688,9.7245,9.8518,9.8903,9.7709,9.4848,9.5783,9.5367,9.3586,9.3572,9.3606,9.3572,9.2042,9.1614,9.2178,9.0008,8.9049,8.914,8.9623,9.1237,9.3644,9.3553,9.3571,9.3571,9.3571,9.3571,9.3571,9.3571,9.3639,9.3283,0.0,0.0,0.4215,1.7234,1.9649,1.9548,1.9548,1.9548,1.9535,1.9481,1.9725,1.9712,1.9664,1.9664,1.9664,1.9664,1.9664,1.9664,1.9664,1.9664,1.9664,1.9664,1.9664,1.9664,1.9664,1.9664,1.9664,1.9664,1.975,1.9612,1.9692,1.9061,1.8898,1.8762,1.8864,1.1741,0.0,0.0,-0.7262,-1.8898,-1.8796,-1.8762,-1.8762,-1.8762,-1.8762,-1.8762,-1.8762,-1.8762,-1.8762,-1.8762,-1.8762,-1.8776,-1.863,-1.0125,0.0,0.0,0.9033,1.8586,1.7967,1.7826,1.7871,1.7991,3.4864,5.1466,5.1315,5.1596,5.9681,8.7728,9.358,9.6329,10.478,10.6403,10.6796,10.7781,10.8008,10.7613,10.6483,10.3395,10.1302,10.1277,9.8578,9.669,9.669,9.2103,9.1189,9.6331,9.6667,9.6892,9.744,9.503,9.4774,9.7364,9.4971,9.3576,9.3606,9.3542,9.3571,9.3571,9.2019,9.0553,8.9077,8.9138,8.9049,8.9173,9.0662,9.2178,9.3644,9.3553,9.3571,9.3571,9.3571,9.3571,9.3571,9.3571,9.3534,9.3573,0.0,0.0,0.1245,0.5258,0.5943,0.5886,0.5886,0.5886,0.5886,0.588,1.4022,1.978,1.9766,1.9732,1.9712,1.9712,1.9678,1.9664,1.9664,1.9664,1.9712,1.98,1.9712,1.9664,1.9664,1.9664,1.9664,1.9664,1.961,1.9763,1.9612,1.9196,1.8885,1.8885,1.8731,1.1784,0.0,0.0,-0.7262,-1.8898,-1.8796,-1.8762,-1.8762,-1.8762,-1.8762,-1.8762,-1.8762,-1.8762,-1.8762,-1.8762,-1.8762,-1.7343,-0.8422,-0.3053,0.0,0.0,0.8536,1.8208,1.805,1.7792,1.794,1.7796,3.4875,5.1448,5.1433,6.5157,8.0193,8.8745,9.5056,10.0606,10.55,10.6989,10.7599,10.7886,10.7403,10.5901,10.3199,10.1894,10.0482,9.8342,9.7264,9.6708,9.6695,9.3724,9.2629,9.4802,9.4927,9.4811,9.4478,9.5141,9.5297,9.4747,9.4825,9.4498,9.361,9.3636,9.3571,9.3571,9.2083,9.0953,9.0196,8.9432,8.9647,9.072,9.1148,9.2131,9.3617,9.3621,9.3571,9.3571,9.3571,9.3571,9.3571,9.3571,9.3635,9.2534,0.0,0.0,0.0,0.0,0.0,0.0,0.0,0.0,0.0,0.0,0.688,1.1817,1.1804,1.6517,1.9766,1.9766,1.9712,1.9698,1.9698,1.9732,1.98,1.9669,1.9888,1.9854,1.9588,1.9588,1.9588,1.9602,1.9588,1.9766,1.9644,1.922,1.9093,1.8536,1.3527,0.7079,0.0,0.0,-0.7262,-1.8898,-1.8796,-1.8762,-1.8762,-1.8762,-1.8762,-1.8762,-1.8762,-1.8762,-1.8762,-1.8762,-1.8782,-1.6675,-0.3977,0.0,0.0,0.0,0.8501,1.7888,1.7914,2.1173,2.4711,2.4809,3.8127,5.3261,6.0652,7.6126,8.9089,8.9117,9.6713,10.4192,10.6603,10.762,10.7884,10.7397,10.5692,10.3668,10.1625,10.0199,9.8754,9.6936,9.6727,9.6468,9.5728,9.3697,9.2513,9.2951,9.2867,9.2919,9.3205,9.3973,9.4129,9.3655,9.4363,9.4363,9.3571,9.3571,9.3571,9.3571,9.2319,9.1474,9.0818,8.9985,9.0065,9.0844,9.1135,9.2029,9.3113,9.3402,9.3571,9.3571,9.3571,9.3368,9.303,9.2744,9.2707,9.1346,0.0,0.0,0.0,0.0,0.0,0.0,0.0,0.0,0.0,0.0,0.0,0.0,0.0,1.0824,1.8033,1.8033,1.9012,1.9732,1.9732,1.9588,1.9689,1.9789,2.0159,2.0193,1.9897,1.9876,1.9876,1.966,1.8598,1.8536,1.9722,1.9766,1.9535,1.8323,0.5702,0.0,0.0,0.0,-0.7262,-1.8898,-1.8796,-1.8762,-1.8762,-1.8762,-1.8762,-1.8762,-1.8762,-1.8762,-1.8762,-1.8782,-1.8111,-1.5064,-0.352,0.0,0.0,0.0,0.8463,1.7841,1.7792,2.6347,3.5484,3.6324,4.5281,5.8273,7.4957,8.4139,8.9274,8.9652,9.8749,10.6805,10.7815,10.7683,10.7091,10.6095,10.3283,10.1196,10.0875,9.8096,9.6031,9.6013,9.6216,9.5708,9.4251,9.2545,9.1362,9.0884,9.0815,9.1437,9.2889,9.185,9.1947,9.3436,9.3537,9.3571,9.3571,9.3571,9.3571,9.3571,9.2793,9.2049,9.1372,9.0628,9.0357,9.0459,9.1102,9.1812,9.259,9.33,9.3571,9.3571,9.3571,9.303,9.2034,9.1479,9.1193,9.015,0.0,0.0,0.0,0.0,0.0,0.0,0.0,0.0,0.0,0.0,0.0,0.0,0.0,0.2461,0.4179,0.4179,1.3801,1.978,1.978,1.9669,1.9809,2.0207,2.0349,2.0471,2.0319,2.0349,2.0227,2.0248,0.9529,0.9766,2.0374,2.0345,1.9969,1.8927,0.5734,0.0,0.0,0.0,-0.7262,-1.8898,-1.8796,-1.8762,-1.8762,-1.8762,-1.8762,-1.8762,-1.8762,-1.8782,-1.8816,-1.8864,-1.2205,-0.351,-0.0938,0.0,0.0,0.0,0.8608,1.7982,1.7834,2.6442,3.7308,4.5832,6.0523,7.3924,7.7836,8.4122,9.0172,9.4249,10.1822,10.772,10.802,10.51,10.2712,10.2388,10.1814,10.0518,9.8061,9.3713,9.0757,9.0701,9.2478,9.3567,9.3201,9.1976,9.0642,8.9559,8.9449,8.9857,9.0775,9.1195,9.1711,9.2658,9.3267,9.3571,9.3571,9.3571,9.3571,9.3571,9.2793,9.2353,9.215,9.1406,9.1372,9.1947,9.2116,9.2624,9.3334,9.3503,9.3571,9.3571,9.3571,9.3098,9.2169,9.1126,9.0706,9.0405,0.0,0.0,0.0,0.0,0.0,0.0,0.0,0.0,0.0,0.0,0.0,0.0,0.0,0.0,0.0,0.0,0.6393,1.0337,1.0337,1.0189,1.3313,2.0077,1.4291,1.0776,1.0823,1.0751,1.0705,1.0687,0.355,0.3797,1.0893,1.7369,2.032,1.9228,0.5818,0.0,0.0,0.0,-0.7262,-1.8898,-1.8796,-1.8762,-1.8762,-1.8762,-1.8762,-1.8762,-1.8762,-1.4983,-1.0755,-1.6724,-1.0333,0.0,0.0,0.0,0.1159,0.6883,1.2912,1.9029,2.458,3.0605,3.996,5.9493,7.1649,7.8751,7.8869,8.5982,9.3449,9.6111,10.1402,10.6115,10.7718,10.4289,10.1291,10.1277,10.0078,9.8535,9.6915,9.2352,8.913,8.9147,9.0974,9.2189,9.1964,9.0881,8.9853,8.9184,8.9072,8.941,9.0154,9.056,9.1271,9.2387,9.2827,9.3199,9.3571,9.3571,9.3571,9.3571,9.3165,9.2793,9.2421,9.2015,9.2049,9.2421,9.2421,9.2861,9.3571,9.3571,9.3571,9.3571,9.3571,9.2895,9.1846,9.1141,9.0505,8.9634,0.0,0.0,0.0,0.0,0.0,0.0,0.0,0.0,0.0,0.0,0.0,0.0,0.0,0.0,0.0,0.0,0.0,0.0,0.0,0.0,0.5035,1.6529,0.6141,0.0,0.0,0.0,0.0,0.0,0.0,0.0,0.0256,1.407,1.9115,1.589,0.4921,0.0,0.0,0.0,-0.7267,-1.8898,-1.8796,-1.8762,-1.8762,-1.8782,-1.8762,-1.8762,-1.8782,-1.2143,-0.4434,-1.269,-0.8696,0.0,0.0,0.0,0.2313,1.4291,1.9338,2.2863,3.2555,3.5186,4.1453,6.762,7.6511,7.9085,8.0263,8.8949,9.6915,9.7623,10.0501,10.3902,10.7088,10.4194,10.111,10.0608,9.8345,9.638,9.5559,9.1728,8.905,8.9135,9.0013,9.0676,9.071,8.9381,8.8813,8.9072,8.9072,8.9342,8.9985,9.0154,9.0649,9.1598,9.2135,9.2608,9.298,9.3385,9.3571,9.3571,9.3571,9.3233,9.2624,9.2624,9.2624,9.2624,9.2624,9.2996,9.3571,9.3571,9.3571,9.3571,9.3571,9.2725,9.1474,9.1203,9.0108,8.8405,0.0,0.0,0.0,0.0,0.0,0.0,0.0,0.0,0.0,0.0,0.0,0.0,0.0,0.0,0.0,0.0,0.0,0.0,0.0,0.0,0.0757,0.2779,0.1025,0.0,0.0,0.0,0.0,0.0,0.0,0.0,0.0257,1.4093,1.4,0.2514,0.0742,0.0,0.0,0.0,-0.731,-1.8898,-1.8796,-1.8762,-1.8762,-1.8816,-1.8796,-1.8762,-1.8816,-1.7632,-1.4788,-0.5638,-0.1411,0.0,0.0,0.0,0.2296,1.4493,2.5031,3.31,3.4847,3.5252,3.8308,5.1826,6.7081,8.0399,8.6345,9.2345,9.7701,10.1305,10.2507,10.3702,10.6227,10.3727,10.0366,9.778,9.6923,9.513,9.0743,8.9542,8.9053,8.9121,8.759,8.727,8.9126,8.7878,8.7529,8.8959,8.9072,8.914,8.9241,8.985,8.9648,8.8262,9.0942,9.18,9.0436,9.2573,9.3571,9.3571,9.3571,9.3537,9.3436,9.3436,9.3436,9.3436,9.3436,9.347,9.3571,9.3571,9.3571,9.3571,9.3571,9.3064,9.2116,9.0831,8.888,8.6991,0.0,0.0,0.0,0.0,0.0,0.0,0.0,0.0,0.0,0.0,0.0,0.0,0.0,0.0,0.0,0.0,0.0,0.0,0.0,0.0,0.0,0.0,0.0,0.0,0.0,0.0,0.0,0.0,0.0,0.0,0.0257,0.6164,0.587,0.0,0.0,0.0,0.0,0.0,-0.7323,-1.8898,-1.883,-1.8782,-1.8762,-1.8782,-1.8796,-1.8796,-1.883,-1.4321,-0.7502,-0.1876,0.0,0.0,0.0,0.0,0.3663,2.205,3.1263,3.5829,3.8952,3.7475,3.7871,4.8626,6.814,8.5334,8.8446,9.4841,10.0689,10.249,10.1082,9.9708,10.057,9.729,9.4061,9.2701,9.4822,9.4879,8.9792,8.9121,8.8701,8.779,8.676,8.658,8.7579,8.6118,8.6272,8.8959,8.8176,8.806,8.9072,8.941,8.8995,8.76,8.9919,9.0808,8.9899,9.195,9.3165,9.3571,9.2635,9.2114,9.2114,9.3182,9.3029,9.2114,9.3182,9.3571,9.3571,9.3571,9.3571,9.3453,9.2514,9.1381,9.0213,9.0216,8.9226,8.7911]}]]